[[{"header":{"parameterUnit":"m.s-1","parameterCategory":1,"la1":31.0,"la2":29.5877,"lo1":-88.7671,"lo2":-86.6584,"dy":0.0162,"dx":0.0185,"nx":115,"ny":88,"refTime":"2024-08-15T00:00:00:Z","depth":0,"parameterNumber":2,"parameterNumberName":"U-component_of_WINDS"},"data":[0.0,0.0,0.0,0.0,0.0,0.0,0.0,0.0,0.0,0.0,0.0,0.0,0.0,0.0,0.0,0.0,0.0,0.0,0.0,0.0,0.0,0.0,0.0,0.0,0.0,0.0,0.0,0.0,0.0,0.0,0.0,0.0,0.0,0.0,0.0,0.0,0.0,0.0,0.0,0.0,0.0,0.0,0.0,0.0,0.0,0.0,0.0,0.0,0.0,0.0,0.0,0.0,0.0,0.0,0.0,0.0,0.0,0.0,0.0,0.0,0.0,0.0,0.0,0.0,0.0,0.0,0.0,0.0,0.0,0.0,0.0,0.0,0.0,0.0,0.0,0.0,0.0,0.0,0.0,0.0,0.0,0.0,0.0,0.0,0.0,0.0,0.0,0.0,0.0,0.0,0.0,0.0,0.0,0.0,0.0,0.0,0.0,0.0,0.0,0.0,0.0,0.0,0.0,0.0,0.0,0.0,0.0,0.0,0.0,0.0,0.0,0.0,0.0,0.0,0.0,0.0,0.0,0.0,0.0,0.0,0.0,0.0,0.0,0.0,0.0,0.0,0.0,0.0,0.0,0.0,0.0,0.0,0.0,0.0,0.0,0.0,0.0,0.0,0.0,0.0,0.0,0.0,0.0,0.0,0.0,0.0,0.0,0.0,0.0,0.0,0.0,0.0,0.0,0.0,0.0,0.0,0.0,0.0,0.0,0.0,0.0,0.0,0.0,0.0,0.0,0.0,0.0,0.0,0.0,0.0,0.0,0.0,0.0,0.0,0.0,0.0,0.0,0.0,0.0,0.0,0.0,0.0,0.0,0.0,0.0,0.0,0.0,0.0,0.0,0.0,0.0,0.0,0.0,0.0,0.0,0.0,0.0,0.0,0.0,0.0,0.0,0.0,0.0,0.0,0.0,0.0,0.0,0.0,0.0,0.0,0.0,0.0,0.0,0.0,0.0,0.0,0.0,0.0,0.0,0.0,0.0,0.0,0.0,0.0,0.0,0.0,0.0,0.0,0.0,0.0,0.0,0.0,0.0,0.0,0.0,0.0,0.0,0.0,0.0,0.0,0.0,0.0,0.0,0.0,0.0,0.0,0.0,0.0,0.0,0.0,0.0,0.0,0.0,0.0,0.0,0.0,0.0,0.0,0.0,0.0,0.0,0.0,0.0,0.0,0.0,0.0,0.0,0.0,0.0,0.0,0.0,0.0,0.0,0.0,0.0,0.0,0.0,0.0,0.0,0.0,0.0,0.0,0.0,0.0,0.0,0.0,0.0,0.0,0.0,0.0,0.0,0.0,0.0,0.0,0.0,0.0,0.0,0.0,0.0,0.0,0.0,0.0,0.0,0.0,0.0,0.0,0.0,0.0,0.0,0.0,0.0,0.0,0.0,0.0,0.0,0.0,0.0,0.0,0.0,0.0,0.0,0.0,0.0,0.0,0.0,0.0,0.0,0.0,0.0,0.0,0.0,0.0,0.0,0.0,0.0,0.0,0.0,0.0,0.0,0.0,0.0,0.0,0.0,0.0,0.0,0.0,0.0,0.0,0.0,0.0,0.0,0.0,0.0,0.0,0.0,0.0,0.0,0.0,0.0,0.0,0.0,0.0,0.0,0.0,0.0,0.0,0.0,0.0,0.0,0.0,0.0,0.0,0.0,0.0,0.0,0.0,0.0,0.0,0.0,0.0,0.0,0.0,0.0,0.0,0.0,0.0,0.0,0.0,0.0,0.0,0.0,0.0,0.0,0.0,0.0,0.0,0.0,0.0,0.0,0.0,0.0,0.0,0.0,0.0,0.0,0.0,0.0,0.0,0.0,0.0,0.0,0.0,0.0,0.0,0.0,0.0,0.0,0.0,0.0,0.0,0.0,0.0,0.0,0.0,0.0,0.0,0.0,0.0,0.0,0.0,0.0,0.0,0.0,0.0,0.0,0.0,0.0,0.0,0.0,0.0,0.0,0.0,0.0,0.0,0.0,0.0,0.0,0.0,0.0,0.0,0.0,0.0,0.0,0.0,0.0,0.0,0.0,0.0,0.0,0.0,0.0,0.0,0.0,0.0,0.0,0.0,0.0,0.0,0.0,0.0,0.0,0.0,0.0,0.0,0.0,0.0,0.0,0.0,0.0,0.0,0.0,0.0,0.0,0.0,0.0,0.0,0.0,0.0,0.0,0.0,0.0,0.0,0.0,0.0,0.0,0.0,0.0,0.0,0.0,0.0,0.0,0.0,0.0,0.0,0.0,0.0,0.0,0.0,0.0,0.0,0.0,0.0,0.0,0.0,0.0,0.0,0.0,0.0,0.0,0.0,0.0,0.0,0.0,0.0,0.0,0.0,0.0,0.0,0.0,0.0,0.0,0.0,0.0,0.0,0.0,0.0,0.0,0.0,0.0,0.0,0.0,0.0,0.0,0.0,0.0,0.0,0.0,0.0,0.0,0.0,0.0,0.0,0.0,0.0,0.0,0.0,0.0,0.0,0.0,0.0,0.0,0.0,0.0,0.0,0.0,0.0,0.0,0.0,0.0,0.0,0.0,0.0,0.0,0.0,0.0,0.0,0.0,0.0,0.0,0.0,0.0,0.0,0.0,0.0,0.0,0.0,0.0,0.0,0.0,0.0,0.0,0.0,0.0,0.0,0.0,0.0,0.0,0.0,0.0,0.0,0.0,0.0,0.0,0.0,0.0,0.0,0.0,0.0,0.0,0.0,0.0,0.0,0.0,0.0,0.0,0.0,0.0,0.0,0.0,0.0,0.0,0.0,0.0,0.0,0.0,0.0,0.0,0.0,0.0,0.0,0.0,0.0,0.0,0.0,0.0,0.0,0.0,0.0,0.0,0.0,0.0,0.0,0.0,0.0,0.0,0.0,0.0,0.0,0.0,0.0,0.0,0.0,0.0,0.0,0.0,0.0,0.0,0.0,0.0,0.0,0.0,0.0,0.0,0.0,0.0,0.0,0.0,0.0,0.0,0.0,0.0,0.0,0.0,0.0,0.0,0.0,0.0,0.0,0.0,0.0,0.0,0.0,0.0,0.0,0.0,0.0,0.0,0.0,0.0,0.0,0.0,0.0,0.0,0.0,0.0,0.0,0.0,0.0,0.0,0.0,0.0,0.0,0.0,0.0,0.0,0.0,0.0,0.0,0.0,0.0,0.0,0.0,0.0,0.0,0.0,0.0,0.0,0.0,0.0,0.0,0.0,0.0,0.0,0.0,0.0,0.0,0.0,0.0,0.0,0.0,0.0,0.0,0.0,0.0,0.0,0.0,0.0,0.0,0.0,0.0,0.0,0.0,0.0,0.0,0.0,0.0,0.0,0.0,0.0,0.0,0.0,0.0,0.0,0.0,0.0,0.0,0.0,0.0,0.0,0.0,0.0,0.0,0.0,0.0,0.0,0.0,0.0,0.0,0.0,0.0,0.0,0.0,0.0,0.0,0.0,0.0,0.0,0.0,0.0,0.0,0.0,0.0,0.0,0.0,0.0,0.0,0.0,0.0,0.0,0.0,0.0,0.0,0.0,0.0,0.0,0.0,0.0,0.0,0.0,0.0,0.0,0.0,0.0,0.0,0.0,0.0,0.0,0.0,0.0,0.0,0.0,0.0,0.0,0.0,0.0,0.0,0.0,0.0,0.0,0.0,0.0,0.0,0.0,0.0,0.0,0.0,0.0,0.0,0.0,0.0,0.0,0.0,0.0,0.0,0.0,0.0,0.0,0.0,0.0,0.0,0.0,0.0,0.0,0.0,0.0,0.0,0.0,0.0,0.0,0.0,0.0,0.0,0.0,0.0,0.0,0.0,0.0,0.0,0.0,0.0,0.0,0.0,0.0,0.0,0.0,0.0,0.0,0.0,0.0,0.0,0.0,0.0,0.0,0.0,0.0,0.0,0.0,0.0,0.0,0.0,0.0,0.0,0.0,0.0,0.0,0.0,0.0,0.0,0.0,0.0,0.0,0.0,0.0,0.0,0.0,0.0,0.0,0.0,0.0,0.0,0.0,0.0,0.0,0.0,0.0,0.0,0.0,0.0,0.0,0.0,0.0,0.0,0.0,0.0,0.0,0.0,0.0,0.0,0.0,0.0,0.0,0.0,0.0,0.0,0.0,0.0,0.0,0.0,0.0,0.0,0.0,0.0,0.0,0.0,0.0,0.0,0.0,0.0,0.0,0.0,0.0,0.0,0.0,0.0,0.0,0.0,0.0,0.0,0.0,0.0,0.0,0.0,0.0,0.0,0.0,0.0,0.0,0.0,0.0,0.0,0.0,0.0,0.0,0.0,0.0,0.0,0.1712,0.0,0.0,0.0,0.0,0.0,0.0,0.0,0.0,0.0,0.0,0.0,0.0,0.0,0.0,0.0,0.0,0.0,0.0,0.0,0.0,0.0,0.0,0.0,0.0,0.0,0.0,0.0,0.0,0.0,0.0,0.0,0.0,0.0,0.0,0.0,0.0,0.0,0.0,0.0,0.0,0.0,0.0,0.0,0.0,0.0,0.0,0.0,0.0,0.0,0.0,0.0,0.0,0.0,0.0,0.0,0.0,0.0,0.0,0.0,0.0,0.0,0.0,0.0,0.0,0.0,0.0,0.0,0.0,0.0,0.0,0.0,0.0,0.0,0.0,0.0,0.0,0.0,0.0,0.0,0.0,0.0,0.0,0.0,0.0,0.0,0.0,0.0,0.0,0.0,0.0,0.0,0.0,0.0,0.0,0.0,0.0,0.0,0.0,0.0,0.0,0.0,0.0,0.0,0.0,0.0,0.0,0.0,0.0,0.0,0.0,0.2568,0.249,0.2185,0.1892,0.1587,0.0,0.0,0.0,0.0,0.0,0.0,0.0,0.0,0.0,0.0,0.0,0.0,0.0,0.0,0.0,0.0,0.0,0.0,0.0,0.0,0.0,0.0,0.0,0.0,0.0,0.0,0.0,0.0,0.0,0.0,0.0,0.0,0.0,0.0,0.0,0.0,0.0,0.0,0.0,0.0,0.0,0.0,0.0,0.0,0.0,0.0,0.0,0.0,0.0,0.0,0.0,0.0,0.0,0.0,0.0,0.0,0.0,0.0,0.0,0.0,0.0,0.0,0.0,0.0,0.0,0.0,0.0,0.0,0.0,0.0,0.0,0.0,0.0,0.0,0.0,0.0,0.0,0.0,0.0,0.0,0.0,0.0,0.0,0.0,0.0,0.0,0.0,0.0,0.0,0.0,0.0,0.0,0.0,0.0,0.0,0.0,0.0,0.0,0.0,0.0,0.0,0.0,0.0,0.0,0.0,0.0,0.0,0.0,0.0,0.0,0.0,0.0,0.2235,0.1911,0.1613,0.0,0.0,0.0,0.0,0.0,0.0,0.0,0.0,0.0,0.0,0.0,0.0,0.0,0.0,0.0,0.0,0.0,0.0,0.0,0.0,0.0,0.0,0.0,0.0,0.0,0.0,0.0,0.0,0.0,0.0,0.0,0.0,0.0,0.0,0.0,0.0,0.0,0.0,0.0,0.0,0.0,0.0,0.0,0.0,0.0,0.0,0.0,0.0,0.0,0.0,0.0,0.0,0.0,0.0,0.0,0.0,0.0,0.0,0.0,0.0,0.0,0.0,0.0,0.0,0.0,0.0,0.0,0.0,0.0,0.0,0.0,0.0,0.0,0.0,0.0,0.0,0.0,0.0,0.0,0.0,0.0,0.0,0.0,0.0,0.0,0.0,0.0,0.0,0.0,0.0,0.0,0.0,0.0,0.0,0.0,0.0,0.0,0.0,0.0,0.0,0.0,0.0,0.0,0.0,0.0,0.0,0.0,0.0,0.0,0.0,0.271,0.2928,0.2679,0.0,0.1973,0.0,0.0,0.0,0.0,0.0,0.0,0.0,0.0,0.0,0.0,0.0,0.0,0.0,0.0,0.0,0.0,0.0,0.0,0.0,0.0,0.0,0.0,0.0,0.0,0.0,0.0,0.0,0.0,0.0,0.0,0.0,0.0,0.0,0.0,0.0,0.0,0.0,0.0,0.0,0.0,0.0,0.0,0.0,0.0,0.0,0.0,0.0,0.0,0.0,0.0,0.0,0.0,0.0,0.0,0.0,0.0,0.0,0.0,0.0,0.0,0.0,0.0,0.0,0.0,0.0,0.0,0.0,0.0,0.0,0.0,0.0,0.0,0.0,0.0,0.0,0.0,0.0,0.0,0.0,0.0,0.0,0.0,0.0,0.0,0.0,0.0,0.0,0.0,0.0,0.0,0.0,0.0,0.0,0.0,0.0,0.0,0.0,0.0,0.0,0.0,0.0,0.0,0.0,0.0,0.0,0.0,0.0,0.0,0.0,0.0,0.0,0.3133,0.2623,0.2224,0.0,0.0,0.0,0.0,0.0,0.0,0.0,0.0,0.0,0.0,0.0,0.0,0.0,0.0,0.0,0.0,0.0,0.0,0.0,0.0,0.0,0.0,0.0,0.0,0.0,0.0,0.0,0.0,0.0,0.0,0.0,0.0,0.0,0.0,0.0,0.0,0.0,0.0,0.0,0.0,0.0,0.0,0.0,0.0,0.0,0.0,0.0,0.0,0.0,0.0,0.0,0.0,0.0,0.0,0.0,0.0,0.0,0.0,0.0,0.0,0.0,0.0,0.0,0.0,0.0,0.0,0.0,0.0,0.0,0.0,0.0,0.0,0.0,0.0,0.0,0.0,0.0,0.0,0.0,0.0,0.0,0.0,0.0,0.0,0.0,0.0,0.0,0.0,0.0,0.0,0.0,0.0,0.0,0.0,0.0,0.0,0.0,0.0,0.0,0.0,0.0,0.0,0.0,0.0,0.0,0.0,0.0,0.0,0.0,0.0,0.3373,0.0,0.3171,0.2482,0.2003,0.1809,0.0,0.0,0.0,0.0,0.0,0.0,0.0,0.0,0.0,0.0,0.0,0.0,0.0,0.0,0.0,0.0,0.0,0.0,0.0,0.0,0.0,0.0,0.0,0.0,0.0,0.0,0.0,0.0,0.0,0.0,0.0,0.0,0.0,0.0,0.0,0.0,0.0,0.0,0.0,0.0,0.0,0.0,0.0,0.0,0.0,0.0,0.0,0.0,0.0,0.0,0.0,0.0,0.0,0.0,0.0,0.0,0.0,0.0,0.0,0.0,0.0,0.0,0.0,0.0,0.0,0.0,0.0,0.0,0.0,0.0,0.0,0.0,0.0,0.0,0.0,0.0,0.0,0.0,0.0,0.0,0.0,0.0,0.0,0.0,0.0,0.0,0.0,0.0,0.0,0.0,0.0,0.0,0.0,0.0,0.0,0.0,0.0,0.0,0.0,0.0,0.0,0.0,0.0,0.0,0.0,0.0,0.0,0.0,0.0,0.3774,0.3337,0.3196,0.2306,0.1804,0.0,0.0,0.0,0.0,0.0,0.0,0.0,0.0,0.0,0.0,0.0,0.0,0.0,0.0,0.0,0.0,0.0,0.0,0.0,0.0,0.0,0.0,0.0,0.0,0.0,0.0,0.0,0.0,0.0,0.0,0.0,0.0,0.0,0.0,0.0,0.0,0.0,0.0,0.0,0.0,0.0,0.0,0.0,0.0,0.0,0.0,0.0,0.0,0.0,0.0,0.0,0.0,0.0,0.0,0.0,0.0,0.0,0.0,0.0,0.0,0.0,0.0,0.0,0.0,0.0,0.0,0.0,0.0,0.0,0.0,0.0,0.0,0.0,0.0,0.0,0.0,0.0,0.0,0.0,0.0,0.0,0.0,0.0,0.0,0.0,0.0,0.0,0.0,0.0,0.0,0.0,0.0,0.0,0.0,0.0,0.0,0.0,0.0,0.0,0.0,0.0,0.0,0.0,0.0,0.0,0.0,0.0,0.0,0.0,0.3599,0.3479,0.343,0.3474,0.2576,0.2053,0.0,0.0,0.0,0.0,0.0,0.0,0.0,0.0,0.0,0.0,0.0,0.0,0.0,0.0,0.0,0.0,0.0,0.0,0.0,0.0,0.0,0.0,0.0,0.0,0.0,0.0,0.0,0.0,0.0,0.0,0.0,0.0,0.0,0.0,0.0,0.0,0.0,0.0,0.0,0.0,0.0,0.0,0.0,0.0,0.0,0.0,0.0,0.0,0.0,0.0,0.0,0.0,0.0,0.0,0.0,0.0,0.0,0.0,0.0,0.0,0.0,0.0,0.0,0.0,0.0,0.0,0.0,0.0,0.0,0.0,0.0,0.0,0.0,0.0,0.0,0.0,0.0,0.0,0.0,0.0,0.0,0.0,0.0,0.0,0.0,0.0,0.0,0.0,0.0,0.0,0.0,0.0,0.0,0.0,0.0,0.0,0.0,0.0,0.0,0.0,0.0,0.0,0.0,0.0,0.0,0.0,0.0,0.0,0.0,0.3459,0.0,0.3728,0.0,0.266,0.2007,0.0,0.0,0.0,0.0,0.0,0.0,0.0,0.0,0.0,0.0,0.0,0.0,0.0,0.0,0.0,0.0,0.0,0.0,0.0,0.0,0.0,0.0,0.0,0.0,0.0,0.0,0.0,0.0,0.0,0.0,0.0,0.0,0.0,0.0,0.0,0.0,0.0,0.0,0.0,0.0,0.0,0.0,0.0,0.0,0.0,0.0,0.0,0.0,0.0,0.0,0.0,0.0,0.0,0.0,0.0,0.0,0.0,0.0,0.0,0.0,0.0,0.0,0.0,0.0,0.0,0.0,0.0,0.0,0.0,0.0,0.0,0.0,0.0,0.0,0.0,0.0,0.0,0.0,0.0,0.0,0.0,0.0,0.0,0.0,0.0,0.0,0.0,0.0,0.0,0.0,0.0,0.0,0.0,0.0,0.0,0.0,0.0,0.0,0.0,0.0,0.0,0.0,0.0,0.0,0.0,0.0,0.0,0.0,0.3606,0.4158,0.4424,0.4183,0.3516,0.2508,0.1658,0.0,0.0,0.0,0.0,0.0,0.0,0.0,0.0,0.0,0.0,0.0,0.0,0.0,0.0,0.0,0.0,0.0,0.0,0.0,0.0,0.0,0.0,0.0,0.0,0.0,0.0,0.0,0.0,0.0,0.0,0.0,0.0,0.0,0.0,0.0,0.0,0.0,0.0,0.0,0.0,0.0,0.0,0.0,0.0,0.0,0.0,0.0,0.0,0.0,0.0,0.0,0.0,0.0,0.0,0.0,0.0,0.0,0.0,0.0,0.0,0.0,0.0,0.0,0.0,0.0,0.0,0.0,0.0,0.0,0.0,0.0,0.0,0.0,0.0,0.0,0.0,0.0,0.0,0.0,0.0,0.0,0.0,0.0,0.0,0.0,0.0,0.0,0.0,0.0,0.0,0.0,0.0,0.0,0.0,0.0,0.0,0.0,0.0,0.0,0.0,0.0,0.0,0.0,0.0,0.0,0.0,0.0,0.0,0.0,0.4337,0.4158,0.3867,0.3497,0.2313,0.1515,0.0,0.0,0.0,0.0,0.0,0.0,0.0,0.0,0.0,0.0,0.0,0.0,0.0,0.0,0.0,0.0,0.0,0.0,0.0,0.0,0.0,0.0,0.0,0.0,0.0,0.0,0.0,0.0,0.0,0.0,0.0,0.0,0.0,0.0,0.0,0.0,0.0,0.0,0.0,0.0,0.0,0.0,0.0,0.0,0.0,0.0,0.0,0.0,0.0,0.0,0.0,0.0,0.0,0.0,0.0,0.0,0.0,0.0,0.0,0.0,0.0,0.0,0.0,0.0,0.0,0.0,0.0,0.0,0.0,0.0,0.0,0.0,0.0,0.0,0.0,0.0,0.0,0.0,0.0,0.0,0.0,0.0,0.0,0.0,0.0,0.0,0.0,0.0,0.0,0.0,0.0,0.0,0.0,0.0,0.0,0.0,0.0,0.0,0.0,0.0,0.0,0.0,0.0,0.0,0.0,0.0,0.0,0.0,0.0,0.457,0.4231,0.3765,0.3198,0.2041,0.1093,0.0429,0.0,0.0,0.0,0.0,0.0,0.0,0.0,0.0,0.0,0.0,0.0,0.0,0.0,0.0,0.0,0.0,0.0,0.0,0.0,0.0,0.0,0.0,0.0,0.0,0.0,0.0,0.0,0.0,0.0,0.0,0.0,0.0,0.0,0.0,0.0,0.0,0.0,0.0,0.0,0.0,0.0,0.0,0.0,0.0,0.0,0.0,0.0,0.0,0.0,0.0,0.0,0.0,0.0,0.0,0.0,0.0,0.0,0.0,0.0,0.0,0.0,0.0,0.0,0.0,0.0,0.0,0.0,0.0,0.0,0.0,0.0,0.0,0.0,0.0,0.0,0.0,0.0,0.0,0.0,0.0,0.0,0.0,0.0,0.0,0.0,0.0,0.0,0.0,0.0,0.0,0.0,0.0,0.0,0.0,0.0,0.0,0.0,0.0,0.0,0.0,0.0,0.0,0.0,0.0,0.0,0.0,0.0,0.0,0.4818,0.4466,0.37,0.255,0.1682,0.0475,0.0,0.0,0.0,0.0,0.0,0.0,0.0,0.0,0.0,0.0,0.0,0.0,0.0,0.0,0.0,0.0,0.0,0.0,0.0,0.0,0.0,0.0,0.0,0.0,0.0,0.0,0.0,0.0,0.0,0.0,0.0,0.0,0.0,0.0,0.0,0.0,0.0,0.0,0.0,0.0,0.0,0.0,0.0,0.0,0.0,0.0,0.0,0.0,0.0,0.0,0.0,0.0,0.0,0.0,0.0,0.0,0.0,0.0,0.0,0.0,0.0,0.0,0.0,0.0,0.0,0.0,0.0,0.0,0.0,0.0,0.0,0.0,0.0,0.0,0.0,0.0,0.0,0.0,0.0,0.0,0.0,0.0,0.0,0.0,0.0,0.0,0.0,0.0,0.0,0.0,0.0,0.0,0.0,0.0,0.0,0.0,0.0,0.0,0.0,0.0,0.0,0.0,0.0,0.0,0.0,0.0,0.0,0.0,0.0,0.3761,0.2512,0.1759,0.1612,0.0712,-0.0437,0.0,0.0,0.0,0.0,0.0,0.0,0.0,0.0,0.0,0.0,0.0,0.0,0.0,0.0,0.0,0.0,0.0,0.0,0.0,0.0,0.0,0.0,0.0,0.0,0.0,0.0,0.0,0.0,0.0,0.0,0.0,0.0,0.0,0.0,0.0,0.0,0.0,0.0,0.0,0.0,0.0,0.0,0.0,0.0,0.0,0.0,0.0,0.0,0.0,0.0,0.0,0.0,0.0,0.0,0.0,0.0,0.0,0.0,0.0,0.0,0.0,0.0,0.0,0.0,0.0,0.0,0.0,0.0,0.0,0.0,0.0,0.0,0.0,0.0,0.0,0.0,0.0,0.0,0.0,0.0,0.0,0.0,0.0,0.0,0.0,0.0,0.0,0.0,0.0,0.0,0.0,0.0,0.0,0.0,0.0,0.0,0.0,0.0,0.0,0.0,0.0,0.0,0.0,0.0,0.0,0.0,0.0,0.0,0.3993,0.2995,0.1046,-0.0142,-0.0629,-0.1186,-0.1819,0.0,0.0,0.0,0.0,0.0,0.0,0.0,0.0,0.0,0.0,0.0,0.0,0.0,0.0,0.0,0.0,0.0,0.0,0.0,0.0,0.0,0.0,0.0,0.0,0.0,0.0,0.0,0.0,0.0,0.0,0.0,0.0,0.0,0.0,0.0,0.0,0.0,0.0,0.0,0.0,0.0,0.0,0.0,0.0,0.0,0.0,0.0,0.0,0.0,0.0,0.0,0.0,0.0,0.0,0.0,0.0,0.0,0.0,0.0,0.0,0.0,0.0,0.0,0.0,0.0,0.0,0.0,0.0,0.0,0.0,0.0,0.0,0.0,0.0,0.0,0.0,0.0,0.0,0.0,0.0,0.0,0.0,0.0,0.0,0.0,0.0,0.0,0.0,0.0,0.0,0.0,0.0,0.0,0.0,0.0,0.0,0.0,0.0,0.0,0.0,0.0,0.0,0.0,0.0,0.0,0.0,0.0,0.0,0.3666,0.2096,-0.0197,-0.2054,-0.3444,-0.3433,-0.3344,0.0,0.0,0.0,0.0,0.0,0.0,0.0,0.0,0.0,0.0,0.0,0.0,0.0,0.0,0.0,0.0,0.0,0.0,0.0,0.0,0.0,0.0,0.0,0.0,0.0,0.0,0.0,0.0,0.0,0.0,0.0,0.0,0.0,0.0,0.0,0.0,0.0,0.0,0.0,0.0,0.0,0.0,0.0,0.0,0.0,0.0,0.0,0.0,0.0,0.0,0.0,0.0,0.0,0.0,0.0,0.0,0.0,0.0,0.0,0.0,0.0,0.0,0.0,0.0,0.0,0.0,0.0,0.0,0.0,0.0,0.0,0.0,0.0,0.0,0.0,0.0,0.0,0.0,0.0,0.0,0.0,0.0,0.0,0.0,0.0,0.0,0.0,0.0,0.0,0.0,0.0,0.0,0.0,0.0,0.0,0.0,0.0,0.0,0.0,0.0,0.0,0.0,0.0,0.0,0.0,0.0,0.0,0.0,0.207,0.0,-0.2057,-0.3784,-0.5137,-0.4412,-0.4137,0.0,0.0,0.0,0.0,0.0,0.0,0.0,0.0,0.0,0.0,0.0,0.0,0.0,0.0,0.0,0.0,0.0,0.0,0.0,0.0,0.0,0.0,0.0,0.0,0.0,0.0,0.0,0.0,0.0,0.0,0.0,0.0,0.0,0.0,0.0,0.0,0.0,0.0,0.0,0.0,0.0,0.0,0.0,0.0,0.0,0.0,0.0,0.0,0.1638,0.0,0.0,0.0,0.0,0.0,0.0,0.0,0.0,0.0,0.0,0.0,0.0,0.0,0.0,0.0,0.0,0.0,0.0,0.0,0.0,0.0,0.0,0.0,0.0,0.0,0.0,0.0,0.0,0.0,0.0,0.0,0.0,0.0,0.0,0.0,0.0,0.0,0.0,0.0,0.0,0.0,0.0,0.0,0.0,0.0,0.0,0.0,0.0,0.0,0.0,0.0,0.0,0.0,0.0,0.0,0.0,0.0,0.0,0.0,0.064,-0.1301,-0.3367,-0.4922,-0.5865,-0.5429,-0.4976,0.0,0.0,0.0,0.0,0.0,0.0,0.0,0.0,0.0,0.0,0.0,0.0,0.0,0.0,0.0,0.0,0.0,0.0,0.0,0.0,0.0,0.0,0.0,0.0,0.0,0.0,0.0,0.0,0.0,0.0,0.0,0.0,0.0,0.0,0.0,0.0,0.0,0.0,0.0,0.0,0.0,0.0,0.0,0.0,0.0,0.0,0.0,0.0,0.0,0.0,0.0,0.0,0.0,0.0,0.0,0.0,0.0,0.0,0.0,0.0,0.0,0.0,0.0,0.0,0.0,0.0,0.0,0.0,0.0,0.0,0.0,0.0,0.0,0.0,0.0,0.0,0.0,0.0,0.0,0.0,0.0,0.0,0.0,0.0,0.0,0.0,0.0,0.0,0.0,0.0,0.0,0.0,0.0,0.0,0.0,0.0,0.0,0.0,0.0,0.0,0.0,0.0,0.0,0.0,0.0,0.0,0.0,0.1176,-0.0936,-0.2618,-0.4573,-0.5839,-0.6441,-0.6233,-0.5581,-0.4497,0.0,0.0,0.0,0.0,0.0,0.0,0.0,0.0,0.0,0.0,0.0,0.0,0.0,0.0,0.0,0.0,0.0,0.0,0.0,0.0,0.0,0.0,0.0,0.0,0.0,0.0,0.0,0.0,0.0,0.0,0.0,0.0,0.0,0.0,0.0,0.0,0.0,0.0,0.0918,0.1552,0.0,0.0,0.0,0.0,0.0,0.0,0.0,0.0,0.1652,0.0,0.0,0.0,0.0,0.0,0.0,0.0,0.0,0.0,0.0,0.0,0.0,0.0,0.0,0.0,0.0,0.0,0.0,0.0,0.0,0.0,0.0,0.0,0.0,0.0,0.0,0.0,0.0,0.0,0.0,0.0,0.0,0.0,0.0,0.0,0.0,0.0,0.0,0.0,0.0,0.0,0.0,0.0,0.0,0.0,0.0,0.0,0.0,0.0,0.0,0.0,0.0,0.0,0.0,0.0,0.0,0.2629,-0.0279,-0.2982,-0.5361,-0.6271,-0.7021,-0.756,-0.6324,-0.534,-0.4709,0.0,0.0,0.0,0.0,0.0,0.0,0.0,0.0,0.0,0.0,0.0,0.0,0.0,0.0,0.0,0.0,0.0,0.0,0.0,0.0,0.0,0.0,0.0,0.0,0.0,0.0,0.0,0.0,0.0,0.0,0.0,0.0,0.0,0.0,0.0,0.0,0.0,0.0,0.0,0.1576,0.2018,0.0,0.0,0.0,0.0,0.0,0.0,0.0,0.0,0.084,0.0,0.0,0.0,0.0,0.0,0.0,0.0,0.0,0.0,0.0,0.0,0.0,0.0,0.0,0.0,0.0,0.0,0.0,0.0,0.0,0.0,0.0,0.0,0.0,0.0,0.0,0.0,0.0,0.0,0.0,0.0,0.0,0.0,0.0,0.0,0.0,0.0,0.0,0.0,0.0,0.0,0.0,0.0,0.0,0.0,0.0,0.0,0.0,0.0,0.0,0.0,0.0,0.0,0.0,0.0,0.1011,-0.3377,-0.6252,-0.7209,-0.7832,-0.7981,-0.7591,-0.6195,-0.4979,0.0,0.0,0.0,0.0,0.0,0.0,0.0,0.0,0.0,0.0,0.0,0.0,0.0,0.0,0.0,0.0,0.0,0.0,0.0,0.0,0.0,0.0,0.0,0.0,0.0,0.0,0.0,0.0,0.0,0.0,0.0,0.0,0.0,0.0,0.0,0.0,0.0,0.0,0.0,0.0,0.2086,0.2572,0.3139,0.0,0.0,0.0,0.0,0.0,0.0,0.0694,0.0207,0.0,0.0,0.0,0.0,0.0,0.0,0.0,0.0,0.0,0.0,0.0,0.0,0.0,0.0,0.0,0.0,0.0,0.0,0.0,0.0,0.0,0.0,0.0,0.0,0.0,0.0,0.0,0.0,0.0,0.0,0.0,0.0,0.0,0.0,0.0,0.0,0.0,0.0,0.0,0.0,0.0,0.0,0.0,0.0,0.0,0.0,0.0,0.0,0.0,0.0,0.0,0.0,0.0,0.0,0.0,-0.1379,-0.6602,-0.9268,-0.9088,-0.9456,-0.9023,-0.7747,-0.6104,-0.466,0.0,0.0,0.0,0.0,0.0,0.0,0.0,0.0,0.0,0.0,0.0,0.0,0.0,0.0,0.0,0.0,0.0,0.0,0.0,0.0,0.0,0.0,0.0,0.0,0.0,0.0,0.0,0.0,0.0,0.0,0.0,0.0,0.0,0.0,0.0,0.0,0.0,0.0,0.0,0.0,0.0,0.3086,0.313,0.3051,0.0,0.0,0.0,0.0,0.0259,-0.0325,0.0,0.0,0.0,0.0,0.0,0.0,0.0,0.0,0.0,0.0,0.0,0.0,0.0,0.0,0.0,0.0,0.0,0.0,0.0,0.0,0.0,0.0,0.0,0.0,0.0,0.0,0.0,0.0,0.0,0.0,0.0,0.0,0.0,0.0,0.0,0.0,0.0,0.0,0.0,0.0,0.0,0.0,0.0,0.0,0.0,0.0,0.0,0.0,0.0,0.0,0.0,0.0,0.0,0.0,0.0,0.0,-0.595,-0.8796,-1.0745,-1.1667,-1.1369,-1.0402,-0.8838,-0.6343,-0.4443,0.0,0.0,0.0,0.0,0.0,0.0,0.0,0.0,0.0,0.0,0.0,0.0,0.0,0.0,0.0,0.0,0.0,0.0,0.0,0.0,0.0,0.0,0.0,0.0,0.0,0.0,0.0,0.0,0.0,0.0,0.0,0.0,0.0,0.0,0.0,0.0,0.0,0.0,0.0,0.0,0.0,0.2847,0.263,0.222,0.1658,0.0,0.0,-0.113,-0.1311,-0.1707,0.0,0.0,0.0,0.0,0.0,0.0,0.0,0.0,0.0,0.0,0.0,0.0,0.0,0.0,0.0,0.0,0.0,0.0,0.0,0.0,0.0,0.0,0.0,0.0,0.0,0.0,0.0,0.0,0.0,0.0,0.0,0.0,0.0,0.0,0.0,0.0,0.0,0.0,0.0,0.0,0.0,0.0,0.0,0.0,0.0,0.0,0.0,0.0,0.0,0.0,0.0,0.0,0.0,0.0,0.0,-0.3966,-0.6926,-1.0602,-1.2759,-1.3282,-1.2337,-1.0888,-0.904,-0.6328,-0.4036,0.0,0.0,0.0,0.0,0.0,0.0,0.0,0.0,0.0,0.0,0.0,0.0,0.0,0.0,0.0,0.0,0.0,0.0,0.0,0.0,0.0,0.0,0.0,0.0,0.0,0.0,0.0,0.0,0.0,0.0,0.0,0.0,0.0,0.0,0.0,0.0,0.0,0.0,0.0,0.0,0.0,0.0,0.2184,0.1357,0.0,0.0,0.0,-0.2908,-0.2503,0.0,0.0,0.0,0.0,0.0,0.0,0.0,0.0,0.0,0.0,0.0,0.0,0.0,0.0,0.0,0.0,0.0,0.0,0.0,0.0,0.0,0.0,0.0,0.0,0.0,0.0,0.0,0.0,0.0,0.0,0.0,0.0,0.0,0.0,0.0,0.0,0.0,0.0,0.0,0.0,0.0,0.0,0.0,0.0,0.0,0.0,0.0,0.0,0.0,0.0,0.0,0.0,0.0,0.0,0.0,0.0,0.0,-0.8184,-1.2097,-1.4286,-1.4616,-1.3375,-1.1627,-0.9398,-0.6737,0.0,0.0,0.0,0.0,0.0,0.0,0.0,0.0,0.0,0.0,0.0,0.0,0.0,0.0,0.0,0.0,0.0,0.0,0.0,0.0,0.0,0.0,0.0,0.0,0.0,0.0,0.0,0.2224,0.0,0.0,0.0,0.0,0.0,0.0,0.0,0.0,0.0,0.0,0.0,0.0,0.0,0.0,0.1878,0.1337,0.0258,-0.0839,0.0,0.0,-0.415,-0.3522,-0.3964,-0.4101,0.0,0.0,0.0,0.0,0.0,0.0,0.0,0.0,0.0,0.0,0.0,0.0,0.0,0.0,0.0,0.0,0.0,0.0,0.0,0.0,0.0,0.0,0.0,0.0,0.0,0.0,0.0,0.0,0.0,0.0,0.0,0.0,0.0,0.0,0.0,0.0,0.0,0.0,0.0,0.0,0.0,0.0,0.0,0.0,0.0,0.0,0.0,0.0,0.0,0.0,0.0,0.0,0.0,0.0,0.0,-1.1311,-1.3208,-1.4665,-1.5799,-1.4864,-1.3063,-1.0374,-0.7983,-0.4981,0.0,0.0,0.0,0.0,0.0,0.0,0.0,0.0,0.0,0.0,0.0,0.0,0.0,0.0,0.0,0.0,0.0,0.0,0.0,0.0,0.0,0.0,0.0,0.0,0.0,0.0,0.0,0.0,0.0,0.0,0.0,0.0,0.0,0.0,0.0,0.0,0.0,0.0,0.0,0.0,0.0,0.0697,-0.015,-0.1187,-0.2186,0.0,0.0,-0.4234,-0.4412,-0.4484,-0.4174,-0.3274,0.0,0.0,0.0,0.0,0.0,0.0,0.0,0.0,0.0,0.0,0.0,0.0,0.0,0.0,0.0,0.0,0.0,0.0,0.0,0.0,0.0,0.0,0.0,0.0,0.0,0.0,0.0,0.0,0.0,0.0,0.0,0.0,0.0,0.0,0.0,0.0,0.0,0.0,0.0,0.0,0.0,0.0,0.0,0.0,0.0,0.0,0.0,0.0,0.0,0.0,0.0,0.0,0.0,-0.6881,-1.1937,-1.2785,-1.4301,-1.6508,-1.4964,-1.3261,-1.1556,-0.8505,-0.5304,0.0,0.0,0.0,0.0,0.0,0.0,0.0,0.0,0.0,0.0,0.0,0.0,0.0,0.0,0.0,0.0,0.0,0.0,0.0,0.0,0.0,0.0,0.0,0.0,0.0,0.0,0.0,0.0,0.2489,0.2162,0.1703,0.0,0.0,0.0,0.0,0.0,0.0,0.0,0.0,0.0,0.0,-0.1514,-0.2106,-0.3321,0.0,0.0,-0.6132,-0.648,-0.5887,-0.6368,-0.6386,-0.5325,-0.5151,0.0,0.0,0.0,0.0,0.0,0.0,0.0,0.0,0.0,0.0,0.0,0.0,0.0,0.0,0.0,0.0,0.0,0.0,0.0,0.0,0.0,0.0,0.0,0.0,0.0,0.0,0.0,0.0,0.0,0.0,0.0,0.0,0.0,0.0,0.0,0.0,0.0,0.0,0.0,0.0,0.0,0.0,0.0,0.0,0.0,0.0,0.0,0.0,0.0,0.0,0.0,0.0,-0.7109,-1.1694,-1.2411,-1.4159,-1.6995,-1.5595,-1.4132,-1.2684,-0.9754,-0.6403,0.0,0.0,0.0,0.0,0.0,0.0,0.0,0.0,0.0,0.0,0.0,0.0,0.0,0.0,0.0,0.0,0.0,0.0,0.0,0.0,0.0,0.0,0.0,0.0,0.0,0.0,0.0,0.0,0.2395,0.1953,0.1355,0.0,0.0,0.0,0.0,0.0,0.0,0.0,0.0,0.0,0.0,-0.3351,-0.3866,-0.5058,-0.6036,-0.6673,-0.7312,-0.7511,-0.6863,-0.7377,-0.7544,-0.6587,0.0,0.0,0.0,0.0,0.0,0.0,0.0,0.0,0.0,0.0,0.0,0.0,0.0,0.0,0.0,0.0,0.0,0.0,0.0,0.0,0.0,0.0,0.0,0.0,0.0,0.0,0.0,0.4279,0.0,0.0,0.3528,0.0,0.0,0.0,0.0,0.0,0.0,0.0,0.0,0.0,0.0,0.0,0.0,0.0,0.0,0.0,0.0,0.0,0.0,0.0,0.0,0.0,0.0,-0.6536,-1.0673,-1.2272,-1.436,-1.6892,-1.7068,-1.6044,-1.3904,-1.1981,-0.8656,-0.3663,0.0,0.0,0.0,0.0,0.0,0.0,0.0,0.0,0.0,0.0,0.0,0.0,0.0,0.0,0.0,0.0,0.0,0.0,0.0,0.0,0.0,0.0,0.0,0.0,0.0,0.0,0.2409,0.2282,0.1945,0.0,0.0,0.0,0.0,0.0,0.0,0.0,0.0,0.0,0.0,-0.3128,-0.4632,-0.5371,-0.6131,-0.6778,-0.7105,-0.6905,-0.6788,-0.7166,-0.7203,-0.6991,0.0,0.0,0.0,0.0,0.0,0.0,0.0,0.0,0.0,0.0,0.0,0.0,0.0,0.0,0.0,0.0,0.0,0.0,0.0,0.0,0.0,0.0,0.0,0.0,0.0,0.0,0.0,0.5354,0.5302,0.0,0.0,0.0,0.0,0.0,0.0,0.0,0.0,0.0,0.0,0.0,1.0168,1.0579,0.0,0.0,0.0,0.0,0.0,0.0,0.0,0.0,0.0,0.0,0.0,0.0,-0.7649,-1.0235,-1.1714,-1.3746,-1.6378,-1.686,-1.6269,-1.4598,-1.2438,-0.8485,-0.2557,0.0,0.0,0.0,0.0,0.0,0.0,0.0,0.0,0.0,0.0,0.0,0.0,0.0,0.0,0.0,0.0,0.0,0.0,0.0,0.0,0.0,0.0,0.0,0.0,0.0,0.208,0.0,0.0,0.0,0.0,0.0,0.0,0.0,0.0,0.0,0.0,0.0,-0.1966,-0.275,-0.498,-0.6753,-0.7252,-0.8385,-0.9316,0.0,0.0,0.0,0.0,0.0,0.0,0.0,0.0,0.0,0.0,0.0,0.0,0.0,0.0,-0.8759,-0.6871,-0.6106,-0.5896,-0.6225,0.0,0.0,0.0,0.0,0.0,0.0,0.0,0.0,0.0,0.0,0.0,0.0,0.0,0.0,0.6584,0.0,0.6666,0.0,0.0,0.0,0.0,0.0,0.0,0.0,0.0,1.0807,1.1625,1.1827,1.1769,1.1173,0.0,0.7962,0.5935,0.0,0.0,0.0,0.0,0.0,0.0,0.0,0.0,-0.8199,-1.0256,-1.1422,-1.3153,-1.5473,-1.6582,-1.6501,-1.5138,-1.171,-0.742,-0.226,-0.029,0.1315,0.0,0.0,0.0,0.0,0.0,0.0,0.0,0.0,0.0,0.0,0.0,0.0,0.0,0.0,0.0,0.0,0.0,0.0,0.0,0.0,0.0,0.0,0.0,0.156,0.0,0.0,0.0,0.0,0.0,0.0,0.0,0.0,0.0,-0.1471,-0.2664,-0.3852,-0.4757,-0.7144,-0.8906,-0.9108,0.0,0.0,0.0,0.0,0.0,0.0,0.0,-1.1212,-1.0576,-1.039,-1.0321,-1.0408,-1.0822,-1.1142,-1.1142,0.0,0.0,-0.8951,-0.819,-0.7971,-0.8434,-0.7778,-0.7357,-0.7702,-0.7998,-0.8179,0.0,0.0,0.0,0.0,0.0,0.0,0.0,0.0,0.7861,0.8183,0.0,0.8439,0.0,0.0,0.0,0.0,0.8367,1.0559,0.0,0.0,1.3457,1.3744,1.2754,1.2492,1.1228,0.9048,0.7198,0.5105,0.2881,0.2621,0.0,0.0,0.0,0.0,0.0,0.0,-0.803,-1.0237,-1.1169,-1.2564,-1.4436,-1.6351,-1.6756,-1.5373,-0.997,-0.5726,-0.2943,-0.0479,0.1167,0.1909,0.2505,0.0,0.0,0.0,0.0,0.0,0.0,0.0,0.0,0.0,0.0,0.0,0.0,0.0,0.0,0.0,0.0,0.0,0.0,0.0,0.0,0.0852,0.0,0.0,0.0,0.0,0.0,0.0,0.0,0.0,0.0,0.0,-0.3785,-0.4678,-0.5891,-0.7401,0.0,0.0,0.0,0.0,-1.2444,-1.3176,-1.311,-1.3195,-1.3751,-1.3092,-1.2409,-1.2096,0.0,0.0,-1.1162,-1.1289,-1.149,-1.149,-1.1757,-1.1824,-1.1523,-1.0571,-1.0068,-1.0398,-0.9759,-0.9308,-0.9467,-0.9697,-0.9776,1.1586,0.0,0.0,0.0,0.0,0.9264,0.9662,1.0438,1.0418,1.0591,1.0945,1.0945,0.0,0.0,0.0,0.0,0.0,0.0,1.2911,1.3377,1.4062,1.3988,1.3246,1.2468,1.1,0.881,0.6027,0.3974,0.2671,0.1969,0.11,-0.0076,0.0,0.0,0.0,0.0,-0.5106,-0.4844,-0.7816,-1.1193,-1.4822,-1.625,-1.5772,-1.3285,-0.9142,-0.5892,-0.3651,-0.135,0.0265,0.0967,0.1316,0.0,0.0,0.0,0.0,0.0,0.0,0.0,0.0,0.0,0.0,0.0,0.0,0.0,0.0,0.0,0.0,0.0,0.0,0.0,0.0367,0.0176,0.0104,0.0,0.0,0.0,0.0,0.0,0.0,0.0,0.0,0.0,-0.7418,-0.7941,-0.8597,0.0,0.0,-1.253,-1.2545,-1.3651,-1.4576,-1.48,-1.523,0.0,-1.5051,-1.4611,-1.4165,-1.3743,-1.3163,-1.2888,-1.3259,-1.282,-1.2438,-1.2645,-1.2772,-1.2799,-1.2692,-1.2117,-1.1761,-1.199,-1.1309,-1.0778,-1.109,-1.1335,-1.1792,1.369,1.2701,1.1344,1.065,1.0516,1.0569,1.1007,1.1754,1.2167,1.2704,1.3349,1.3905,1.384,1.3357,1.3474,0.0,0.0,0.0,1.5232,1.5027,1.4905,1.4009,1.2477,1.0974,0.8963,0.6464,0.3818,0.219,0.1496,0.0947,0.0842,0.1022,0.0,0.0,0.2321,-0.0029,-0.1603,-0.2311,-0.412,-0.8135,-1.4371,-1.5571,-1.4569,-1.1341,-0.8248,-0.5527,-0.3211,-0.1487,-0.0342,0.012,0.0295,0.1163,0.0,0.0,0.0,0.0,0.0,0.0,0.0,0.0,0.0,0.0,0.0,-0.0321,0.0,0.0,0.0,0.0,0.081,0.1039,0.0094,-0.0335,0.0,0.0,0.0,0.0,0.0,0.0,0.0,-0.5449,-0.6325,-0.805,-1.0863,-1.1906,-1.2304,-1.2089,-1.378,-1.4849,-1.4233,0.0,-1.6417,-1.626,-1.6651,-1.6847,-1.6515,-1.6058,-1.5322,-1.4266,-1.3847,-1.3615,-1.3558,-1.3223,-1.3033,-1.3293,-1.3387,-1.342,-1.354,-1.3253,-1.3006,-1.3086,-1.2621,-1.232,-1.2835,-1.2952,-1.3496,1.5814,1.5227,1.2877,1.1653,1.1347,1.1765,1.1997,1.2169,1.3555,1.4703,1.5681,1.7038,1.7374,1.6937,1.7222,0.0,1.7096,1.82,1.7805,1.6338,1.5515,1.3506,1.0529,0.8278,0.5672,0.278,0.0969,0.0,-0.0242,-0.0248,0.0677,0.2469,0.2382,0.2345,0.2514,0.3499,0.2261,-0.1206,-0.0252,-0.4042,-1.2735,-1.4399,-1.3372,-0.9783,-0.7402,-0.4877,-0.2207,-0.1232,-0.0716,-0.0614,-0.0541,-0.0165,0.0548,0.0,0.0,0.0,0.0,0.0,0.0,0.0,0.0,0.0,0.0,0.0,0.0,0.0,0.0,0.0,-0.0328,0.0,-0.015,-0.0891,0.0,0.0,0.0,-0.58,-0.7135,-0.8364,-0.9241,-0.9474,0.0,0.0,-1.4049,-1.5984,-1.6369,-1.421,-1.6354,-1.7492,-1.5882,-1.7014,-1.7905,-1.7429,-1.7432,-1.7578,-1.7784,-1.7192,-1.6209,-1.4728,-1.4258,-1.4074,-1.3446,-1.3131,-1.334,-1.3627,-1.3599,-1.3748,-1.4035,-1.4015,-1.4008,-1.3741,-1.3632,-1.3791,-1.4263,-1.4496,-1.512,1.5757,1.5006,1.4374,1.4049,1.4037,1.453,1.4892,1.5311,1.659,1.7525,1.8253,1.9212,1.9586,1.9583,1.9549,1.9132,1.8402,1.8102,1.6632,1.4278,1.275,1.0236,0.6925,0.5052,0.2863,0.0391,-0.0987,-0.1341,-0.0895,-0.0899,0.0102,0.1958,0.278,0.5082,0.8595,0.5856,0.5472,0.7779,0.3876,-0.1285,-0.7679,-1.2719,-1.3407,-0.944,-0.7088,-0.4825,-0.2619,-0.1646,-0.1296,-0.1637,-0.1534,-0.1548,-0.1752,-0.1549,0.0,0.0,0.0,0.0,0.0,0.0,0.0,0.0,0.0,-0.1305,-0.1334,0.0,-0.3248,0.0,-0.1819,-0.1604,-0.2007,-0.28,0.0,0.0,-0.6464,-0.8177,-0.9446,-1.0438,-1.1112,-1.138,-1.1699,-1.2906,-1.5718,-1.7101,-1.7481,-1.6626,-1.7812,-1.8337,-1.7194,-1.7759,-1.8243,-1.7945,-1.7842,-1.7891,-1.7978,-1.7862,-1.7615,-1.7487,-1.6225,-1.5359,-1.5723,-1.4496,-1.3641,-1.3915,-1.3988,-1.4015,-1.4068,-1.4088,-1.4155,-1.4269,-1.4309,-1.4349,-1.4496,-1.5371,-1.666,1.6441,1.5942,1.5714,1.5754,1.5982,1.577,1.6162,1.7035,1.8435,1.9458,2.0237,2.1582,2.2263,2.238,2.1898,2.0859,1.9355,1.7668,1.5112,1.1892,0.9743,0.6939,0.3572,0.1962,0.0153,-0.1772,-0.2409,-0.2312,-0.158,-0.1263,-0.0423,0.0803,0.1372,0.2887,0.5137,0.5645,0.7864,1.1765,0.3414,-0.2497,-0.5733,-1.2048,-1.3403,-0.9303,-0.7038,-0.4677,-0.2152,-0.1836,-0.1866,-0.22,-0.2311,-0.2454,-0.2645,-0.2731,-0.2538,0.0,0.0,0.0,0.0,0.0,0.0,0.0,0.0,0.0,0.0,0.0,-0.403,-0.3454,-0.3759,-0.3833,-0.3506,-0.4338,-0.5376,-0.6579,-0.8402,-1.0135,-1.1721,-1.2606,-1.3223,-1.351,-1.3546,-1.4798,-1.7977,-1.8161,-1.8055,-1.8207,-1.8754,-1.8807,-1.7975,-1.8354,-1.8644,-1.8094,-1.8008,-1.8008,-1.8008,-1.8174,-1.822,-1.7948,-1.7313,-1.6851,-1.6785,-1.5572,-1.4613,-1.4775,-1.4412,-1.4088,-1.4088,-1.4202,-1.4342,-1.4489,-1.4736,-1.489,-1.491,-1.5988,-1.7435,1.7422,1.7271,1.6866,1.7034,1.741,1.6596,1.6929,1.8094,1.9703,2.0957,2.2055,2.384,2.4704,2.4796,2.3566,2.1749,1.9386,1.639,1.285,0.8971,0.6378,0.3542,0.054,-0.0817,-0.2146,-0.3342,-0.34,-0.2896,-0.2063,-0.1507,-0.1082,-0.0762,-0.1107,-0.1854,-0.2647,0.259,0.7035,1.0252,-0.0373,-0.5937,-0.6029,-1.2139,-1.3479,-0.9494,-0.711,-0.4517,-0.1635,-0.1812,-0.2152,-0.2464,-0.2789,-0.2858,-0.2654,-0.3375,-0.3416,0.0,-0.2499,0.0,0.0,0.0,0.0,0.0,0.0,0.0,0.0,-0.3063,-0.416,-0.4369,-0.5702,-0.608,-0.4919,-0.5763,-0.704,-0.8502,-1.0156,-1.1874,-1.3696,-1.4535,-1.5098,-1.5488,-1.5704,-1.7071,-1.9832,-1.9243,-1.8721,-1.9145,-1.9246,-1.8961,-1.8259,-1.8566,-1.8757,-1.8076,-1.8008,-1.8027,-1.8144,-1.8457,-1.8385,-1.7697,-1.7641,-1.7735,-1.6839,-1.5982,-1.5455,-1.5379,-1.4657,-1.4102,-1.4128,-1.4349,-1.4536,-1.4656,-1.505,-1.5344,-1.5535,-1.6555,-1.7856,1.8106,1.7353,1.768,1.8078,1.8574,1.898,1.933,1.9663,2.115,2.2761,2.4353,2.4896,2.5219,2.5051,2.2256,1.937,1.6402,1.2103,0.8068,0.4233,0.2037,0.0107,-0.1594,-0.2491,-0.3056,-0.3398,-0.3342,-0.2617,-0.1337,-0.1783,-0.2237,-0.2717,-0.4237,-0.5824,-0.7438,0.0,0.0,0.0,-0.7907,-1.0053,-0.9607,-1.3326,-1.3826,-1.0547,-0.7093,0.0,-0.2313,-0.1414,-0.1404,-0.2218,-0.221,0.0,0.0,0.0,0.0,0.0,0.0,0.0,0.0,0.0,0.0,0.0,-0.3742,-0.3018,-0.1892,-0.2953,-0.3894,-0.4413,-0.6755,-0.7942,-0.7081,-0.8069,-0.9178,-1.0234,-1.2076,-1.3593,-1.4514,-1.5332,-1.5908,-1.6094,-1.7349,-1.8635,-1.9684,-2.0322,-2.0322,-1.9497,-1.9299,-1.8921,-1.8144,-1.8202,-1.8202,-1.8018,-1.8027,-1.8144,-1.8467,-1.8806,-1.881,-1.8215,-1.7355,-1.6809,-1.6102,-1.5155,-1.4489,-1.4489,-1.425,-1.4168,-1.4382,-1.4482,-1.4676,-1.513,-1.5324,-1.5398,-1.549,-1.7393,-1.9133,1.891,1.8454,1.844,1.9009,0.0,2.0305,2.1005,2.1898,2.2593,2.3695,2.4877,2.4916,2.4822,2.4384,1.9362,1.5758,1.3053,0.6679,0.2142,-0.0626,-0.2442,-0.3468,-0.3868,-0.4216,-0.4226,-0.3959,-0.3511,-0.2952,-0.2286,-0.2934,-0.4047,-0.5691,-0.7672,-1.0148,-1.3129,-1.5104,-1.309,-0.6962,-0.951,-1.0863,-1.1001,-1.3781,-1.3751,-1.0523,-0.7261,0.0,0.0,0.0,0.0,0.0,0.0,0.0,0.0,0.0,0.0,-0.5712,-0.6172,-0.6357,-0.6466,-0.6528,-0.6686,-0.7114,-0.6588,-0.5353,-0.3248,-0.2981,-0.3605,-0.5366,-0.7753,-0.924,-0.9282,-0.9939,-1.0872,-1.2125,-1.3301,-1.4338,-1.5294,-1.5851,-1.6292,-1.6766,-1.8009,-1.9291,-2.0426,-2.1026,-2.1026,-2.0074,-1.9562,-1.8988,-1.8202,-1.8008,-1.8066,-1.8271,-1.8115,-1.8242,-1.8767,-1.8571,-1.8517,-1.8231,-1.756,-1.6951,-1.6561,-1.5628,-1.4901,-1.481,-1.4496,-1.4182,-1.4462,-1.4636,-1.4883,-1.5291,-1.5511,-1.5605,-1.5705,-1.7194,-1.8772,1.9783,1.9682,1.9465,2.0026,2.1135,2.1368,2.2388,2.3877,2.3838,0.0,0.0,2.4396,2.3989,2.2978,1.5802,1.1444,0.9076,0.0753,-0.3911,-0.5418,-0.6503,-0.661,-0.5855,-0.5756,-0.5269,-0.4457,-0.384,-0.3456,-0.3411,-0.413,-0.5849,-0.8407,-1.0759,-1.3872,-1.7664,-1.9929,-1.6849,-0.8898,-1.0261,-1.1572,-1.2303,-1.3346,-1.2484,-0.9597,-0.6852,-0.4024,-0.1202,-0.1401,-0.1899,-0.2418,-0.2984,-0.3113,-0.277,-0.2721,-0.4316,-0.7833,-0.8345,-0.8682,-0.9105,-0.9415,-0.9775,-1.0299,-0.9921,-0.828,-0.5142,-0.3692,-0.3868,-0.6067,-0.8217,-1.0038,-1.1241,-1.1514,-1.2222,-1.3717,-1.42,-1.4846,-1.5926,-1.6325,-1.6745,-1.7352,-1.8617,-1.9912,-2.126,-2.1667,-2.1404,-2.073,-2.0107,-1.9277,-1.8468,-1.8213,-1.8301,-1.8643,-1.8525,-1.8555,-1.9064,-1.8901,-1.8181,-1.8099,-1.7632,-1.7163,-1.669,-1.6034,-1.5455,-1.5213,-1.4685,-1.4374,-1.4549,-1.4843,-1.513,-1.5418,-1.5665,-1.5825,-1.592,-1.6662,-1.7677,2.0536,2.0175,2.1026,2.1423,2.16,2.2741,2.3779,2.4609,2.4389,2.4427,2.4572,2.3764,2.281,2.1336,1.2093,0.673,0.4062,-0.5067,-0.9427,-0.9536,-0.9315,-0.8482,-0.7292,-0.673,-0.5756,-0.4488,-0.432,-0.3889,-0.3516,-0.4627,-0.6638,-0.9369,-1.2303,-1.5356,-1.8143,-1.7906,-1.6398,-1.4104,-1.5057,-1.5652,-1.5709,-1.1166,-0.8334,-0.7281,-0.4569,-0.2916,-0.2473,-0.2031,-0.2468,-0.3985,-0.4489,-0.4744,-0.4841,-0.4656,-0.6053,-0.9321,-1.0533,-1.0993,-1.0895,-1.1132,-1.1902,-1.3098,-1.3699,-1.193,-0.7121,-0.6247,-0.5658,-0.5117,-0.7529,-1.0,-1.2284,-1.2905,-1.331,-1.4101,-1.4836,-1.5468,-1.6156,-1.7124,-1.7905,-1.8405,-2.0187,-2.1401,-2.1705,-2.2372,-2.2199,-2.1042,-2.0588,-2.0411,-1.9323,-1.8779,-1.875,-1.9082,-1.915,-1.9316,-1.9662,-2.009,-1.9334,-1.7662,-1.7365,-1.6609,-1.5068,-1.4657,-1.4503,-1.4334,-1.4446,-1.4543,-1.4843,-1.5137,-1.5398,-1.5665,-1.5798,-1.5825,-1.5825,-1.6015,-1.6574,2.1289,2.1297,2.1887,2.2496,2.3151,2.4142,2.471,2.4896,2.4366,2.3974,2.3634,2.2641,2.1278,1.8827,0.8203,0.2589,0.096,-0.9353,-1.3374,-1.2158,-1.1594,-1.0404,-0.8847,-0.8443,-0.7547,-0.6201,-0.6152,-0.5751,-0.5258,-0.6494,-0.8351,-1.0694,-1.3993,-1.5761,-1.5798,-1.4274,-1.26,-1.0977,-1.1277,-1.1623,-1.1846,-0.6446,-0.3739,-0.4027,-0.2335,-0.1778,-0.2395,-0.2928,-0.3864,-0.538,-0.66,-0.7433,-0.7873,-0.7309,-0.8374,-1.1435,-1.207,-1.2423,-1.2775,-1.4234,-1.5505,-1.6402,-1.6466,-1.5484,-1.2955,-1.0352,-0.8926,-0.904,-1.0332,-1.2254,-1.5117,-1.4802,-1.4764,-1.5955,-1.667,-1.726,-1.7726,-1.8498,-1.9211,-1.9723,-2.0963,-2.1803,-2.1667,-2.2506,-2.2751,-2.1636,-2.0937,-2.0042,-1.9698,-1.9463,-1.9394,-1.957,-1.9453,-1.96,-2.0127,-2.042,-1.9668,-1.7658,-1.6846,-1.5876,-1.4412,-1.4088,-1.4155,-1.4289,-1.4449,-1.4696,-1.509,-1.5297,-1.5511,-1.5745,-1.5825,-1.5825,-1.5825,-1.5825,-1.6292,2.2119,2.238,2.2702,2.3497,2.4582,2.5137,2.5251,2.496,2.4288,2.3578,2.2794,2.1707,2.0095,1.6984,0.5021,-0.0782,-0.2547,-1.2666,-1.643,-1.4238,-1.324,-1.1859,-1.0292,-1.0046,-0.9224,-0.7976,-0.7876,-0.7509,-0.7062,-0.8096,-0.9745,-1.1755,-1.4215,-1.4317,-1.222,-0.9743,-0.7353,-0.5048,-0.365,-0.3988,-0.5912,-0.1216,0.0677,-0.0651,-0.0405,-0.082,-0.2329,-0.3855,-0.538,-0.6872,-0.8671,-1.0092,-1.0968,-1.0242,-1.0954,-1.327,-1.3211,-1.3408,-1.4598,-1.666,-1.8254,-1.8956,-1.8616,-1.8261,-1.7785,-1.4642,-1.2753,-1.3563,-1.3482,-1.456,-1.683,-1.6892,-1.6757,-1.7734,-1.8205,-1.8619,-1.919,-1.9799,-2.0403,-2.0871,-2.1616,-2.2063,-2.2002,-2.2481,-2.2618,-2.1924,-2.0542,-1.9664,-1.9961,-2.0059,-2.0059,-2.0,-1.9785,-1.9844,-2.0459,-2.0235,-1.9274,-1.7496,-1.6429,-1.5379,-1.4419,-1.4128,-1.4255,-1.4476,-1.4649,-1.4897,-1.5304,-1.5471,-1.5591,-1.5792,-1.5825,-1.5825,-1.5825,-1.5825,-1.6015,2.3063,2.32,2.3801,2.4576,2.5235,2.5308,2.5135,2.4805,2.4422,2.3626,2.2607,2.1497,1.9783,1.5991,0.3429,-0.2753,-0.3882,-1.4781,-1.847,-1.5892,-1.3793,-1.2385,-1.1548,-1.1007,-0.9974,-0.8776,-0.8626,-0.8302,-0.7583,-0.8249,-0.989,-1.1948,-1.1368,-0.9727,-0.7517,-0.4237,-0.0927,0.2238,0.7226,0.6511,0.0385,0.3633,0.4477,0.1948,0.1254,-0.0309,-0.2907,-0.4914,-0.6789,-0.8599,-1.0445,-1.2232,-1.3743,-1.3369,-1.3586,-1.4878,-1.3721,-1.381,-1.5893,-1.7183,-1.8323,-1.9485,-1.9834,-1.9834,-1.9457,-1.8207,-1.7027,-1.6288,-1.5551,-1.6057,-1.7446,-1.8543,-1.8881,-1.8543,-1.8601,-1.887,-1.9803,-2.0552,-2.1234,-2.1756,-2.2433,-2.2957,-2.28,-2.2567,-2.2191,-2.15,-2.0571,-1.999,-2.0342,-2.0439,-2.0449,-2.0469,-2.0439,-2.043,-2.0401,-1.9441,-1.839,-1.7342,-1.6437,-1.5318,-1.4558,-1.4309,-1.4516,-1.4683,-1.4957,-1.5271,-1.5418,-1.5585,-1.5772,-1.5798,-1.5825,-1.5825,-1.5825,-1.5825,-1.592,2.3328,2.353,2.4081,2.4733,2.5398,2.5359,2.5122,2.4828,2.4241,2.3624,2.2849,2.1589,1.9725,1.6697,0.3078,-0.2906,-0.3425,-1.4822,-1.8607,-1.5838,-1.4125,-1.3054,-1.2452,-1.2206,-1.1316,-1.0026,-0.9931,-0.9148,-0.7859,-0.7492,-0.7717,-0.8076,-0.6812,-0.4636,-0.167,0.1841,0.5114,0.8136,1.1949,1.1897,0.8511,0.9215,0.8336,0.4923,0.2748,-0.0106,-0.3606,-0.5887,-0.7923,-0.9946,-1.1846,-1.3393,-1.4561,-1.501,-1.5289,-1.5431,-1.488,-1.5016,-1.6286,-1.7611,-1.8734,-1.9615,-2.0024,-2.0246,-2.0182,-1.9471,-1.8621,-1.7733,-1.7808,-1.8274,-1.8821,-1.9475,-1.975,-1.9837,-2.0077,-2.0526,-2.1223,-2.1861,-2.2407,-2.2604,-2.2884,-2.2948,-2.2595,-2.1876,-2.1384,-2.1135,-2.0682,-2.0448,-2.0547,-2.0576,-2.0576,-2.0576,-2.0576,-2.0323,-1.9756,-1.9036,-1.7908,-1.6683,-1.6026,-1.5325,-1.4651,-1.4409,-1.4609,-1.4943,-1.5237,-1.5484,-1.5638,-1.5705,-1.5825,-1.5825,-1.5825,-1.5825,-1.5825,-1.5825,-1.5825,2.3797,2.404,2.4346,2.4891,2.5466,2.5359,2.5146,2.4865,2.4292,2.3757,2.3122,2.2062,2.0623,1.7064,0.3783,-0.2254,-0.3116,-1.4213,-1.8263,-1.556,-1.4343,-1.3362,-1.2657,-1.2608,-1.1783,-1.045,-1.0136,-0.912,-0.7211,-0.6067,-0.5333,-0.4573,-0.2439,0.0254,0.3246,0.6676,0.9755,1.2271,1.4586,1.4767,1.3131,1.2397,1.012,0.6344,0.3346,-0.0054,-0.3932,-0.6338,-0.839,-1.0128,-1.2299,-1.3669,-1.4168,-1.5644,-1.6293,-1.5908,-1.5676,-1.5915,-1.6591,-1.7732,-1.8702,-1.9513,-1.9969,-2.0243,-2.0437,-2.0348,-1.9749,-1.8858,-1.9344,-1.9747,-1.9811,-2.0075,-2.0451,-2.092,-2.138,-2.1933,-2.2426,-2.2733,-2.2798,-2.3017,-2.2763,-2.2474,-2.2037,-2.124,-2.0755,-2.0933,-2.0811,-2.0576,-2.0576,-2.0576,-2.0576,-2.0576,-2.0576,-2.0167,-1.9195,-1.847,-1.7415,-1.6312,-1.5597,-1.512,-1.4696,-1.4596,-1.479,-1.5204,-1.5391,-1.5551,-1.5712,-1.5798,-1.5825,-1.5825,-1.5825,-1.5825,-1.5825,-1.5825,-1.5825,2.4733,2.4757,2.4884,2.5156,2.5485,2.5359,2.5171,2.4908,2.476,2.4155,2.3305,2.3074,2.2739,2.0926,0.5607,-0.1083,-0.2028,-1.3102,-1.7548,-1.5445,-1.4239,-1.3092,-1.1922,-1.1814,-1.078,-0.9096,-0.8881,-0.7753,-0.5658,-0.42,-0.3416,-0.3094,0.1268,0.4477,0.6407,0.9529,1.2338,1.4358,1.5207,1.4992,1.3609,1.17,0.901,0.5584,0.2632,-0.0327,-0.3301,-0.6128,-0.8029,-0.8835,-1.1504,-1.2918,-1.3158,-1.5163,-1.638,-1.638,-1.5908,-1.6089,-1.6985,-1.7342,-1.8076,-1.9391,-1.9756,-2.004,-2.0677,-2.1156,-2.098,-1.991,-1.9824,-1.9798,-2.0012,-2.0486,-2.1045,-2.1275,-2.1863,-2.233,-2.288,-2.2323,-2.2372,-2.2702,-2.2235,-2.1732,-2.1495,-2.0913,-2.0653,-2.0653,-2.0624,-2.0566,-2.0576,-2.0576,-2.0576,-2.0566,-2.0489,-2.0167,-1.9125,-1.8238,-1.709,-1.5876,-1.5071,-1.469,-1.4798,-1.4917,-1.519,-1.5438,-1.5611,-1.5732,-1.5798,-1.5825,-1.5825,-1.5825,-1.5825,-1.5825,-1.5825,-1.5825,-1.5825,2.491,2.4993,2.4981,2.5195,2.5475,2.5359,2.523,2.5057,2.4662,2.419,2.3702,2.3229,2.2535,2.1017,0.7985,0.1998,0.0649,-1.1294,-1.6269,-1.4891,-1.329,-1.2258,-1.1756,-1.0931,-0.99,-0.8776,-0.8199,-0.6897,-0.4743,-0.2881,-0.1159,0.0652,0.428,0.7394,0.9725,1.2215,1.4336,1.5676,1.5732,1.5015,1.3573,1.1252,0.8255,0.4801,0.1923,-0.0988,-0.3905,-0.6733,-0.8761,-0.9974,-1.2153,-1.3385,-1.3558,-1.463,-1.57,-1.638,-1.6244,-1.6434,-1.719,-1.7906,-1.8507,-1.9109,-1.9946,-2.049,-2.0867,-2.1391,-2.1791,-2.1859,-2.0585,-2.0141,-2.0548,-2.0322,-2.0006,-2.038,-2.1021,-2.1488,-2.1587,-2.1678,-2.1939,-2.1987,-2.1905,-2.1733,-2.1062,-2.0738,-2.0634,-2.0576,-2.0576,-2.0576,-2.0576,-2.0576,-2.0576,-2.0489,-2.0001,-1.9195,-1.8069,-1.7666,-1.6902,-1.5551,-1.4663,-1.4851,-1.4983,-1.5157,-1.5411,-1.5591,-1.5785,-1.5805,-1.5825,-1.5825,-1.5825,-1.5825,-1.5825,-1.5825,-1.5825,-1.5825,-1.5825,2.5135,2.5199,2.5184,2.5288,2.5475,2.5407,2.53,2.5149,2.4752,2.4401,2.4045,2.3485,2.2562,1.9663,0.9738,0.4005,0.1582,-0.9878,-1.5031,-1.4021,-1.2725,-1.1639,-1.073,-0.9798,-0.8756,-0.7659,-0.6635,-0.5283,-0.3594,-0.1214,0.0935,0.2954,0.6806,0.971,1.1743,1.4014,1.5611,1.5832,1.5475,1.4575,1.2929,1.0302,0.7326,0.4017,0.0713,-0.2135,-0.4656,-0.7576,-0.9627,-1.0839,-1.2647,-1.3658,-1.3589,-1.3852,-1.463,-1.5732,-1.6244,-1.6844,-1.7746,-1.8622,-1.9177,-1.9391,-2.0258,-2.0948,-2.1049,-2.1446,-2.2316,-2.2745,-2.1326,-2.0263,-2.0952,-2.0288,-1.9649,-2.0098,-2.0592,-2.0823,-2.0662,-2.0846,-2.0782,-2.0486,-2.1108,-2.1225,-2.0751,-2.0672,-2.0576,-2.0576,-2.0576,-2.0576,-2.0576,-2.0576,-2.0576,-2.0566,-2.0079,-1.9036,-1.7989,-1.7342,-1.6526,-1.5241,-1.4811,-1.5026,-1.5224,-1.5404,-1.5565,-1.5752,-1.5825,-1.5825,-1.5825,-1.5825,-1.5825,-1.5825,-1.5825,-1.5825,-1.5825,-1.5825,-1.5825,2.5447,2.5409,2.5486,2.5476,2.5505,2.5504,2.5388,2.5228,2.512,2.4771,2.4354,2.4076,2.2915,1.9507,1.0664,0.4852,0.0658,-0.9075,-1.369,-1.2946,-1.257,-1.1106,-0.9037,-0.8613,-0.7452,-0.5697,-0.4155,-0.3056,-0.2169,0.0493,0.2674,0.4877,0.8903,1.1256,1.1816,1.462,1.5744,1.5096,1.4722,1.36,1.1576,0.8853,0.5866,0.2815,-0.1141,-0.4117,-0.5672,-0.8816,-1.0713,-1.1103,-1.2722,-1.3381,-1.2919,-1.2851,-1.3396,-1.4778,-1.5772,-1.7124,-1.8565,-1.9266,-1.9814,-2.0343,-2.0976,-2.1296,-2.1241,-2.1506,-2.2115,-2.2534,-2.1295,-2.0263,-2.1145,-2.0838,-2.0488,-2.086,-2.0631,-2.0459,-2.0257,-1.977,-1.8977,-1.866,-1.9733,-2.0544,-2.0599,-2.0576,-2.0576,-2.0576,-2.0576,-2.0576,-2.0576,-2.0576,-2.0576,-2.0566,-1.9932,-1.8816,-1.7917,-1.7123,-1.6042,-1.5088,-1.5014,-1.5037,-1.5371,-1.5591,-1.5671,-1.5825,-1.5825,-1.5825,-1.5825,-1.5825,-1.5825,-1.5825,-1.5825,-1.5825,-1.5825,-1.5825,-1.5825,2.5528,2.5531,2.5503,2.5524,2.5562,2.5525,2.5497,2.5437,2.5267,2.5043,2.4799,2.4444,2.2555,1.8383,1.13,0.5717,0.1502,-0.6574,-1.1303,-1.226,-1.0898,-0.9585,-0.8561,-0.7186,-0.5914,-0.4835,-0.3776,-0.2664,-0.1217,0.1039,0.3374,0.6062,0.9286,1.1652,1.303,1.4494,1.5197,1.5219,1.3986,1.233,1.0108,0.6963,0.3445,-0.0373,-0.4128,-0.7201,-0.9625,-1.149,-1.2715,-1.3258,-1.4337,-1.3875,-1.2083,-1.1864,-1.2918,-1.4538,-1.5712,-1.7072,-1.8612,-1.9606,-2.05,-2.1342,-2.1827,-2.1949,-2.1874,-2.1787,-2.1524,-2.122,-2.0228,-2.025,-2.1089,-2.0932,-2.0467,-1.992,-1.9792,-1.9497,-1.9085,-1.9008,-1.8705,-1.839,-1.9558,-2.05,-2.0623,-2.0576,-2.0576,-2.0576,-2.0576,-2.0576,-2.0566,-2.0566,-2.0576,-2.0566,-1.9539,-1.8512,-1.7631,-1.6797,-1.5849,-1.5184,-1.5143,-1.519,-1.5511,-1.5698,-1.5785,-1.5825,-1.5825,-1.5825,-1.5825,-1.5825,-1.5825,-1.5825,-1.5825,-1.5825,-1.5825,-1.5825,-1.5825,2.5547,2.5566,2.5565,2.5584,2.56,2.5581,2.559,2.5585,2.5433,2.5309,2.5059,2.4213,2.1547,1.694,1.0861,0.5232,0.0151,-0.5788,-0.9563,-1.1173,-0.9746,-0.8469,-0.7788,-0.6023,-0.4725,-0.4009,-0.3277,-0.2106,-0.061,0.1807,0.4348,0.6918,0.9923,1.2048,1.3443,1.4446,1.4949,1.4114,1.2743,1.0565,0.756,0.4389,0.079,-0.3116,-0.653,-0.937,-1.1868,-1.317,-1.4169,-1.4722,-1.4902,-1.3502,-1.1149,-1.1458,-1.2686,-1.4424,-1.5787,-1.7101,-1.8846,-1.9997,-2.1082,-2.2067,-2.2477,-2.2477,-2.2385,-2.225,-2.1727,-2.0152,-1.9838,-2.0426,-2.1629,-2.1169,-2.0375,-1.989,-1.9166,-1.8664,-1.8144,-1.8467,-1.873,-1.8769,-1.9634,-2.0254,-2.0518,-2.0576,-2.0576,-2.0576,-2.0576,-2.0323,-2.0245,-2.0323,-2.0167,-1.9901,-1.9146,-1.8141,-1.7235,-1.6354,-1.5567,-1.53,-1.5302,-1.5418,-1.5671,-1.5752,-1.5825,-1.5825,-1.5825,-1.5825,-1.5825,-1.5825,-1.5825,-1.5825,-1.5825,-1.5825,-1.5825,-1.5825,-1.5825,2.5547,2.5508,2.5625,2.5648,2.5615,2.5654,2.5664,2.5605,2.5605,2.5488,2.5063,2.3569,2.0191,1.5239,0.951,0.3691,-0.2037,-0.5924,-0.8408,-0.9273,-0.8738,-0.7794,-0.6416,-0.5058,-0.4064,-0.3395,-0.2439,-0.1274,0.0167,0.2959,0.5539,0.7697,1.0723,1.2725,1.3294,1.4687,1.4218,1.2299,1.1047,0.84,0.4406,0.132,-0.1954,-0.5645,-0.847,-1.087,-1.2693,-1.3832,-1.4722,-1.5241,-1.4426,-1.305,-1.1449,-1.1516,-1.2638,-1.4503,-1.5688,-1.7223,-1.8994,-2.0345,-2.1536,-2.267,-2.3054,-2.2954,-2.2869,-2.2961,-2.2289,-2.0367,-1.9914,-2.069,-2.2142,-2.183,-2.091,-2.0333,-1.9044,-1.8154,-1.8086,-1.8457,-1.8818,-1.9199,-1.9658,-2.0107,-2.0527,-2.0566,-2.0566,-2.0411,-2.0323,-1.9923,-1.9274,-1.9195,-1.9116,-1.8736,-1.8237,-1.767,-1.6745,-1.6279,-1.5555,-1.5521,-1.5471,-1.5591,-1.5738,-1.5792,-1.5825,-1.5825,-1.5825,-1.5825,-1.5825,-1.5825,-1.5825,-1.5825,-1.5825,-1.5825,-1.5825,-1.5825,-1.5825,2.5251,2.5304,2.5523,2.5621,2.5622,2.5683,2.5703,2.5664,2.5664,2.5489,2.4801,2.2885,1.8933,1.3815,0.8316,0.2866,-0.2167,-0.6051,-0.7777,-0.809,-0.7492,-0.6357,-0.5113,-0.4119,-0.3511,-0.3005,-0.1499,-0.0111,0.0998,0.3773,0.6245,0.8378,1.0781,1.2541,1.3521,1.4039,1.3402,1.1621,0.9336,0.6202,0.2111,-0.1462,-0.514,-0.8985,-1.1357,-1.2932,-1.3964,-1.3964,-1.4231,-1.4767,-1.4189,-1.3398,-1.2335,-1.194,-1.2638,-1.4389,-1.5384,-1.6687,-1.8717,-2.038,-2.1883,-2.3391,-2.393,-2.4329,-2.4421,-2.3342,-2.2363,-2.1148,-2.0459,-2.0715,-2.2455,-2.2616,-2.1592,-1.9879,-1.8694,-1.8144,-1.8437,-1.8838,-1.918,-1.9336,-1.9932,-2.0284,-2.0353,-2.0333,-2.0167,-1.9599,-1.9353,-1.9027,-1.8221,-1.8138,-1.8164,-1.7629,-1.7201,-1.6846,-1.6453,-1.5977,-1.5725,-1.5718,-1.5718,-1.5718,-1.5798,-1.5812,-1.5825,-1.5825,-1.5825,-1.5825,-1.5825,-1.5825,-1.5825,-1.5825,-1.5825,-1.5825,-1.5825,-1.5825,-1.5825,2.4945,2.5182,2.5391,2.552,2.5605,2.5664,2.5703,2.5703,2.5662,2.5158,2.3873,2.0995,1.6698,1.1459,0.5983,0.0959,-0.357,-0.6416,-0.783,-0.7996,-0.7128,-0.571,-0.434,-0.3511,-0.2894,-0.1835,-0.0612,0.0667,0.2266,0.4685,0.6865,0.8799,1.1022,1.2415,1.2831,1.3215,1.2155,0.9884,0.7155,0.3673,-0.0568,-0.4209,-0.7735,-1.0946,-1.2827,-1.3474,-1.3453,-1.308,-1.325,-1.3907,-1.3678,-1.3182,-1.2949,-1.2783,-1.3273,-1.4698,-1.5395,-1.6831,-1.8878,-2.0515,-2.2176,-2.3849,-2.4641,-2.4886,-2.4844,-2.3776,-2.268,-2.171,-2.057,-2.1091,-2.2384,-2.2494,-2.1319,-1.9895,-1.8801,-1.8369,-1.8623,-1.917,-1.9394,-1.9477,-1.9602,-1.9687,-1.9353,-1.9195,-1.8948,-1.847,-1.831,-1.7649,-1.6927,-1.7122,-1.7087,-1.6499,-1.6583,-1.6535,-1.6238,-1.5796,-1.5769,-1.5752,-1.5812,-1.5825,-1.5825,-1.5825,-1.5825,-1.5825,-1.5825,-1.573,-1.5629,-1.5635,-1.5825,-1.5825,-1.5825,-1.573,-1.573,-1.5825,-1.5825,2.4515,2.4911,2.5119,2.5344,2.5521,2.5644,2.5684,2.5684,2.5628,2.4766,2.2687,1.8668,1.4113,0.8798,0.3327,-0.1736,-0.5707,-0.7208,-0.7877,-0.783,-0.6902,-0.5316,-0.3398,-0.3005,-0.1946,-0.0445,0.0111,0.1555,0.3424,0.5579,0.7315,0.905,1.1338,1.2181,1.2092,1.222,1.0523,0.7419,0.4669,0.0932,-0.3234,-0.6719,-0.9719,-1.2416,-1.2926,-1.2861,-1.2288,-1.1818,-1.2104,-1.3521,-1.3014,-1.2851,-1.3007,-1.3695,-1.4647,-1.5257,-1.6191,-1.745,-1.9473,-2.0926,-2.2422,-2.4235,-2.4855,-2.4991,-2.5022,-2.4179,-2.3201,-2.2225,-2.0657,-2.1012,-2.2374,-2.1678,-2.0738,-2.0005,-1.9292,-1.8711,-1.8825,-1.9453,-1.9775,-1.9448,-1.9285,-1.847,-1.7415,-1.7172,-1.7261,-1.7245,-1.7107,-1.6664,-1.6171,-1.6148,-1.5882,-1.5259,-1.5676,-1.6357,-1.5991,-1.5691,-1.5691,-1.5825,-1.5818,-1.5825,-1.5825,-1.5825,-1.5825,-1.5825,-1.5825,-1.5534,-1.5242,-1.5337,-1.5439,-1.5146,-1.4663,-1.5051,-1.5534,-1.573,-1.5825,2.3399,2.375,2.4524,2.4965,2.5216,2.5508,2.5625,2.5625,2.5608,2.4629,2.2167,1.7612,1.2396,0.717,0.1329,-0.372,-0.6753,-0.7877,-0.8103,-0.6907,-0.6225,-0.4477,-0.2668,-0.1946,-0.1,0.0278,0.189,0.3166,0.4525,0.6289,0.8084,0.9453,1.046,1.1408,1.1598,1.0471,0.8582,0.5257,0.2634,-0.1252,-0.5573,-0.83,-1.0946,-1.3679,-1.369,-1.3158,-1.2385,-1.1048,-1.0897,-1.1953,-1.2608,-1.2812,-1.321,-1.4846,-1.63,-1.7082,-1.7197,-1.7996,-1.9768,-2.1689,-2.3311,-2.4277,-2.5351,-2.5992,-2.5179,-2.4587,-2.391,-2.2922,-2.1237,-2.1113,-2.2546,-2.1604,-2.0859,-2.0606,-1.9827,-1.9258,-1.958,-1.9805,-2.0,-1.9918,-1.9362,-1.79,-1.5394,-1.6445,-1.6527,-1.6191,-1.5846,-1.5595,-1.5495,-1.5326,-1.5196,-1.4863,-1.5325,-1.6033,-1.5917,-1.5678,-1.5758,-1.5825,-1.5825,-1.5825,-1.5825,-1.5825,-1.5825,-1.5825,-1.5825,-1.5439,-1.4949,-1.4459,-1.4459,-1.398,-1.3692,-1.4172,-1.4657,-1.5146,-1.5832,2.2733,2.3189,2.4046,2.4617,2.4946,2.5263,2.5476,2.5565,2.5537,2.4224,2.125,1.6317,1.1131,0.6121,0.0153,-0.4291,-0.6318,-0.7396,-0.695,-0.5747,-0.5078,-0.3762,-0.1779,-0.0556,0.0333,0.1224,0.2885,0.4158,0.5303,0.6961,0.8449,0.9231,0.9959,1.0222,1.003,0.8617,0.5991,0.2819,-0.0053,-0.3527,-0.6995,-0.9619,-1.1423,-1.3379,-1.3453,-1.2908,-1.1787,-1.0602,-1.0407,-1.1096,-1.2073,-1.2776,-1.3448,-1.5649,-1.7726,-1.874,-1.8552,-1.9092,-2.0827,-2.2137,-2.3468,-2.4591,-2.555,-2.5554,-2.5259,-2.4792,-2.391,-2.2966,-2.2141,-2.2126,-2.2892,-2.1604,-2.1023,-2.1116,-2.0163,-1.9615,-2.0049,-2.0225,-1.9966,-1.9621,-1.8612,-1.6854,-1.5801,-1.5801,-1.5575,-1.5082,-1.5219,-1.497,-1.5137,-1.5062,-1.5252,-1.5204,-1.5438,-1.5712,-1.5745,-1.5718,-1.5792,-1.5825,-1.5825,-1.5825,-1.5825,-1.5825,-1.5825,-1.5825,-1.573,-1.514,-1.4555,-1.407,-1.3392,-1.2915,-1.2818,-1.3199,-1.368,-1.4268,-1.5045,2.2109,2.2632,2.3551,2.4176,2.4614,2.4965,2.5266,2.5494,2.5453,2.3765,2.0306,1.512,1.0322,0.5298,-0.0318,-0.3796,-0.519,-0.5801,-0.5517,-0.4474,-0.4088,-0.2771,-0.1001,0.0445,0.1556,0.245,0.3883,0.4929,0.6018,0.7564,0.8731,0.8933,0.9231,0.9275,0.826,0.6221,0.3711,0.0591,-0.2239,-0.5197,-0.7704,-1.0272,-1.1904,-1.3025,-1.3178,-1.2696,-1.1704,-1.0808,-1.0422,-1.0732,-1.1589,-1.2324,-1.3781,-1.6024,-1.8686,-1.9836,-1.9403,-2.0003,-2.1306,-2.2458,-2.3477,-2.4996,-2.5221,-2.513,-2.4997,-2.4782,-2.4,-2.3129,-2.2609,-2.2888,-2.2718,-2.1479,-2.1072,-2.113,-2.0175,-1.9836,-2.0322,-2.0566,-1.9982,-1.878,-1.7989,-1.6609,-1.5151,-1.458,-1.4277,-1.4182,-1.4396,-1.4609,-1.4776,-1.4957,-1.5224,-1.5431,-1.5631,-1.5705,-1.5738,-1.5745,-1.5818,-1.5825,-1.5825,-1.5825,-1.5825,-1.5825,-1.5825,-1.5825,-1.5629,-1.4848,-1.407,-1.3301,-1.2624,-1.195,-1.1653,-1.1843,-1.2517,-1.3386,-1.4094,2.0735,2.1177,2.2579,2.3542,2.4145,2.4593,2.4995,2.5265,2.5371,2.3455,1.9887,1.4959,0.9981,0.5022,0.0053,-0.3073,-0.412,-0.4395,-0.413,-0.3314,-0.2821,-0.1609,-0.0167,0.1169,0.2339,0.3337,0.4604,0.5647,0.6514,0.7894,0.8803,0.9325,0.8992,0.8449,0.7072,0.4996,0.184,-0.1079,-0.3562,-0.6139,-0.8943,-1.0722,-1.2187,-1.3498,-1.3668,-1.3379,-1.283,-1.1948,-1.1654,-1.2344,-1.1191,-1.1857,-1.35,-1.5946,-1.8037,-1.9468,-1.9826,-2.0328,-2.1615,-2.2717,-2.3595,-2.4424,-2.4839,-2.4833,-2.4671,-2.4709,-2.4104,-2.349,-2.2905,-2.2682,-2.1123,-2.0828,-2.0754,-2.0578,-2.0154,-1.9668,-2.0332,-2.0411,-1.9844,-1.8479,-1.7585,-1.6535,-1.5075,-1.4148,-1.4242,-1.4369,-1.4596,-1.4863,-1.511,-1.5257,-1.5438,-1.5618,-1.5778,-1.5805,-1.5812,-1.5805,-1.5825,-1.5825,-1.5825,-1.5825,-1.5825,-1.5825,-1.5825,-1.5825,-1.5343,-1.4561,-1.3692,-1.2721,-1.1263,-1.0092,-1.019,-1.0386,-1.1161,-1.195,-1.2443,2.0122,2.0607,2.2129,2.3145,2.3819,2.4473,2.4927,2.5185,2.5226,2.3422,1.9647,1.529,1.0695,0.6034,0.156,-0.1099,-0.1922,-0.2139,-0.1928,-0.1495,-0.1165,-0.05,0.0557,0.1729,0.2837,0.3993,0.5316,0.6199,0.6696,0.8084,0.8666,0.8448,0.7966,0.7079,0.5524,0.3009,0.0218,-0.2551,-0.4635,-0.7019,-1.016,-1.1539,-1.3288,-1.4244,-1.4653,-1.4558,-1.4216,-1.3513,-1.304,-1.3055,-1.2118,-1.1873,-1.2854,-1.4795,-1.7283,-1.9096,-1.9775,-2.039,-2.1547,-2.2577,-2.3142,-2.3389,-2.3945,-2.4118,-2.3952,-2.3961,-2.3946,-2.3446,-2.3154,-2.2433,-2.0858,-2.0803,-2.0784,-2.0516,-2.0018,-1.9968,-2.0275,-2.0051,-1.9195,-1.8158,-1.7504,-1.6378,-1.4776,-1.4208,-1.4362,-1.4563,-1.479,-1.5077,-1.5391,-1.5524,-1.5638,-1.5712,-1.5825,-1.5825,-1.5825,-1.5825,-1.5825,-1.5825,-1.5825,-1.5825,-1.5825,-1.5825,-1.5825,-1.5825,-1.5146,-1.4274,-1.2818,-1.1653,-0.9998,-0.8528,-0.892,-0.9312,-0.9998,-1.0618,-1.1114,1.9566,2.0159,2.1804,2.2856,2.3533,2.4327,2.4854,2.5103,2.5143,2.3082,1.9514,1.5561,1.1347,0.7037,0.3412,0.0942,0.0442,0.0387,0.0277,0.0111,0.0334,0.078,0.1173,0.2119,0.3113,0.432,0.5751,0.6642,0.7079,0.8156,0.8268,0.7771,0.6907,0.5638,0.3975,0.1487,-0.1151,-0.3286,-0.5496,-0.7823,-1.061,-1.3135,-1.5051,-1.59,-1.5921,-1.592,-1.6081,-1.4997,-1.4503,-1.4129,-1.3223,-1.2226,-1.1658,-1.3184,-1.5608,-1.7924,-1.9008,-2.008,-2.0788,-2.137,-2.1608,-2.1983,-2.2676,-2.2985,-2.3178,-2.3226,-2.332,-2.309,-2.2567,-2.2051,-2.0839,-2.0819,-2.0619,-2.0338,-2.0082,-1.9983,-2.0149,-1.9844,-1.8877,-1.8069,-1.7415,-1.6139,-1.4544,-1.4315,-1.4476,-1.475,-1.4977,-1.5264,-1.5551,-1.5671,-1.5765,-1.5785,-1.5825,-1.5825,-1.5825,-1.5825,-1.5825,-1.5825,-1.5825,-1.5825,-1.5825,-1.5825,-1.5825,-1.573,-1.4752,-1.3782,-1.2237,-1.0877,-0.9604,-0.8726,-0.8233,-0.8333,-0.9019,-0.9494,-0.9899,1.8567,1.9667,2.1414,2.2591,2.3298,2.4045,2.4556,2.4807,2.4662,2.2282,1.8281,1.5225,1.1175,0.6735,0.3575,0.2115,0.1949,0.1947,0.1558,0.1171,0.1449,0.1451,0.1397,0.2621,0.3445,0.4539,0.5919,0.6923,0.7408,0.8209,0.8328,0.7509,0.6284,0.4907,0.3264,0.0774,-0.1713,-0.3419,-0.5521,-0.8506,-1.1962,-1.4665,-1.6395,-1.7242,-1.7472,-1.7496,-1.7831,-1.6696,-1.5865,-1.5792,-1.4028,-1.2951,-1.2573,-1.1538,-1.2197,-1.4182,-1.6434,-1.8691,-1.8952,-1.948,-1.9861,-2.0579,-2.1315,-2.1798,-2.2393,-2.2884,-2.3119,-2.3085,-2.1928,-2.096,-2.0489,-2.0299,-1.9913,-1.9837,-1.9895,-2.0061,-2.0217,-1.9195,-1.831,-1.7415,-1.6683,-1.5673,-1.4325,-1.4468,-1.4609,-1.4897,-1.5177,-1.5464,-1.5665,-1.5772,-1.5825,-1.5825,-1.5825,-1.5825,-1.5825,-1.5825,-1.5825,-1.5825,-1.5825,-1.5825,-1.5825,-1.5825,-1.5825,-1.5534,-1.4561,-1.3494,-1.2139,-1.0872,-0.9604,-0.8722,-0.8134,-0.8038,-0.8137,-0.8435,-0.8962,1.7793,1.9199,2.1004,2.2224,2.3094,2.3985,2.4441,2.4371,2.3616,2.0978,1.7129,1.4073,1.003,0.5739,0.3892,0.3566,0.3511,0.34,0.2788,0.1842,0.1952,0.1786,0.1507,0.223,0.3224,0.4539,0.5751,0.6627,0.7283,0.7676,0.7783,0.7025,0.5964,0.4535,0.2773,0.0608,-0.1381,-0.3741,-0.6763,-0.9896,-1.2489,-1.4889,-1.6842,-1.8003,-1.848,-1.8967,-1.8957,-1.8246,-1.7288,-1.6813,-1.4817,-1.3373,-1.2704,-1.1663,-1.1052,-1.1593,-1.2934,-1.4936,-1.7015,-1.8208,-1.8814,-1.9333,-2.0297,-2.1497,-2.23,-2.2852,-2.3125,-2.3065,-2.1542,-2.0543,-2.0133,-2.0174,-2.0043,-1.9939,-1.9951,-1.9736,-1.9603,-1.8585,-1.7577,-1.6764,-1.5982,-1.5106,-1.4507,-1.4704,-1.4823,-1.499,-1.5304,-1.5625,-1.5752,-1.5792,-1.5825,-1.5825,-1.5825,-1.5825,-1.5825,-1.5825,-1.5825,-1.5825,-1.5825,-1.5825,-1.5825,-1.5825,-1.5825,-1.5439,-1.4657,-1.3494,-1.2134,-1.0872,-0.9604,-0.8722,-0.8038,-0.8052,-0.8072,-0.8187,-0.8635,1.737,1.8777,2.0687,2.2092,2.3097,2.4034,2.4205,2.379,2.2007,1.9044,1.5181,1.1516,0.7623,0.5027,0.4291,0.4181,0.4125,0.4239,0.3289,0.2399,0.2009,0.1618,0.1452,0.1896,0.3113,0.4149,0.5534,0.6396,0.6742,0.6879,0.6804,0.6273,0.5538,0.4158,0.2332,0.0333,-0.1662,-0.4768,-0.8359,-1.1023,-1.2931,-1.5192,-1.6965,-1.8302,-1.9279,-2.0041,-2.0092,-1.9064,-1.827,-1.7543,-1.5245,-1.364,-1.2879,-1.1017,-0.9837,-1.0136,-1.1016,-1.2805,-1.5122,-1.6827,-1.7865,-1.8581,-1.943,-2.0895,-2.2286,-2.2811,-2.3125,-2.3065,-2.0899,-1.9849,-1.9585,-1.9879,-1.9945,-2.0019,-2.0234,-1.9712,-1.9116,-1.806,-1.7188,-1.6484,-1.5678,-1.4977,-1.467,-1.489,-1.5064,-1.5137,-1.5411,-1.5758,-1.5825,-1.5825,-1.5825,-1.5825,-1.5825,-1.5825,-1.5825,-1.5825,-1.5825,-1.5825,-1.5825,-1.5825,-1.5825,-1.5825,-1.5825,-1.5337,-1.4854,-1.359,-1.2431,-1.097,-0.9608,-0.8726,-0.8045,-0.8079,-0.813,-0.8252,-0.8431,1.7585,1.8338,2.0574,2.2243,2.3437,2.413,2.3823,2.2507,1.9789,1.6273,1.1824,0.7653,0.4606,0.3721,0.3846,0.3901,0.3398,0.3456,0.2565,0.1898,0.173,0.1341,0.1285,0.2063,0.3224,0.3652,0.5035,0.6128,0.643,0.6069,0.585,0.5478,0.4849,0.3613,0.1786,-0.0393,-0.3224,-0.621,-0.9486,-1.1677,-1.3541,-1.5647,-1.7566,-1.8988,-1.9737,-2.0294,-2.1315,-1.9749,-1.8667,-1.8354,-1.595,-1.3802,-1.2801,-1.0501,-0.9256,-0.9941,-1.1002,-1.271,-1.4514,-1.5476,-1.6119,-1.7357,-1.876,-2.0114,-2.1318,-2.2494,-2.2944,-2.2739,-2.0596,-1.9191,-1.9095,-1.9409,-1.9738,-2.0046,-2.0034,-1.9437,-1.8709,-1.7658,-1.687,-1.6185,-1.5452,-1.4863,-1.4836,-1.515,-1.5224,-1.5291,-1.5484,-1.5825,-1.5825,-1.5825,-1.5825,-1.5825,-1.5825,-1.5825,-1.5825,-1.5825,-1.5825,-1.5825,-1.5825,-1.5825,-1.5825,-1.5825,-1.5825,-1.573,-1.5242,-1.3884,-1.2624,-1.1361,-1.0092,-0.8726,-0.8055,-0.8099,-0.8252,-0.8421,-0.8615,1.7877,1.9068,2.0783,2.2034,2.2944,2.3737,2.2796,2.0408,1.7492,1.2268,0.6133,0.3523,0.2218,0.2225,0.2674,0.2954,0.2676,0.2676,0.1953,0.1507,0.1284,0.1118,0.1285,0.184,0.2839,0.3498,0.4718,0.5344,0.5405,0.5444,0.5358,0.4971,0.4194,0.2828,0.1023,-0.1736,-0.4991,-0.7522,-1.0013,-1.2061,-1.3756,-1.5604,-1.7224,-1.8255,-1.9494,-1.9876,-2.0307,-1.9774,-1.9193,-1.8324,-1.677,-1.5177,-1.3399,-1.092,-1.0584,-1.1539,-1.2933,-1.3876,-1.4758,-1.5503,-1.6206,-1.7559,-1.8752,-1.9628,-2.0322,-2.1101,-2.2187,-2.1757,-2.0465,-1.9078,-1.917,-1.9531,-1.9853,-2.0042,-1.9781,-1.9167,-1.823,-1.7253,-1.6185,-1.5427,-1.5205,-1.4798,-1.5057,-1.5411,-1.5424,-1.5444,-1.5658,-1.5825,-1.5825,-1.5825,-1.5825,-1.5825,-1.5825,-1.5825,-1.5825,-1.5825,-1.5825,-1.5825,-1.5825,-1.5825,-1.5825,-1.5825,-1.5825,-1.5825,-1.5534,-1.437,-1.3108,-1.1848,-1.0386,-0.8726,-0.8179,-0.814,-0.8333,-0.8574,-0.8743,1.8099,1.9542,2.0829,2.1968,2.2896,2.3545,2.1819,1.8342,1.4829,0.8551,0.0643,0.0164,0.0277,0.0612,0.1503,0.167,0.1671,0.1672,0.1341,0.1006,0.0727,0.0783,0.1118,0.173,0.2563,0.3292,0.4399,0.505,0.4989,0.52,0.493,0.4402,0.3523,0.2286,0.0413,-0.332,-0.6449,-0.8306,-1.0687,-1.2268,-1.3726,-1.5462,-1.6722,-1.7588,-1.8672,-1.9774,-2.0181,-2.0169,-1.9864,-1.9196,-1.8135,-1.6872,-1.4888,-1.3373,-1.3235,-1.4674,-1.6075,-1.6496,-1.6675,-1.6797,-1.7024,-1.791,-1.8432,-1.8911,-1.9233,-1.9649,-2.0346,-2.1348,-2.0128,-1.9375,-1.9512,-1.9863,-2.0059,-2.0275,-1.9593,-1.8877,-1.7747,-1.669,-1.5573,-1.4675,-1.465,-1.489,-1.5197,-1.5524,-1.5605,-1.5605,-1.5705,-1.5825,-1.5825,-1.5825,-1.5825,-1.5825,-1.5825,-1.5825,-1.5825,-1.5825,-1.5825,-1.5825,-1.5825,-1.5825,-1.5825,-1.5825,-1.5825,-1.5825,-1.5343,-1.4561,-1.3692,-1.2716,-1.0774,-0.8531,-0.8341,-0.8491,-0.8469,-0.8696,-0.8794,1.8246,1.9652,2.0682,2.2123,2.3601,2.3617,2.1,1.6084,1.1092,0.4609,-0.2394,-0.2475,-0.1713,-0.1001,0.0055,0.0333,0.0223,0.0613,0.0615,0.0112,0.0,0.0,0.0673,0.1456,0.2424,0.2649,0.3906,0.4937,0.4924,0.4967,0.4607,0.3688,0.2724,0.1465,0.0551,-0.4044,-0.6826,-0.8175,-1.1299,-1.2639,-1.3637,-1.5331,-1.6368,-1.7224,-1.8081,-1.9178,-2.0245,-2.0597,-2.0395,-2.0116,-1.9699,-1.915,-1.8855,-1.5625,-1.5723,-1.8471,-1.966,-1.9626,-1.8776,-1.8248,-1.8055,-1.8046,-1.8462,-1.8269,-1.8202,-1.8329,-1.8933,-2.0372,-1.9707,-1.9785,-2.0029,-2.0225,-2.0332,-2.0082,-1.9404,-1.8479,-1.7334,-1.5959,-1.4909,-1.4527,-1.4804,-1.5064,-1.5351,-1.5611,-1.5738,-1.5792,-1.5812,-1.5825,-1.5825,-1.5825,-1.5825,-1.5825,-1.5825,-1.5825,-1.5825,-1.5825,-1.5825,-1.5825,-1.5825,-1.5825,-1.5825,-1.5825,-1.5825,-1.5825,-1.5534,-1.4956,-1.437,-1.3686,-1.1565,-0.9524,-0.8969,-0.8815,-0.8776,-0.8791,-0.8872,1.909,2.0446,2.1725,2.2903,2.3781,2.3093,1.9288,1.2517,0.455,-0.1836,-0.4681,-0.4718,-0.3966,-0.3152,-0.227,-0.1605,-0.1335,-0.1337,-0.1228,-0.0671,-0.0671,0.0,0.073,0.171,0.2592,0.3316,0.4284,0.4847,0.5051,0.4813,0.4448,0.3692,0.1292,-0.0767,-0.2726,-0.5903,-0.8085,-0.9662,-1.1805,-1.3226,-1.3841,-1.5119,-1.6203,-1.6925,-1.7665,-1.8833,-2.0309,-2.0625,-2.0769,-2.089,-2.0624,-2.1256,-2.1686,-1.9117,-1.9576,-2.1319,-2.2091,-2.1498,-2.0258,-1.9367,-1.89,-1.8721,-1.8327,-1.8008,-1.8008,-1.8008,-1.876,-1.9697,-1.9961,-2.0264,-2.043,-2.0449,-2.042,-2.01,-1.9353,-1.8141,-1.6927,-1.5394,-1.4325,-1.4536,-1.4783,-1.5217,-1.5565,-1.5671,-1.5785,-1.5825,-1.5825,-1.5825,-1.5825,-1.5825,-1.5825,-1.5825,-1.5825,-1.5825,-1.5825,-1.5825,-1.5825,-1.5825,-1.5825,-1.5825,-1.5825,-1.5825,-1.5825,-1.5825,-1.5635,-1.5439,-1.4743,-1.3877,-1.2249,-1.081,-1.012,-0.9257,-0.8824,-0.8821,-0.8906,1.9946,2.14,2.253,2.3396,2.367,2.2285,1.664,0.7571,-0.1633,-0.6536,-0.7304,-0.6913,-0.604,-0.512,-0.4142,-0.3542,-0.2892,-0.2341,-0.1786,-0.1174,-0.1062,-0.0395,0.0687,0.18,0.2296,0.3109,0.3853,0.4479,0.4053,0.4077,0.3418,0.1851,-0.0333,-0.2807,-0.5057,-0.7246,-0.8762,-1.0335,-1.2074,-1.3398,-1.4186,-1.5245,-1.6167,-1.6935,-1.7754,-1.8768,-1.9895,-2.0577,-2.0894,-2.1264,-2.1939,-2.2743,-2.3231,-2.3496,-2.3087,-2.3437,-2.3009,-2.2555,-2.1581,-2.0246,-1.9879,-1.9759,-1.8721,-1.8066,-1.8008,-1.8008,-1.8828,-1.9697,-2.0342,-2.0537,-2.0566,-2.0576,-2.0323,-1.9913,-1.8789,-1.7577,-1.6492,-1.5034,-1.4448,-1.4636,-1.4957,-1.5384,-1.5698,-1.5752,-1.5818,-1.5825,-1.5825,-1.5825,-1.5825,-1.5825,-1.5825,-1.5825,-1.5825,-1.5825,-1.5825,-1.5825,-1.5825,-1.5825,-1.5825,-1.5825,-1.5825,-1.5825,-1.5825,-1.5832,-1.5743,-1.551,-1.4989,-1.3992,-1.2879,-1.1954,-1.1048,-1.015,-0.8998,-0.8849,-0.893,2.0703,2.241,2.3077,2.3556,2.3427,2.0212,1.2178,0.1183,-0.5632,-0.8906,-0.9499,-0.8797,-0.7764,-0.6479,-0.5183,-0.4532,-0.4207,-0.3058,-0.2228,-0.1507,-0.1452,-0.0684,0.0232,0.1473,0.1744,0.1974,0.2519,0.3113,0.2604,0.2503,0.1654,0.0267,-0.1602,-0.4153,-0.6298,-0.7752,-0.9087,-1.0933,-1.2435,-1.3528,-1.4327,-1.5594,-1.653,-1.7266,-1.8098,-1.9215,-2.019,-2.0758,-2.1198,-2.1863,-2.2866,-2.3464,-2.4141,-2.4991,-2.4869,-2.4312,-2.3463,-2.3037,-2.2555,-2.129,-2.059,-2.0139,-1.8854,-1.8269,-1.8008,-1.8047,-1.8701,-1.9541,-2.0301,-2.043,-2.0576,-2.0401,-2.0157,-1.9265,-1.8141,-1.7049,-1.6058,-1.5248,-1.4872,-1.491,-1.5224,-1.5545,-1.5738,-1.5825,-1.5825,-1.5825,-1.5825,-1.5825,-1.5825,-1.5825,-1.5825,-1.5825,-1.5825,-1.5825,-1.5825,-1.5825,-1.5825,-1.5825,-1.5825,-1.5825,-1.5825,-1.5825,-1.5825,-1.5832,-1.5858,-1.5717,-1.5671,-1.5052,-1.4188,-1.3118,-1.1841,-1.0474,-0.9184,-0.8879,-0.8937,2.1364,2.2876,2.3657,2.4023,2.2513,1.3188,0.5168,-0.0936,-0.7268,-1.0308,-1.037,-0.9725,-0.8665,-0.7382,-0.6929,-0.6067,-0.5362,-0.4656,-0.3779,-0.295,-0.1953,-0.1428,-0.041,0.078,0.0923,0.0948,0.1292,0.1829,0.1501,0.1202,0.0734,-0.02,-0.2404,-0.4838,-0.6473,-0.7668,-0.9775,-1.1665,-1.3158,-1.3863,-1.4616,-1.5864,-1.6835,-1.7757,-1.8251,-1.9262,-1.9883,-2.0578,-2.1166,-2.2359,-2.3217,-2.4047,-2.5842,-2.5649,-2.5119,-2.3655,-2.3182,-2.3065,-2.2811,-2.1542,-2.059,-2.0204,-1.8921,-1.8269,-1.8008,-1.8144,-1.8586,-1.9448,-2.0232,-2.0478,-2.0576,-2.0411,-1.9835,-1.8789,-1.7764,-1.6868,-1.5898,-1.5147,-1.4865,-1.5204,-1.5518,-1.5625,-1.5812,-1.5825,-1.5825,-1.5825,-1.5825,-1.5825,-1.5825,-1.5825,-1.5825,-1.5825,-1.5825,-1.5825,-1.5825,-1.5825,-1.5825,-1.5825,-1.5825,-1.5825,-1.5825,-1.5825,-1.5825,-1.5823,-1.5783,-1.6328,-1.6746,-1.5737,-1.3757,-1.323,-1.1932,-1.055,-0.9482,-0.9154,-0.8937,2.1832,2.3157,2.3915,2.2502,1.7914,0.8117,0.1069,-0.3694,-0.9437,-1.1835,-1.1389,-1.024,-0.9151,-0.8153,-0.7446,-0.6699,-0.5923,-0.5374,-0.4381,-0.2783,-0.2458,-0.1503,-0.0535,0.0122,0.0126,0.0,-0.0198,0.0,-0.02,-0.0668,-0.1136,-0.1336,-0.3276,-0.4782,-0.6469,-0.8024,-1.0127,-1.2127,-1.3673,-1.4387,-1.5274,-1.6156,-1.7256,-1.791,-1.8213,-1.8697,-1.9364,-2.0053,-2.1106,-2.256,-2.3455,-2.4932,-2.6445,-2.6459,-2.5123,-2.3826,-2.3518,-2.3113,-2.2555,-2.1416,-2.059,-1.989,-1.8875,-1.832,-1.8135,-1.8213,-1.8831,-1.959,-2.0164,-2.0576,-2.0576,-2.0411,-1.9441,-1.847,-1.7579,-1.6759,-1.59,-1.5113,-1.5176,-1.5458,-1.5678,-1.5765,-1.5825,-1.5825,-1.5825,-1.5825,-1.5825,-1.5825,-1.5825,-1.5825,-1.5825,-1.5825,-1.5825,-1.5825,-1.5825,-1.5825,-1.5825,-1.5825,-1.5825,-1.5825,-1.5825,-1.577,-1.5708,-1.5732,-1.5789,-1.6231,-1.6465,-1.45,-1.2812,-1.2361,-1.1755,-1.0131,-0.9154,-0.9047,-0.8937,2.2224,2.3097,2.3191,1.8548,1.147,0.455,-0.1474,-0.6867,-1.135,-1.3101,-1.2054,-1.0508,-0.927,-0.833,-0.7494,-0.6801,-0.6131,-0.5597,-0.4491,-0.2345,-0.2255,-0.157,-0.0725,-0.0186,-0.0638,-0.1118,-0.1536,-0.1801,-0.2473,-0.2608,-0.2606,-0.2878,-0.3547,-0.4857,-0.6534,-0.7698,-0.9731,-1.2226,-1.363,-1.4585,-1.5934,-1.6925,-1.7523,-1.7534,-1.7699,-1.8018,-1.8663,-1.9552,-2.0573,-2.2389,-2.3923,-2.538,-2.695,-2.709,-2.5544,-2.4389,-2.3846,-2.3088,-2.2163,-2.0974,-2.0139,-1.9375,-1.8569,-1.8468,-1.8457,-1.8486,-1.9076,-1.962,-2.0249,-2.0566,-2.0576,-1.9756,-1.8709,-1.7959,-1.7147,-1.6278,-1.5453,-1.5061,-1.5396,-1.5665,-1.5745,-1.5825,-1.5825,-1.5825,-1.5825,-1.5825,-1.5825,-1.5825,-1.5825,-1.5825,-1.5825,-1.5825,-1.5825,-1.5825,-1.5825,-1.5825,-1.5825,-1.5825,-1.5825,-1.5825,-1.5825,-1.5803,-1.5704,-1.5245,-1.4773,-1.539,-1.5431,-1.3433,-1.2229,-1.205,-1.1105,-0.9588,-0.8937,-0.8937,-0.8937,2.2564,2.1983,1.7489,1.2029,0.6058,0.0084,-0.5295,-0.9979,-1.0902,-1.1376,-1.0985,-1.0124,-0.9037,-0.7877,-0.7545,-0.6843,-0.586,-0.5597,-0.4494,-0.3149,-0.245,-0.1588,-0.0984,-0.0754,-0.1424,-0.2315,-0.2943,-0.3343,-0.3478,-0.3611,-0.3675,-0.368,-0.4079,-0.4992,-0.6359,-0.7459,-0.9087,-1.1966,-1.3493,-1.4604,-1.5813,-1.6348,-1.6765,-1.6989,-1.7279,-1.7879,-1.854,-1.9242,-2.0926,-2.2816,-2.3904,-2.5988,-2.8635,-2.748,-2.6212,-2.498,-2.3923,-2.2977,-2.1779,-2.0602,-1.9649,-1.9323,-1.8831,-1.8903,-1.8926,-1.8955,-1.9252,-1.9767,-2.0161,-2.0438,-2.0245,-1.9107,-1.8069,-1.7433,-1.6747,-1.5884,-1.498,-1.5308,-1.5625,-1.5732,-1.5812,-1.5825,-1.5825,-1.5825,-1.5825,-1.5825,-1.5825,-1.5825,-1.5825,-1.5825,-1.5825,-1.5825,-1.5825,-1.5825,-1.5825,-1.5825,-1.5825,-1.5825,-1.5825,-1.5825,-1.5845,-1.5415,-1.5066,-1.3959,-1.3514,-1.4168,-1.406,-1.2548,-1.1638,-1.1538,-1.0781,-0.9265,-0.8937,-0.8937,-0.8937,2.2174,2.0659,1.4215,0.7608,0.1447,-0.3215,-0.7344,-1.0437,-1.078,-1.0388,-0.9768,-0.9096,-0.8241,-0.73,-0.7171,-0.6652,-0.5601,-0.5538,-0.4216,-0.3091,-0.2371,-0.149,-0.117,-0.1081,-0.1825,-0.2729,-0.3944,-0.4486,-0.4013,-0.448,-0.4547,-0.4148,-0.4348,-0.5074,-0.6252,-0.6885,-0.8659,-1.1613,-1.3245,-1.4672,-1.5748,-1.6549,-1.6978,-1.7213,-1.76,-1.8058,-1.8474,-1.9218,-2.0786,-2.2949,-2.4623,-2.6236,-2.8005,-2.7834,-2.6768,-2.5453,-2.4187,-2.2867,-2.1444,-2.0226,-1.9204,-1.8947,-1.8834,-1.8789,-1.9375,-1.9434,-1.9551,-2.0026,-2.0311,-2.0566,-2.0001,-1.9027,-1.806,-1.7229,-1.6598,-1.59,-1.5459,-1.5464,-1.5698,-1.5778,-1.5825,-1.5825,-1.5825,-1.5825,-1.5825,-1.5825,-1.5825,-1.5825,-1.5825,-1.5825,-1.5825,-1.5825,-1.5825,-1.5825,-1.5825,-1.5825,-1.5825,-1.5825,-1.5838,-1.5863,-1.5879,-1.5134,-1.4316,-1.3482,-1.2906,-1.27,-1.2252,-1.1319,-1.1105,-1.1214,-1.0241,-0.8937,-0.8937,-0.8944,-0.8974,2.0919,1.841,1.0764,0.3602,-0.278,-0.5924,-0.8567,-1.0606,-1.0664,-0.9953,-0.8908,-0.8184,-0.7344,-0.6773,-0.6544,-0.5964,-0.5504,-0.5222,-0.3944,-0.2759,-0.2269,-0.132,-0.0805,-0.0766,-0.1376,-0.219,-0.3268,-0.3538,-0.3338,-0.3939,-0.4276,-0.4215,-0.4749,-0.5477,-0.5986,-0.727,-0.9376,-1.1606,-1.3442,-1.5061,-1.6244,-1.7234,-1.749,-1.7812,-1.8182,-1.8417,-1.8681,-1.9392,-2.0639,-2.2334,-2.4614,-2.6416,-2.7339,-2.75,-2.6701,-2.5453,-2.3974,-2.2481,-2.098,-1.9694,-1.9032,-1.8686,-1.8693,-1.9004,-1.959,-1.9902,-2.0019,-2.0262,-2.0536,-2.0157,-1.9511,-1.8825,-1.7772,-1.7046,-1.636,-1.5936,-1.5812,-1.5671,-1.5745,-1.5825,-1.5825,-1.5825,-1.5825,-1.5825,-1.5825,-1.5825,-1.5825,-1.5825,-1.5825,-1.5825,-1.5825,-1.5825,-1.5825,-1.5825,-1.5825,-1.5825,-1.5832,-1.5879,-1.5925,-1.5996,-1.5725,-1.4642,-1.386,-1.3499,-1.2904,-1.181,-1.1084,-1.0347,-1.0457,-1.0562,-0.9805,-0.8937,-0.8937,-0.8957,-0.9022,1.8111,1.1659,0.1638,-0.4357,-0.7218,-0.9675,-1.1637,-1.2473,-1.0789,-0.9415,-0.8988,-0.8559,-0.7866,-0.6588,-0.6603,-0.6046,-0.5117,-0.4842,-0.3785,-0.2413,-0.2243,-0.1214,0.0,0.0,0.0,-0.0863,-0.133,-0.1396,-0.2267,-0.2998,-0.3666,-0.4146,-0.4932,-0.5789,-0.6772,-0.8233,-0.9907,-1.2027,-1.4049,-1.5876,-1.6901,-1.7608,-1.7891,-1.8171,-1.8453,-1.8533,-1.8772,-1.9448,-2.0059,-2.1365,-2.3289,-2.5478,-2.6634,-2.682,-2.6011,-2.473,-2.3306,-2.2042,-2.0546,-1.9166,-1.8507,-1.8762,-1.8906,-1.9307,-1.9824,-2.0234,-2.0332,-2.0391,-2.0323,-1.9432,-1.8727,-1.7848,-1.6932,-1.6405,-1.5796,-1.584,-1.5725,-1.5745,-1.5798,-1.5825,-1.5825,-1.5825,-1.5825,-1.5825,-1.5825,-1.5825,-1.5825,-1.573,-1.5534,-1.5629,-1.5825,-1.5635,-1.5629,-1.5825,-1.5825,-1.5832,-1.5845,-1.5905,-1.5983,-1.619,-1.5557,-1.3925,-1.3187,-1.3098,-1.1454,-0.9896,-0.9372,-0.9588,-0.9482,-0.9588,-0.9372,-0.8937,-0.8937,-0.8984,-0.9066]},{"header":{"parameterUnit":"m.s-1","parameterCategory":1,"la1":31.0,"la2":29.5877,"lo1":-88.7671,"lo2":-86.6584,"dy":0.0162,"dx":0.0185,"nx":115,"ny":88,"refTime":"2024-08-15T00:00:00:Z","depth":0,"parameterNumber":3,"parameterNumberName":"V-component_of_WINDS"},"data":[0.0,0.0,0.0,0.0,0.0,0.0,0.0,0.0,0.0,0.0,0.0,0.0,0.0,0.0,0.0,0.0,0.0,0.0,0.0,0.0,0.0,0.0,0.0,0.0,0.0,0.0,0.0,0.0,0.0,0.0,0.0,0.0,0.0,0.0,0.0,0.0,0.0,0.0,0.0,0.0,0.0,0.0,0.0,0.0,0.0,0.0,0.0,0.0,0.0,0.0,0.0,0.0,0.0,0.0,0.0,0.0,0.0,0.0,0.0,0.0,0.0,0.0,0.0,0.0,0.0,0.0,0.0,0.0,0.0,0.0,0.0,0.0,0.0,0.0,0.0,0.0,0.0,0.0,0.0,0.0,0.0,0.0,0.0,0.0,0.0,0.0,0.0,0.0,0.0,0.0,0.0,0.0,0.0,0.0,0.0,0.0,0.0,0.0,0.0,0.0,0.0,0.0,0.0,0.0,0.0,0.0,0.0,0.0,0.0,0.0,0.0,0.0,0.0,0.0,0.0,0.0,0.0,0.0,0.0,0.0,0.0,0.0,0.0,0.0,0.0,0.0,0.0,0.0,0.0,0.0,0.0,0.0,0.0,0.0,0.0,0.0,0.0,0.0,0.0,0.0,0.0,0.0,0.0,0.0,0.0,0.0,0.0,0.0,0.0,0.0,0.0,0.0,0.0,0.0,0.0,0.0,0.0,0.0,0.0,0.0,0.0,0.0,0.0,0.0,0.0,0.0,0.0,0.0,0.0,0.0,0.0,0.0,0.0,0.0,0.0,0.0,0.0,0.0,0.0,0.0,0.0,0.0,0.0,0.0,0.0,0.0,0.0,0.0,0.0,0.0,0.0,0.0,0.0,0.0,0.0,0.0,0.0,0.0,0.0,0.0,0.0,0.0,0.0,0.0,0.0,0.0,0.0,0.0,0.0,0.0,0.0,0.0,0.0,0.0,0.0,0.0,0.0,0.0,0.0,0.0,0.0,0.0,0.0,0.0,0.0,0.0,0.0,0.0,0.0,0.0,0.0,0.0,0.0,0.0,0.0,0.0,0.0,0.0,0.0,0.0,0.0,0.0,0.0,0.0,0.0,0.0,0.0,0.0,0.0,0.0,0.0,0.0,0.0,0.0,0.0,0.0,0.0,0.0,0.0,0.0,0.0,0.0,0.0,0.0,0.0,0.0,0.0,0.0,0.0,0.0,0.0,0.0,0.0,0.0,0.0,0.0,0.0,0.0,0.0,0.0,0.0,0.0,0.0,0.0,0.0,0.0,0.0,0.0,0.0,0.0,0.0,0.0,0.0,0.0,0.0,0.0,0.0,0.0,0.0,0.0,0.0,0.0,0.0,0.0,0.0,0.0,0.0,0.0,0.0,0.0,0.0,0.0,0.0,0.0,0.0,0.0,0.0,0.0,0.0,0.0,0.0,0.0,0.0,0.0,0.0,0.0,0.0,0.0,0.0,0.0,0.0,0.0,0.0,0.0,0.0,0.0,0.0,0.0,0.0,0.0,0.0,0.0,0.0,0.0,0.0,0.0,0.0,0.0,0.0,0.0,0.0,0.0,0.0,0.0,0.0,0.0,0.0,0.0,0.0,0.0,0.0,0.0,0.0,0.0,0.0,0.0,0.0,0.0,0.0,0.0,0.0,0.0,0.0,0.0,0.0,0.0,0.0,0.0,0.0,0.0,0.0,0.0,0.0,0.0,0.0,0.0,0.0,0.0,0.0,0.0,0.0,0.0,0.0,0.0,0.0,0.0,0.0,0.0,0.0,0.0,0.0,0.0,0.0,0.0,0.0,0.0,0.0,0.0,0.0,0.0,0.0,0.0,0.0,0.0,0.0,0.0,0.0,0.0,0.0,0.0,0.0,0.0,0.0,0.0,0.0,0.0,0.0,0.0,0.0,0.0,0.0,0.0,0.0,0.0,0.0,0.0,0.0,0.0,0.0,0.0,0.0,0.0,0.0,0.0,0.0,0.0,0.0,0.0,0.0,0.0,0.0,0.0,0.0,0.0,0.0,0.0,0.0,0.0,0.0,0.0,0.0,0.0,0.0,0.0,0.0,0.0,0.0,0.0,0.0,0.0,0.0,0.0,0.0,0.0,0.0,0.0,0.0,0.0,0.0,0.0,0.0,0.0,0.0,0.0,0.0,0.0,0.0,0.0,0.0,0.0,0.0,0.0,0.0,0.0,0.0,0.0,0.0,0.0,0.0,0.0,0.0,0.0,0.0,0.0,0.0,0.0,0.0,0.0,0.0,0.0,0.0,0.0,0.0,0.0,0.0,0.0,0.0,0.0,0.0,0.0,0.0,0.0,0.0,0.0,0.0,0.0,0.0,0.0,0.0,0.0,0.0,0.0,0.0,0.0,0.0,0.0,0.0,0.0,0.0,0.0,0.0,0.0,0.0,0.0,0.0,0.0,0.0,0.0,0.0,0.0,0.0,0.0,0.0,0.0,0.0,0.0,0.0,0.0,0.0,0.0,0.0,0.0,0.0,0.0,0.0,0.0,0.0,0.0,0.0,0.0,0.0,0.0,0.0,0.0,0.0,0.0,0.0,0.0,0.0,0.0,0.0,0.0,0.0,0.0,0.0,0.0,0.0,0.0,0.0,0.0,0.0,0.0,0.0,0.0,0.0,0.0,0.0,0.0,0.0,0.0,0.0,0.0,0.0,0.0,0.0,0.0,0.0,0.0,0.0,0.0,0.0,0.0,0.0,0.0,0.0,0.0,0.0,0.0,0.0,0.0,0.0,0.0,0.0,0.0,0.0,0.0,0.0,0.0,0.0,0.0,0.0,0.0,0.0,0.0,0.0,0.0,0.0,0.0,0.0,0.0,0.0,0.0,0.0,0.0,0.0,0.0,0.0,0.0,0.0,0.0,0.0,0.0,0.0,0.0,0.0,0.0,0.0,0.0,0.0,0.0,0.0,0.0,0.0,0.0,0.0,0.0,0.0,0.0,0.0,0.0,0.0,0.0,0.0,0.0,0.0,0.0,0.0,0.0,0.0,0.0,0.0,0.0,0.0,0.0,0.0,0.0,0.0,0.0,0.0,0.0,0.0,0.0,0.0,0.0,0.0,0.0,0.0,0.0,0.0,0.0,0.0,0.0,0.0,0.0,0.0,0.0,0.0,0.0,0.0,0.0,0.0,0.0,0.0,0.0,0.0,0.0,0.0,0.0,0.0,0.0,0.0,0.0,0.0,0.0,0.0,0.0,0.0,0.0,0.0,0.0,0.0,0.0,0.0,0.0,0.0,0.0,0.0,0.0,0.0,0.0,0.0,0.0,0.0,0.0,0.0,0.0,0.0,0.0,0.0,0.0,0.0,0.0,0.0,0.0,0.0,0.0,0.0,0.0,0.0,0.0,0.0,0.0,0.0,0.0,0.0,0.0,0.0,0.0,0.0,0.0,0.0,0.0,0.0,0.0,0.0,0.0,0.0,0.0,0.0,0.0,0.0,0.0,0.0,0.0,0.0,0.0,0.0,0.0,0.0,0.0,0.0,0.0,0.0,0.0,0.0,0.0,0.0,0.0,0.0,0.0,0.0,0.0,0.0,0.0,0.0,0.0,0.0,0.0,0.0,0.0,0.0,0.0,0.0,0.0,0.0,0.0,0.0,0.0,0.0,0.0,0.0,0.0,0.0,0.0,0.0,0.0,0.0,0.0,0.0,0.0,0.0,0.0,0.0,0.0,0.0,0.0,0.0,0.0,0.0,0.0,0.0,0.0,0.0,0.0,0.0,0.0,0.0,0.0,0.0,0.0,0.0,0.0,0.0,0.0,0.0,0.0,0.0,0.0,0.0,0.0,0.0,0.0,0.0,0.0,0.0,0.0,0.0,0.0,0.0,0.0,0.0,0.0,0.0,0.0,0.0,0.0,0.0,0.0,0.0,0.0,0.0,0.0,0.0,0.0,0.0,0.0,0.0,0.0,0.0,0.0,0.0,0.0,0.0,0.0,0.0,0.0,0.0,0.0,0.0,0.0,0.0,0.0,0.0,0.0,0.0,0.0,0.0,0.0,0.0,0.0,0.0,0.0,0.0,0.0,0.0,0.0,0.0,0.0,0.0,0.0,0.0,0.0,0.0,0.0,0.0,0.0,0.0,0.0,0.0,0.0,0.0,0.0,0.0,0.0,0.0,0.0,0.0,0.0,0.0,0.0,0.0,0.0,0.0,0.0,0.0,0.0,0.0,0.0,0.0,0.0,0.0,0.0,0.0,0.0,0.0,0.0,0.0,0.0,0.0,0.0,0.0,0.0,0.0,0.0,0.0,0.0,0.4802,0.0,0.0,0.0,0.0,0.0,0.0,0.0,0.0,0.0,0.0,0.0,0.0,0.0,0.0,0.0,0.0,0.0,0.0,0.0,0.0,0.0,0.0,0.0,0.0,0.0,0.0,0.0,0.0,0.0,0.0,0.0,0.0,0.0,0.0,0.0,0.0,0.0,0.0,0.0,0.0,0.0,0.0,0.0,0.0,0.0,0.0,0.0,0.0,0.0,0.0,0.0,0.0,0.0,0.0,0.0,0.0,0.0,0.0,0.0,0.0,0.0,0.0,0.0,0.0,0.0,0.0,0.0,0.0,0.0,0.0,0.0,0.0,0.0,0.0,0.0,0.0,0.0,0.0,0.0,0.0,0.0,0.0,0.0,0.0,0.0,0.0,0.0,0.0,0.0,0.0,0.0,0.0,0.0,0.0,0.0,0.0,0.0,0.0,0.0,0.0,0.0,0.0,0.0,0.0,0.0,0.0,0.0,0.0,0.0,0.0,0.4494,0.4493,0.4606,0.4712,0.4885,0.0,0.0,0.0,0.0,0.0,0.0,0.0,0.0,0.0,0.0,0.0,0.0,0.0,0.0,0.0,0.0,0.0,0.0,0.0,0.0,0.0,0.0,0.0,0.0,0.0,0.0,0.0,0.0,0.0,0.0,0.0,0.0,0.0,0.0,0.0,0.0,0.0,0.0,0.0,0.0,0.0,0.0,0.0,0.0,0.0,0.0,0.0,0.0,0.0,0.0,0.0,0.0,0.0,0.0,0.0,0.0,0.0,0.0,0.0,0.0,0.0,0.0,0.0,0.0,0.0,0.0,0.0,0.0,0.0,0.0,0.0,0.0,0.0,0.0,0.0,0.0,0.0,0.0,0.0,0.0,0.0,0.0,0.0,0.0,0.0,0.0,0.0,0.0,0.0,0.0,0.0,0.0,0.0,0.0,0.0,0.0,0.0,0.0,0.0,0.0,0.0,0.0,0.0,0.0,0.0,0.0,0.0,0.0,0.0,0.0,0.0,0.0,0.4905,0.5145,0.5491,0.0,0.0,0.0,0.0,0.0,0.0,0.0,0.0,0.0,0.0,0.0,0.0,0.0,0.0,0.0,0.0,0.0,0.0,0.0,0.0,0.0,0.0,0.0,0.0,0.0,0.0,0.0,0.0,0.0,0.0,0.0,0.0,0.0,0.0,0.0,0.0,0.0,0.0,0.0,0.0,0.0,0.0,0.0,0.0,0.0,0.0,0.0,0.0,0.0,0.0,0.0,0.0,0.0,0.0,0.0,0.0,0.0,0.0,0.0,0.0,0.0,0.0,0.0,0.0,0.0,0.0,0.0,0.0,0.0,0.0,0.0,0.0,0.0,0.0,0.0,0.0,0.0,0.0,0.0,0.0,0.0,0.0,0.0,0.0,0.0,0.0,0.0,0.0,0.0,0.0,0.0,0.0,0.0,0.0,0.0,0.0,0.0,0.0,0.0,0.0,0.0,0.0,0.0,0.0,0.0,0.0,0.0,0.0,0.0,0.0,0.484,0.5566,0.5712,0.0,0.7114,0.0,0.0,0.0,0.0,0.0,0.0,0.0,0.0,0.0,0.0,0.0,0.0,0.0,0.0,0.0,0.0,0.0,0.0,0.0,0.0,0.0,0.0,0.0,0.0,0.0,0.0,0.0,0.0,0.0,0.0,0.0,0.0,0.0,0.0,0.0,0.0,0.0,0.0,0.0,0.0,0.0,0.0,0.0,0.0,0.0,0.0,0.0,0.0,0.0,0.0,0.0,0.0,0.0,0.0,0.0,0.0,0.0,0.0,0.0,0.0,0.0,0.0,0.0,0.0,0.0,0.0,0.0,0.0,0.0,0.0,0.0,0.0,0.0,0.0,0.0,0.0,0.0,0.0,0.0,0.0,0.0,0.0,0.0,0.0,0.0,0.0,0.0,0.0,0.0,0.0,0.0,0.0,0.0,0.0,0.0,0.0,0.0,0.0,0.0,0.0,0.0,0.0,0.0,0.0,0.0,0.0,0.0,0.0,0.0,0.0,0.0,0.5566,0.5823,0.6195,0.0,0.0,0.0,0.0,0.0,0.0,0.0,0.0,0.0,0.0,0.0,0.0,0.0,0.0,0.0,0.0,0.0,0.0,0.0,0.0,0.0,0.0,0.0,0.0,0.0,0.0,0.0,0.0,0.0,0.0,0.0,0.0,0.0,0.0,0.0,0.0,0.0,0.0,0.0,0.0,0.0,0.0,0.0,0.0,0.0,0.0,0.0,0.0,0.0,0.0,0.0,0.0,0.0,0.0,0.0,0.0,0.0,0.0,0.0,0.0,0.0,0.0,0.0,0.0,0.0,0.0,0.0,0.0,0.0,0.0,0.0,0.0,0.0,0.0,0.0,0.0,0.0,0.0,0.0,0.0,0.0,0.0,0.0,0.0,0.0,0.0,0.0,0.0,0.0,0.0,0.0,0.0,0.0,0.0,0.0,0.0,0.0,0.0,0.0,0.0,0.0,0.0,0.0,0.0,0.0,0.0,0.0,0.0,0.0,0.0,0.5145,0.0,0.5901,0.6222,0.6352,0.6207,0.0,0.0,0.0,0.0,0.0,0.0,0.0,0.0,0.0,0.0,0.0,0.0,0.0,0.0,0.0,0.0,0.0,0.0,0.0,0.0,0.0,0.0,0.0,0.0,0.0,0.0,0.0,0.0,0.0,0.0,0.0,0.0,0.0,0.0,0.0,0.0,0.0,0.0,0.0,0.0,0.0,0.0,0.0,0.0,0.0,0.0,0.0,0.0,0.0,0.0,0.0,0.0,0.0,0.0,0.0,0.0,0.0,0.0,0.0,0.0,0.0,0.0,0.0,0.0,0.0,0.0,0.0,0.0,0.0,0.0,0.0,0.0,0.0,0.0,0.0,0.0,0.0,0.0,0.0,0.0,0.0,0.0,0.0,0.0,0.0,0.0,0.0,0.0,0.0,0.0,0.0,0.0,0.0,0.0,0.0,0.0,0.0,0.0,0.0,0.0,0.0,0.0,0.0,0.0,0.0,0.0,0.0,0.0,0.0,0.544,0.5899,0.6893,0.726,0.7038,0.0,0.0,0.0,0.0,0.0,0.0,0.0,0.0,0.0,0.0,0.0,0.0,0.0,0.0,0.0,0.0,0.0,0.0,0.0,0.0,0.0,0.0,0.0,0.0,0.0,0.0,0.0,0.0,0.0,0.0,0.0,0.0,0.0,0.0,0.0,0.0,0.0,0.0,0.0,0.0,0.0,0.0,0.0,0.0,0.0,0.0,0.0,0.0,0.0,0.0,0.0,0.0,0.0,0.0,0.0,0.0,0.0,0.0,0.0,0.0,0.0,0.0,0.0,0.0,0.0,0.0,0.0,0.0,0.0,0.0,0.0,0.0,0.0,0.0,0.0,0.0,0.0,0.0,0.0,0.0,0.0,0.0,0.0,0.0,0.0,0.0,0.0,0.0,0.0,0.0,0.0,0.0,0.0,0.0,0.0,0.0,0.0,0.0,0.0,0.0,0.0,0.0,0.0,0.0,0.0,0.0,0.0,0.0,0.0,0.4648,0.5332,0.6383,0.7668,0.6981,0.6664,0.0,0.0,0.0,0.0,0.0,0.0,0.0,0.0,0.0,0.0,0.0,0.0,0.0,0.0,0.0,0.0,0.0,0.0,0.0,0.0,0.0,0.0,0.0,0.0,0.0,0.0,0.0,0.0,0.0,0.0,0.0,0.0,0.0,0.0,0.0,0.0,0.0,0.0,0.0,0.0,0.0,0.0,0.0,0.0,0.0,0.0,0.0,0.0,0.0,0.0,0.0,0.0,0.0,0.0,0.0,0.0,0.0,0.0,0.0,0.0,0.0,0.0,0.0,0.0,0.0,0.0,0.0,0.0,0.0,0.0,0.0,0.0,0.0,0.0,0.0,0.0,0.0,0.0,0.0,0.0,0.0,0.0,0.0,0.0,0.0,0.0,0.0,0.0,0.0,0.0,0.0,0.0,0.0,0.0,0.0,0.0,0.0,0.0,0.0,0.0,0.0,0.0,0.0,0.0,0.0,0.0,0.0,0.0,0.0,0.485,0.0,0.6866,0.0,0.6929,0.6514,0.0,0.0,0.0,0.0,0.0,0.0,0.0,0.0,0.0,0.0,0.0,0.0,0.0,0.0,0.0,0.0,0.0,0.0,0.0,0.0,0.0,0.0,0.0,0.0,0.0,0.0,0.0,0.0,0.0,0.0,0.0,0.0,0.0,0.0,0.0,0.0,0.0,0.0,0.0,0.0,0.0,0.0,0.0,0.0,0.0,0.0,0.0,0.0,0.0,0.0,0.0,0.0,0.0,0.0,0.0,0.0,0.0,0.0,0.0,0.0,0.0,0.0,0.0,0.0,0.0,0.0,0.0,0.0,0.0,0.0,0.0,0.0,0.0,0.0,0.0,0.0,0.0,0.0,0.0,0.0,0.0,0.0,0.0,0.0,0.0,0.0,0.0,0.0,0.0,0.0,0.0,0.0,0.0,0.0,0.0,0.0,0.0,0.0,0.0,0.0,0.0,0.0,0.0,0.0,0.0,0.0,0.0,0.0,0.4742,0.6312,0.7046,0.7282,0.6976,0.7234,0.6652,0.0,0.0,0.0,0.0,0.0,0.0,0.0,0.0,0.0,0.0,0.0,0.0,0.0,0.0,0.0,0.0,0.0,0.0,0.0,0.0,0.0,0.0,0.0,0.0,0.0,0.0,0.0,0.0,0.0,0.0,0.0,0.0,0.0,0.0,0.0,0.0,0.0,0.0,0.0,0.0,0.0,0.0,0.0,0.0,0.0,0.0,0.0,0.0,0.0,0.0,0.0,0.0,0.0,0.0,0.0,0.0,0.0,0.0,0.0,0.0,0.0,0.0,0.0,0.0,0.0,0.0,0.0,0.0,0.0,0.0,0.0,0.0,0.0,0.0,0.0,0.0,0.0,0.0,0.0,0.0,0.0,0.0,0.0,0.0,0.0,0.0,0.0,0.0,0.0,0.0,0.0,0.0,0.0,0.0,0.0,0.0,0.0,0.0,0.0,0.0,0.0,0.0,0.0,0.0,0.0,0.0,0.0,0.0,0.0,0.631,0.6591,0.7389,0.8656,0.7565,0.7126,0.0,0.0,0.0,0.0,0.0,0.0,0.0,0.0,0.0,0.0,0.0,0.0,0.0,0.0,0.0,0.0,0.0,0.0,0.0,0.0,0.0,0.0,0.0,0.0,0.0,0.0,0.0,0.0,0.0,0.0,0.0,0.0,0.0,0.0,0.0,0.0,0.0,0.0,0.0,0.0,0.0,0.0,0.0,0.0,0.0,0.0,0.0,0.0,0.0,0.0,0.0,0.0,0.0,0.0,0.0,0.0,0.0,0.0,0.0,0.0,0.0,0.0,0.0,0.0,0.0,0.0,0.0,0.0,0.0,0.0,0.0,0.0,0.0,0.0,0.0,0.0,0.0,0.0,0.0,0.0,0.0,0.0,0.0,0.0,0.0,0.0,0.0,0.0,0.0,0.0,0.0,0.0,0.0,0.0,0.0,0.0,0.0,0.0,0.0,0.0,0.0,0.0,0.0,0.0,0.0,0.0,0.0,0.0,0.0,0.7139,0.7255,0.8028,0.9557,0.893,0.8445,0.8192,0.0,0.0,0.0,0.0,0.0,0.0,0.0,0.0,0.0,0.0,0.0,0.0,0.0,0.0,0.0,0.0,0.0,0.0,0.0,0.0,0.0,0.0,0.0,0.0,0.0,0.0,0.0,0.0,0.0,0.0,0.0,0.0,0.0,0.0,0.0,0.0,0.0,0.0,0.0,0.0,0.0,0.0,0.0,0.0,0.0,0.0,0.0,0.0,0.0,0.0,0.0,0.0,0.0,0.0,0.0,0.0,0.0,0.0,0.0,0.0,0.0,0.0,0.0,0.0,0.0,0.0,0.0,0.0,0.0,0.0,0.0,0.0,0.0,0.0,0.0,0.0,0.0,0.0,0.0,0.0,0.0,0.0,0.0,0.0,0.0,0.0,0.0,0.0,0.0,0.0,0.0,0.0,0.0,0.0,0.0,0.0,0.0,0.0,0.0,0.0,0.0,0.0,0.0,0.0,0.0,0.0,0.0,0.0,0.8874,0.9056,0.9332,0.977,1.0926,1.036,0.0,0.0,0.0,0.0,0.0,0.0,0.0,0.0,0.0,0.0,0.0,0.0,0.0,0.0,0.0,0.0,0.0,0.0,0.0,0.0,0.0,0.0,0.0,0.0,0.0,0.0,0.0,0.0,0.0,0.0,0.0,0.0,0.0,0.0,0.0,0.0,0.0,0.0,0.0,0.0,0.0,0.0,0.0,0.0,0.0,0.0,0.0,0.0,0.0,0.0,0.0,0.0,0.0,0.0,0.0,0.0,0.0,0.0,0.0,0.0,0.0,0.0,0.0,0.0,0.0,0.0,0.0,0.0,0.0,0.0,0.0,0.0,0.0,0.0,0.0,0.0,0.0,0.0,0.0,0.0,0.0,0.0,0.0,0.0,0.0,0.0,0.0,0.0,0.0,0.0,0.0,0.0,0.0,0.0,0.0,0.0,0.0,0.0,0.0,0.0,0.0,0.0,0.0,0.0,0.0,0.0,0.0,0.0,0.0,1.2595,1.2922,1.2514,1.1469,1.0856,1.0538,0.0,0.0,0.0,0.0,0.0,0.0,0.0,0.0,0.0,0.0,0.0,0.0,0.0,0.0,0.0,0.0,0.0,0.0,0.0,0.0,0.0,0.0,0.0,0.0,0.0,0.0,0.0,0.0,0.0,0.0,0.0,0.0,0.0,0.0,0.0,0.0,0.0,0.0,0.0,0.0,0.0,0.0,0.0,0.0,0.0,0.0,0.0,0.0,0.0,0.0,0.0,0.0,0.0,0.0,0.0,0.0,0.0,0.0,0.0,0.0,0.0,0.0,0.0,0.0,0.0,0.0,0.0,0.0,0.0,0.0,0.0,0.0,0.0,0.0,0.0,0.0,0.0,0.0,0.0,0.0,0.0,0.0,0.0,0.0,0.0,0.0,0.0,0.0,0.0,0.0,0.0,0.0,0.0,0.0,0.0,0.0,0.0,0.0,0.0,0.0,0.0,0.0,0.0,0.0,0.0,0.0,0.0,0.0,1.1763,1.4399,1.5962,1.623,1.5163,1.3561,1.217,0.0,0.0,0.0,0.0,0.0,0.0,0.0,0.0,0.0,0.0,0.0,0.0,0.0,0.0,0.0,0.0,0.0,0.0,0.0,0.0,0.0,0.0,0.0,0.0,0.0,0.0,0.0,0.0,0.0,0.0,0.0,0.0,0.0,0.0,0.0,0.0,0.0,0.0,0.0,0.0,0.0,0.0,0.0,0.0,0.0,0.0,0.0,0.0,0.0,0.0,0.0,0.0,0.0,0.0,0.0,0.0,0.0,0.0,0.0,0.0,0.0,0.0,0.0,0.0,0.0,0.0,0.0,0.0,0.0,0.0,0.0,0.0,0.0,0.0,0.0,0.0,0.0,0.0,0.0,0.0,0.0,0.0,0.0,0.0,0.0,0.0,0.0,0.0,0.0,0.0,0.0,0.0,0.0,0.0,0.0,0.0,0.0,0.0,0.0,0.0,0.0,0.0,0.0,0.0,0.0,0.0,0.0,0.0,1.3333,1.4912,1.8026,1.9541,1.9285,1.7259,1.4342,0.0,0.0,0.0,0.0,0.0,0.0,0.0,0.0,0.0,0.0,0.0,0.0,0.0,0.0,0.0,0.0,0.0,0.0,0.0,0.0,0.0,0.0,0.0,0.0,0.0,0.0,0.0,0.0,0.0,0.0,0.0,0.0,0.0,0.0,0.0,0.0,0.0,0.0,0.0,0.0,0.0,0.0,0.0,0.0,0.0,0.0,0.0,0.0,0.0,0.0,0.0,0.0,0.0,0.0,0.0,0.0,0.0,0.0,0.0,0.0,0.0,0.0,0.0,0.0,0.0,0.0,0.0,0.0,0.0,0.0,0.0,0.0,0.0,0.0,0.0,0.0,0.0,0.0,0.0,0.0,0.0,0.0,0.0,0.0,0.0,0.0,0.0,0.0,0.0,0.0,0.0,0.0,0.0,0.0,0.0,0.0,0.0,0.0,0.0,0.0,0.0,0.0,0.0,0.0,0.0,0.0,0.0,0.0,1.385,1.5644,1.7713,1.9022,1.9511,1.6611,1.4194,0.0,0.0,0.0,0.0,0.0,0.0,0.0,0.0,0.0,0.0,0.0,0.0,0.0,0.0,0.0,0.0,0.0,0.0,0.0,0.0,0.0,0.0,0.0,0.0,0.0,0.0,0.0,0.0,0.0,0.0,0.0,0.0,0.0,0.0,0.0,0.0,0.0,0.0,0.0,0.0,0.0,0.0,0.0,0.0,0.0,0.0,0.0,0.0,1.2037,0.0,0.0,0.0,0.0,0.0,0.0,0.0,0.0,0.0,0.0,0.0,0.0,0.0,0.0,0.0,0.0,0.0,0.0,0.0,0.0,0.0,0.0,0.0,0.0,0.0,0.0,0.0,0.0,0.0,0.0,0.0,0.0,0.0,0.0,0.0,0.0,0.0,0.0,0.0,0.0,0.0,0.0,0.0,0.0,0.0,0.0,0.0,0.0,0.0,0.0,0.0,0.0,0.0,0.0,0.0,0.0,0.0,0.0,0.0,1.4654,1.6531,1.8167,1.9204,1.9488,1.7088,1.4873,0.0,0.0,0.0,0.0,0.0,0.0,0.0,0.0,0.0,0.0,0.0,0.0,0.0,0.0,0.0,0.0,0.0,0.0,0.0,0.0,0.0,0.0,0.0,0.0,0.0,0.0,0.0,0.0,0.0,0.0,0.0,0.0,0.0,0.0,0.0,0.0,0.0,0.0,0.0,0.0,0.0,0.0,0.0,0.0,0.0,0.0,0.0,0.0,0.0,0.0,0.0,0.0,0.0,0.0,0.0,0.0,0.0,0.0,0.0,0.0,0.0,0.0,0.0,0.0,0.0,0.0,0.0,0.0,0.0,0.0,0.0,0.0,0.0,0.0,0.0,0.0,0.0,0.0,0.0,0.0,0.0,0.0,0.0,0.0,0.0,0.0,0.0,0.0,0.0,0.0,0.0,0.0,0.0,0.0,0.0,0.0,0.0,0.0,0.0,0.0,0.0,0.0,0.0,0.0,0.0,0.0,0.0,1.2798,1.5303,1.7007,1.8687,1.9557,1.9532,1.7849,1.576,1.3345,0.0,0.0,0.0,0.0,0.0,0.0,0.0,0.0,0.0,0.0,0.0,0.0,0.0,0.0,0.0,0.0,0.0,0.0,0.0,0.0,0.0,0.0,0.0,0.0,0.0,0.0,0.0,0.0,0.0,0.0,0.0,0.0,0.0,0.0,0.0,0.0,0.0,0.0,1.0762,1.2875,0.0,0.0,0.0,0.0,0.0,0.0,0.0,0.0,1.4221,0.0,0.0,0.0,0.0,0.0,0.0,0.0,0.0,0.0,0.0,0.0,0.0,0.0,0.0,0.0,0.0,0.0,0.0,0.0,0.0,0.0,0.0,0.0,0.0,0.0,0.0,0.0,0.0,0.0,0.0,0.0,0.0,0.0,0.0,0.0,0.0,0.0,0.0,0.0,0.0,0.0,0.0,0.0,0.0,0.0,0.0,0.0,0.0,0.0,0.0,0.0,0.0,0.0,0.0,0.0,0.0,0.981,1.279,1.482,1.5794,1.8084,1.9289,1.9315,1.7859,1.6193,1.4386,0.0,0.0,0.0,0.0,0.0,0.0,0.0,0.0,0.0,0.0,0.0,0.0,0.0,0.0,0.0,0.0,0.0,0.0,0.0,0.0,0.0,0.0,0.0,0.0,0.0,0.0,0.0,0.0,0.0,0.0,0.0,0.0,0.0,0.0,0.0,0.0,0.0,0.0,0.0,1.4995,1.6439,0.0,0.0,0.0,0.0,0.0,0.0,0.0,0.0,1.48,0.0,0.0,0.0,0.0,0.0,0.0,0.0,0.0,0.0,0.0,0.0,0.0,0.0,0.0,0.0,0.0,0.0,0.0,0.0,0.0,0.0,0.0,0.0,0.0,0.0,0.0,0.0,0.0,0.0,0.0,0.0,0.0,0.0,0.0,0.0,0.0,0.0,0.0,0.0,0.0,0.0,0.0,0.0,0.0,0.0,0.0,0.0,0.0,0.0,0.0,0.0,0.0,0.0,0.0,0.0,0.755,1.0793,1.3182,1.4781,1.7186,1.8466,1.844,1.7137,1.5673,0.0,0.0,0.0,0.0,0.0,0.0,0.0,0.0,0.0,0.0,0.0,0.0,0.0,0.0,0.0,0.0,0.0,0.0,0.0,0.0,0.0,0.0,0.0,0.0,0.0,0.0,0.0,0.0,0.0,0.0,0.0,0.0,0.0,0.0,0.0,0.0,0.0,0.0,0.0,0.0,1.6116,1.7468,1.8267,0.0,0.0,0.0,0.0,0.0,0.0,1.6743,1.5799,0.0,0.0,0.0,0.0,0.0,0.0,0.0,0.0,0.0,0.0,0.0,0.0,0.0,0.0,0.0,0.0,0.0,0.0,0.0,0.0,0.0,0.0,0.0,0.0,0.0,0.0,0.0,0.0,0.0,0.0,0.0,0.0,0.0,0.0,0.0,0.0,0.0,0.0,0.0,0.0,0.0,0.0,0.0,0.0,0.0,0.0,0.0,0.0,0.0,0.0,0.0,0.0,0.0,0.0,0.0,0.4582,0.8225,1.1293,1.373,1.6214,1.752,1.7503,1.6547,1.5241,0.0,0.0,0.0,0.0,0.0,0.0,0.0,0.0,0.0,0.0,0.0,0.0,0.0,0.0,0.0,0.0,0.0,0.0,0.0,0.0,0.0,0.0,0.0,0.0,0.0,0.0,0.0,0.0,0.0,0.0,0.0,0.0,0.0,0.0,0.0,0.0,0.0,0.0,0.0,0.0,0.0,1.8692,1.9219,1.9825,0.0,0.0,0.0,0.0,1.9783,1.861,0.0,0.0,0.0,0.0,0.0,0.0,0.0,0.0,0.0,0.0,0.0,0.0,0.0,0.0,0.0,0.0,0.0,0.0,0.0,0.0,0.0,0.0,0.0,0.0,0.0,0.0,0.0,0.0,0.0,0.0,0.0,0.0,0.0,0.0,0.0,0.0,0.0,0.0,0.0,0.0,0.0,0.0,0.0,0.0,0.0,0.0,0.0,0.0,0.0,0.0,0.0,0.0,0.0,0.0,0.0,0.0,0.1848,0.5961,0.9549,1.2621,1.5155,1.6646,1.6978,1.6854,1.5753,0.0,0.0,0.0,0.0,0.0,0.0,0.0,0.0,0.0,0.0,0.0,0.0,0.0,0.0,0.0,0.0,0.0,0.0,0.0,0.0,0.0,0.0,0.0,0.0,0.0,0.0,0.0,0.0,0.0,0.0,0.0,0.0,0.0,0.0,0.0,0.0,0.0,0.0,0.0,0.0,0.0,2.092,2.0319,2.0269,2.0499,0.0,0.0,2.0692,2.2227,2.1691,0.0,0.0,0.0,0.0,0.0,0.0,0.0,0.0,0.0,0.0,0.0,0.0,0.0,0.0,0.0,0.0,0.0,0.0,0.0,0.0,0.0,0.0,0.0,0.0,0.0,0.0,0.0,0.0,0.0,0.0,0.0,0.0,0.0,0.0,0.0,0.0,0.0,0.0,0.0,0.0,0.0,0.0,0.0,0.0,0.0,0.0,0.0,0.0,0.0,0.0,0.0,0.0,0.0,0.0,0.0,-0.5664,-0.0804,0.235,0.6051,1.0377,1.3172,1.5265,1.6649,1.6379,1.5196,0.0,0.0,0.0,0.0,0.0,0.0,0.0,0.0,0.0,0.0,0.0,0.0,0.0,0.0,0.0,0.0,0.0,0.0,0.0,0.0,0.0,0.0,0.0,0.0,0.0,0.0,0.0,0.0,0.0,0.0,0.0,0.0,0.0,0.0,0.0,0.0,0.0,0.0,0.0,0.0,0.0,0.0,2.1687,2.2185,0.0,0.0,0.0,2.2469,2.2852,0.0,0.0,0.0,0.0,0.0,0.0,0.0,0.0,0.0,0.0,0.0,0.0,0.0,0.0,0.0,0.0,0.0,0.0,0.0,0.0,0.0,0.0,0.0,0.0,0.0,0.0,0.0,0.0,0.0,0.0,0.0,0.0,0.0,0.0,0.0,0.0,0.0,0.0,0.0,0.0,0.0,0.0,0.0,0.0,0.0,0.0,0.0,0.0,0.0,0.0,0.0,0.0,0.0,0.0,0.0,0.0,0.0,-0.304,-0.0872,0.2551,0.7367,1.0449,1.3027,1.504,1.5131,0.0,0.0,0.0,0.0,0.0,0.0,0.0,0.0,0.0,0.0,0.0,0.0,0.0,0.0,0.0,0.0,0.0,0.0,0.0,0.0,0.0,0.0,0.0,0.0,0.0,0.0,0.0,0.5336,0.0,0.0,0.0,0.0,0.0,0.0,0.0,0.0,0.0,0.0,0.0,0.0,0.0,0.0,2.1461,2.2675,2.3612,2.4028,0.0,0.0,2.3841,2.3566,2.3377,2.2679,0.0,0.0,0.0,0.0,0.0,0.0,0.0,0.0,0.0,0.0,0.0,0.0,0.0,0.0,0.0,0.0,0.0,0.0,0.0,0.0,0.0,0.0,0.0,0.0,0.0,0.0,0.0,0.0,0.0,0.0,0.0,0.0,0.0,0.0,0.0,0.0,0.0,0.0,0.0,0.0,0.0,0.0,0.0,0.0,0.0,0.0,0.0,0.0,0.0,0.0,0.0,0.0,0.0,0.0,0.0,-0.4743,-0.2958,-0.0288,0.3358,0.6852,0.9534,1.1421,1.2838,1.3234,0.0,0.0,0.0,0.0,0.0,0.0,0.0,0.0,0.0,0.0,0.0,0.0,0.0,0.0,0.0,0.0,0.0,0.0,0.0,0.0,0.0,0.0,0.0,0.0,0.0,0.0,0.0,0.0,0.0,0.0,0.0,0.0,0.0,0.0,0.0,0.0,0.0,0.0,0.0,0.0,0.0,2.2802,2.2968,2.3642,2.4375,0.0,0.0,2.4322,2.5024,2.5111,2.4292,2.1905,0.0,0.0,0.0,0.0,0.0,0.0,0.0,0.0,0.0,0.0,0.0,0.0,0.0,0.0,0.0,0.0,0.0,0.0,0.0,0.0,0.0,0.0,0.0,0.0,0.0,0.0,0.0,0.0,0.0,0.0,0.0,0.0,0.0,0.0,0.0,0.0,0.0,0.0,0.0,0.0,0.0,0.0,0.0,0.0,0.0,0.0,0.0,0.0,0.0,0.0,0.0,0.0,0.0,-0.7916,-0.5503,-0.4844,-0.2683,0.1082,0.4826,0.785,1.0046,1.226,1.3045,0.0,0.0,0.0,0.0,0.0,0.0,0.0,0.0,0.0,0.0,0.0,0.0,0.0,0.0,0.0,0.0,0.0,0.0,0.0,0.0,0.0,0.0,0.0,0.0,0.0,0.0,0.0,0.0,0.8205,0.8921,0.9537,0.0,0.0,0.0,0.0,0.0,0.0,0.0,0.0,0.0,0.0,2.3095,2.4068,2.4404,0.0,0.0,2.5061,2.5055,2.5,2.5305,2.4917,2.3065,2.2764,0.0,0.0,0.0,0.0,0.0,0.0,0.0,0.0,0.0,0.0,0.0,0.0,0.0,0.0,0.0,0.0,0.0,0.0,0.0,0.0,0.0,0.0,0.0,0.0,0.0,0.0,0.0,0.0,0.0,0.0,0.0,0.0,0.0,0.0,0.0,0.0,0.0,0.0,0.0,0.0,0.0,0.0,0.0,0.0,0.0,0.0,0.0,0.0,0.0,0.0,0.0,0.0,-0.7362,-0.5959,-0.6358,-0.4772,-0.1114,0.254,0.5638,0.808,1.0929,1.2366,0.0,0.0,0.0,0.0,0.0,0.0,0.0,0.0,0.0,0.0,0.0,0.0,0.0,0.0,0.0,0.0,0.0,0.0,0.0,0.0,0.0,0.0,0.0,0.0,0.0,0.0,0.0,0.0,0.8862,0.9389,1.0124,0.0,0.0,0.0,0.0,0.0,0.0,0.0,0.0,0.0,0.0,2.3473,2.4759,2.4862,2.4904,2.5125,2.5292,2.5356,2.5175,2.5517,2.5265,2.3752,0.0,0.0,0.0,0.0,0.0,0.0,0.0,0.0,0.0,0.0,0.0,0.0,0.0,0.0,0.0,0.0,0.0,0.0,0.0,0.0,0.0,0.0,0.0,0.0,0.0,0.0,0.0,0.4794,0.0,0.0,0.3867,0.0,0.0,0.0,0.0,0.0,0.0,0.0,0.0,0.0,0.0,0.0,0.0,0.0,0.0,0.0,0.0,0.0,0.0,0.0,0.0,0.0,0.0,-0.762,-0.6162,-0.741,-0.6544,-0.3475,-0.0261,0.2577,0.5026,0.8428,1.0834,1.2074,0.0,0.0,0.0,0.0,0.0,0.0,0.0,0.0,0.0,0.0,0.0,0.0,0.0,0.0,0.0,0.0,0.0,0.0,0.0,0.0,0.0,0.0,0.0,0.0,0.0,0.0,0.8615,0.9415,1.0008,0.0,0.0,0.0,0.0,0.0,0.0,0.0,0.0,0.0,0.0,2.3366,2.411,2.4736,2.482,2.5077,2.5838,2.5326,2.5114,2.5841,2.5973,2.5423,0.0,0.0,0.0,0.0,0.0,0.0,0.0,0.0,0.0,0.0,0.0,0.0,0.0,0.0,0.0,0.0,0.0,0.0,0.0,0.0,0.0,0.0,0.0,0.0,0.0,0.0,0.0,0.6495,0.6208,0.0,0.0,0.0,0.0,0.0,0.0,0.0,0.0,0.0,0.0,0.0,0.7732,0.8996,0.0,0.0,0.0,0.0,0.0,0.0,0.0,0.0,0.0,0.0,0.0,0.0,-0.6887,-0.7996,-0.8827,-0.8219,-0.6164,-0.267,0.0817,0.4289,0.7437,1.0293,1.2854,0.0,0.0,0.0,0.0,0.0,0.0,0.0,0.0,0.0,0.0,0.0,0.0,0.0,0.0,0.0,0.0,0.0,0.0,0.0,0.0,0.0,0.0,0.0,0.0,0.0,0.9481,0.0,0.0,0.0,0.0,0.0,0.0,0.0,0.0,0.0,0.0,0.0,2.1924,2.3236,2.3941,2.4557,2.5289,2.506,2.5084,0.0,0.0,0.0,0.0,0.0,0.0,0.0,0.0,0.0,0.0,0.0,0.0,0.0,0.0,2.7363,2.4362,2.3194,2.3006,2.4071,0.0,0.0,0.0,0.0,0.0,0.0,0.0,0.0,0.0,0.0,0.0,0.0,0.0,0.0,0.7988,0.0,0.7945,0.0,0.0,0.0,0.0,0.0,0.0,0.0,0.0,0.8181,0.888,0.9034,1.0367,1.142,0.0,1.3057,1.2727,0.0,0.0,0.0,0.0,0.0,0.0,0.0,0.0,-0.691,-0.9275,-1.0605,-1.0415,-0.8665,-0.4134,-0.0324,0.2669,0.7282,1.0897,1.3325,1.2086,1.1114,0.0,0.0,0.0,0.0,0.0,0.0,0.0,0.0,0.0,0.0,0.0,0.0,0.0,0.0,0.0,0.0,0.0,0.0,0.0,0.0,0.0,0.0,0.0,1.0135,0.0,0.0,0.0,0.0,0.0,0.0,0.0,0.0,0.0,2.3215,2.3384,2.3653,2.4762,2.4914,2.5149,2.572,0.0,0.0,0.0,0.0,0.0,0.0,0.0,2.7236,2.7196,2.7789,2.8356,2.8594,2.9732,3.0613,3.0613,0.0,0.0,2.7547,2.6375,2.6278,2.7587,2.8529,2.9507,3.089,3.1782,3.2502,0.0,0.0,0.0,0.0,0.0,0.0,0.0,0.0,1.029,1.0061,0.0,0.9924,0.0,0.0,0.0,0.0,0.6421,0.7462,0.0,0.0,0.9822,1.0738,1.0749,1.2116,1.35,1.4911,1.6358,1.6698,1.5933,1.2881,0.0,0.0,0.0,0.0,0.0,0.0,-0.7654,-1.0148,-1.2624,-1.301,-1.0928,-0.4766,-0.0842,0.0738,0.811,1.2565,1.3411,1.3703,1.27,1.0174,0.9863,0.0,0.0,0.0,0.0,0.0,0.0,0.0,0.0,0.0,0.0,0.0,0.0,0.0,0.0,0.0,0.0,0.0,0.0,0.0,0.0,1.0258,0.0,0.0,0.0,0.0,0.0,0.0,0.0,0.0,0.0,0.0,2.4593,2.4638,2.5019,2.6688,0.0,0.0,0.0,0.0,2.609,2.7624,2.7179,2.7203,2.8669,2.9233,2.9233,2.8496,0.0,0.0,3.0461,3.1017,3.1568,3.1568,3.2302,3.2485,3.1659,3.0919,3.0757,3.1533,3.192,3.2461,3.3289,3.4097,3.4663,1.057,0.0,0.0,0.0,0.0,1.1698,1.1879,1.2607,1.188,1.1408,1.1041,1.1041,0.0,0.0,0.0,0.0,0.0,0.0,0.8305,0.8771,0.9984,1.1028,1.2084,1.3847,1.528,1.6396,1.7259,1.7564,1.7354,1.6327,1.4372,1.1543,0.0,0.0,0.0,0.0,-0.7225,-1.2618,-1.4247,-1.3579,-1.0868,-0.5477,0.0551,0.7213,1.1545,1.3964,1.4247,1.4017,1.3493,1.2639,1.0917,0.0,0.0,0.0,0.0,0.0,0.0,0.0,0.0,0.0,0.0,0.0,0.0,0.0,0.0,0.0,0.0,0.0,0.0,0.0,1.2006,1.1522,1.1875,0.0,0.0,0.0,0.0,0.0,0.0,0.0,0.0,0.0,2.3526,2.4261,2.4968,0.0,0.0,2.555,2.7057,2.6648,2.6845,2.8737,2.8644,0.0,2.9223,2.8987,2.8881,2.9473,3.0823,3.2099,3.3024,3.3615,3.4174,3.4743,3.5092,3.5165,3.4871,3.375,3.3213,3.3858,3.4297,3.4979,3.6272,3.6789,3.7117,1.3572,1.3095,1.2599,1.2862,1.3521,1.2878,1.2945,1.3462,1.2822,1.243,1.2232,1.1928,1.146,1.0816,1.0062,0.0,0.0,0.0,0.9751,1.0818,1.207,1.3469,1.5001,1.658,1.7879,1.8906,1.9413,1.9605,1.9552,1.9723,1.836,1.5592,0.0,0.0,0.6554,0.1211,-0.486,-1.1489,-1.5112,-1.5627,-1.3053,-0.3991,0.4385,1.1693,1.366,1.4782,1.5271,1.4769,1.4254,1.3789,1.2282,1.0836,0.0,0.0,0.0,0.0,0.0,0.0,0.0,0.0,0.0,0.0,0.0,0.7356,0.0,0.0,0.0,0.0,0.9752,1.2849,1.4414,1.3941,0.0,0.0,0.0,0.0,0.0,0.0,0.0,2.0337,2.1877,2.3379,2.4688,2.4962,2.5508,2.6836,2.6472,2.665,2.8237,0.0,2.7732,2.9486,2.9581,2.9627,3.0103,2.9885,3.0071,3.1124,3.2229,3.328,3.4418,3.5133,3.5807,3.6523,3.678,3.6872,3.7202,3.6413,3.5734,3.5954,3.6141,3.6822,3.8359,3.8711,3.8918,1.6738,1.6986,1.4944,1.4263,1.4458,1.4145,1.3923,1.3695,1.332,1.3181,1.3216,1.2436,1.1719,1.0999,0.9254,0.0,0.9282,1.0508,1.1953,1.3649,1.5448,1.7133,1.8705,1.9741,2.0803,2.1855,2.2186,2.2285,2.2167,2.2694,2.2158,2.0477,1.7219,1.3648,0.9719,0.4773,-0.0971,-0.7402,-1.4412,-1.7167,-1.5244,-0.066,0.9538,1.4368,1.4685,1.5235,1.6218,1.5655,1.4905,1.4069,1.3778,1.2616,1.0454,0.0,0.0,0.0,0.0,0.0,0.0,0.0,0.0,0.0,0.0,0.0,0.0,0.0,0.0,0.0,1.2515,0.0,1.7245,1.7008,0.0,0.0,0.0,1.912,2.0575,2.179,2.2872,2.3746,0.0,0.0,2.7278,2.6602,2.6712,2.8815,2.8469,2.8405,2.9403,2.874,2.8655,3.0036,3.0192,3.0446,3.0959,3.1336,3.1812,3.2695,3.3795,3.44,3.5027,3.5834,3.6652,3.7441,3.7617,3.7771,3.856,3.8505,3.8487,3.7753,3.7709,3.815,3.9454,3.9827,3.9908,1.7271,1.7492,1.6979,1.6818,1.6803,1.6352,1.597,1.5513,1.4107,1.3027,1.2196,1.0981,1.0088,0.9393,0.964,1.028,1.1277,1.2558,1.4268,1.621,1.7389,1.8756,2.0255,2.1043,2.1746,2.2399,2.2615,2.2734,2.2775,2.2873,2.3418,2.4198,2.1855,1.817,1.3235,0.8889,0.3622,-0.2603,-0.658,-0.729,-0.4434,0.4629,1.1003,1.4128,1.5465,1.5905,1.5444,1.5342,1.5199,1.495,1.4293,1.3859,1.3776,1.1379,0.0,0.0,0.0,0.0,0.0,0.0,0.0,0.0,0.0,1.082,0.8667,0.0,1.1422,0.0,1.4555,1.9308,1.9506,1.8737,0.0,0.0,2.0816,2.1443,2.3379,2.3723,2.4105,2.4971,2.5232,2.617,2.8357,2.9323,2.9825,2.9841,2.8506,2.8101,2.9631,2.941,2.948,3.0617,3.0903,3.0987,3.114,3.1252,3.1615,3.2376,3.3266,3.4296,3.5523,3.6567,3.7477,3.823,3.8432,3.8505,3.8652,3.8707,3.8891,3.9203,3.9313,3.9423,3.9827,4.0042,4.0221,1.8101,1.8258,1.848,1.8446,1.8144,1.7286,1.6375,1.5406,1.3766,1.2818,1.228,1.0236,0.8657,0.7652,0.9295,1.0858,1.2331,1.4307,1.6564,1.8939,1.9977,2.1198,2.2551,2.3002,2.3437,2.384,2.3922,2.401,2.4108,2.4107,2.4254,2.4518,2.326,2.054,1.6545,1.4423,0.9842,0.2608,-0.7157,-0.932,-0.3428,0.7061,1.2831,1.3348,1.5809,1.6722,1.5811,1.5812,1.5474,1.4719,1.4188,1.4283,1.5003,1.3277,1.194,0.0,0.0,0.0,0.0,0.0,0.0,0.0,0.0,0.0,0.0,0.0,1.5581,1.3853,1.827,2.1199,2.1236,2.1321,2.1969,2.3328,2.3401,2.3876,2.5136,2.501,2.5132,2.5952,2.6021,2.6835,2.8909,3.0375,3.096,3.0302,2.9297,2.91,3.0213,3.0099,3.0128,3.1027,3.119,3.119,3.119,3.1478,3.1879,3.2547,3.3616,3.4742,3.5791,3.6908,3.7822,3.8241,3.8546,3.8707,3.8707,3.9019,3.9405,3.9808,4.0487,4.091,4.0965,4.085,4.0827,1.8765,1.893,1.9317,1.9169,1.8589,1.7261,1.5925,1.4587,1.2979,1.21,1.1604,0.8795,0.6735,0.5554,0.8461,1.0962,1.3137,1.6036,1.8873,2.1526,2.2614,2.3702,2.476,2.4948,2.5162,2.5386,2.5398,2.5421,2.5503,2.5561,2.4781,2.3269,2.304,2.1737,1.945,1.9674,1.5617,0.698,-0.9504,-1.3818,-0.5241,0.7808,1.408,1.3067,1.5969,1.7311,1.6599,1.6542,1.5811,1.4341,1.4181,1.4367,1.4862,1.4916,1.4365,0.0,1.3163,0.0,0.0,0.0,0.0,0.0,0.0,0.0,0.0,1.7369,1.9363,2.1235,2.2048,2.2494,2.2656,2.4005,2.4964,2.5227,2.5619,2.5904,2.6031,2.5953,2.615,2.6826,2.6927,2.7587,2.9265,3.0351,3.0699,3.0344,3.021,3.0344,3.0998,3.0747,3.0608,3.1151,3.119,3.1224,3.1427,3.1968,3.2661,3.3283,3.4436,3.557,3.6111,3.72,3.8013,3.8065,3.8433,3.8744,3.8817,3.9423,3.9937,4.0267,4.135,4.2158,4.2109,4.176,4.1561,1.8106,1.8855,1.8549,1.8078,1.7397,1.6211,1.5514,1.5088,1.2771,0.9254,0.501,0.2672,0.1929,0.2688,0.7285,1.141,1.5029,1.8549,2.1296,2.3409,2.3878,2.4492,2.5164,2.5288,2.5344,2.5379,2.5386,2.5432,2.5512,2.5504,2.4939,2.385,2.3429,2.2521,2.1152,0.0,0.0,0.0,-0.0207,-0.1301,0.3906,0.8007,1.2019,1.5785,1.6509,0.0,1.6459,1.658,1.6464,1.6039,1.5981,0.0,0.0,0.0,0.0,0.0,0.0,0.0,0.0,0.0,0.0,0.0,1.6535,1.6484,1.7279,1.8911,2.0035,2.0327,2.2443,2.3911,2.4098,2.465,2.5217,2.5651,2.5897,2.5974,2.5785,2.6691,2.7554,2.7875,2.8035,2.8559,2.9599,2.9569,2.9569,3.0166,3.0293,3.0576,3.1112,3.1055,3.1055,3.1207,3.1224,3.1427,3.1985,3.2737,3.3588,3.4622,3.5387,3.6254,3.7255,3.7987,3.8496,3.8496,3.8627,3.8927,3.9515,3.979,4.0322,4.157,4.2103,4.2304,4.2271,4.199,4.1742,1.7177,1.7666,1.7652,1.6744,0.0,1.4685,1.3772,1.2579,1.1326,0.6571,-0.0543,-0.317,-0.371,-0.2294,0.5461,1.0233,1.2771,1.8603,2.2241,2.3918,2.4252,2.4679,2.5134,2.5196,2.5254,2.5357,2.5383,2.5415,2.5484,2.526,2.4512,2.3259,2.2765,2.1516,1.9556,1.7148,1.3205,0.7766,0.2615,0.1094,0.3363,0.6984,1.0792,1.4685,1.6799,0.0,0.0,0.0,0.0,0.0,0.0,0.0,0.0,0.0,0.0,1.5484,1.6292,1.6242,1.5142,1.5857,1.6973,1.8294,1.9132,1.9635,1.9675,2.0882,2.1833,2.2353,2.4219,2.5216,2.4825,2.5557,2.6087,2.6003,2.6388,2.6685,2.6758,2.7316,2.8076,2.8749,2.8682,2.8735,2.9307,2.9073,2.9073,2.9761,3.0123,3.0535,3.1055,3.119,3.1292,3.1647,3.1376,3.1596,3.2669,3.3676,3.4461,3.5208,3.6004,3.6769,3.7417,3.7964,3.8318,3.8332,3.8515,3.8964,3.9735,4.0212,4.0891,4.2011,4.2616,4.2873,4.2858,4.2556,4.2162,1.6164,1.6225,1.6333,1.516,1.3207,1.2712,1.0859,0.8163,0.7976,0.0,0.0,-0.7517,-0.8613,-0.7466,0.2609,0.7866,0.9481,1.7249,2.19,2.3705,2.4058,2.4454,2.4867,2.493,2.5057,2.5274,2.5316,2.5391,2.5476,2.5013,2.3904,2.2337,2.1698,2.009,1.7358,1.3761,1.1205,0.9542,0.3309,0.048,0.1565,0.7744,1.1899,1.3642,1.7285,1.8932,1.834,1.8854,1.8457,1.6938,1.6708,1.583,1.4086,1.3677,1.457,1.6799,1.6921,1.6948,1.7124,1.78,1.8383,1.8676,2.0455,2.1571,2.1624,2.267,2.375,2.4796,2.567,2.598,2.5546,2.6322,2.6819,2.635,2.6847,2.7343,2.7724,2.7853,2.8286,2.9311,2.8944,2.857,2.8732,2.8622,2.8795,2.9332,2.9951,3.07,3.1352,3.1546,3.1698,3.229,3.2087,3.2138,3.3354,3.4453,3.53,3.5715,3.6556,3.723,3.7487,3.7773,3.8013,3.8132,3.8506,3.9227,3.9974,4.0781,4.157,4.2359,4.3039,4.3479,4.3444,4.3124,4.2675,1.5196,1.5481,1.3917,1.3,1.2471,1.0244,0.6261,0.1397,0.0532,-0.1494,-0.4499,-0.7951,-1.0516,-1.1827,-0.2378,0.3731,0.7328,1.4408,1.9436,2.2602,2.32,2.3787,2.4423,2.4685,2.493,2.513,2.5139,2.5269,2.5422,2.4965,2.3535,2.1419,2.0679,1.9305,1.7142,1.4695,1.376,1.4042,0.4856,0.2304,0.7118,1.5159,1.861,1.7257,1.8849,1.9806,1.9787,1.9327,1.8744,1.8162,1.8003,1.818,1.872,1.7375,1.7705,1.9876,1.9705,1.9137,1.8404,1.8899,1.914,1.9058,1.9473,2.0355,2.1755,2.352,2.4752,2.5149,2.4821,2.5387,2.7112,2.6606,2.6406,2.6943,2.6903,2.7063,2.7703,2.7944,2.8378,2.9171,2.883,2.8529,2.8544,2.8125,2.8286,2.9229,3.0238,3.1132,3.2479,3.2527,3.2476,3.3051,3.3169,3.3457,3.4227,3.4972,3.5796,3.6823,3.7029,3.7524,3.8252,3.8433,3.8533,3.8596,3.9158,3.9955,4.0781,4.1589,4.2304,4.3039,4.3406,4.3479,4.3479,4.341,4.3178,1.4157,1.3896,1.2637,1.1216,0.9589,0.6187,0.2379,-0.1796,-0.4847,-0.7158,-0.8954,-1.0921,-1.2975,-1.4123,-0.5226,0.0497,0.3584,1.2468,1.8408,2.171,2.2391,2.3097,2.382,2.4008,2.4304,2.4642,2.4674,2.4911,2.5279,2.4667,2.3419,2.1686,2.0077,1.8951,1.8254,1.7012,1.6721,1.723,1.0243,0.7951,1.0807,1.7128,2.0938,2.1998,2.1318,2.0842,2.1016,2.083,2.0598,2.0255,1.9726,1.949,1.9485,1.8554,1.8699,2.0212,2.0906,2.0676,1.9393,1.889,1.8478,1.8136,1.8368,1.8951,2.0045,2.2455,2.3874,2.3706,2.3343,2.405,2.6184,2.6296,2.6228,2.6164,2.6294,2.6705,2.7427,2.7948,2.8482,2.9103,2.8853,2.8543,2.8622,2.8042,2.8221,2.9643,3.104,3.2546,3.3777,3.3711,3.3592,3.3897,3.3694,3.3947,3.4861,3.5368,3.6037,3.702,3.7396,3.7861,3.8546,3.8707,3.8891,3.9258,3.9698,4.0377,4.146,4.2029,4.2616,4.3259,4.3479,4.3479,4.3479,4.3479,4.3286,1.2899,1.2278,1.1195,0.9256,0.6587,0.2808,-0.0386,-0.3286,-0.76,-1.0621,-1.2376,-1.3433,-1.4938,-1.5838,-0.7731,-0.26,0.0821,1.0211,1.7014,2.0716,2.1711,2.2539,2.3254,2.3382,2.3719,2.4188,2.4241,2.4561,2.5039,2.4374,2.3382,2.2108,2.0208,1.9437,1.9747,1.9542,1.9666,1.9877,1.6295,1.4379,1.4632,1.8554,2.2158,2.4855,2.3219,2.2094,2.2163,2.2147,2.1988,2.163,2.0804,2.0022,1.9287,1.8864,1.907,2.0049,2.1454,2.1562,1.9909,1.8666,1.7705,1.7068,1.7209,1.7557,1.8257,2.0528,2.1978,2.1811,2.2773,2.3994,2.507,2.5521,2.568,2.5445,2.5879,2.659,2.7406,2.7885,2.8342,2.8992,2.8685,2.8367,2.8415,2.8262,2.895,3.0879,3.2557,3.3888,3.4573,3.4742,3.4742,3.4641,3.4269,3.437,3.5436,3.5766,3.6249,3.7097,3.756,3.8065,3.8564,3.8817,3.9166,3.9772,4.0249,4.0928,4.2047,4.2506,4.2837,4.3387,4.3479,4.3479,4.3479,4.3479,4.341,1.1436,1.0695,0.8899,0.6758,0.4563,0.1492,-0.1042,-0.3266,-0.643,-0.9247,-1.1644,-1.3695,-1.5666,-1.6487,-1.0633,-0.5871,-0.1841,0.6892,1.4173,1.9451,2.1341,2.2344,2.2788,2.3076,2.3498,2.395,2.4026,2.4284,2.4804,2.4302,2.33,2.2005,2.1606,2.1345,2.1228,2.1799,2.2344,2.2722,2.1597,2.0494,1.9625,2.171,2.3304,2.4081,2.3932,2.3611,2.3256,2.2397,2.1697,2.1151,2.039,1.9671,1.9178,1.8917,1.9313,2.0478,2.1642,2.1469,1.9626,1.8427,1.7464,1.6642,1.6133,1.6133,1.6765,1.7892,1.8993,2.0386,2.3832,2.5572,2.5265,2.4496,2.4606,2.5758,2.6077,2.67,2.7763,2.7774,2.7798,2.8481,2.8076,2.7725,2.8031,2.9015,3.0543,3.2637,3.3734,3.4624,3.5233,3.5402,3.5419,3.5453,3.5402,3.5385,3.5694,3.6182,3.6684,3.719,3.7578,3.8153,3.8679,3.9313,3.9882,4.0341,4.1093,4.1956,4.2359,4.2818,4.3332,4.3406,4.3479,4.3479,4.3479,4.3479,4.3444,1.0509,1.0049,0.8351,0.6396,0.4193,0.1274,-0.1922,-0.5221,-0.7353,-0.9306,-1.1206,-1.3622,-1.555,-1.6697,-1.3201,-0.815,-0.1428,0.6755,1.3895,1.9645,2.124,2.2051,2.2463,2.2598,2.2947,2.3476,2.3538,2.3832,2.4369,2.4505,2.4107,2.3288,2.2813,2.2536,2.2477,2.215,2.2152,2.2354,2.1447,2.1028,2.1334,2.1974,2.3217,2.4749,2.4593,2.4316,2.4127,2.3613,2.301,2.2339,2.137,2.0623,2.0226,1.965,1.9657,2.0385,2.0862,2.0668,1.9581,1.8236,1.7167,1.6459,1.5928,1.5961,1.6785,1.7076,1.814,2.0763,2.3313,2.4697,2.4307,2.3837,2.4066,2.505,2.5582,2.6272,2.7165,2.7483,2.7671,2.7913,2.776,2.8087,2.9314,3.1534,3.3086,3.3822,3.4421,3.5239,3.5588,3.5639,3.5639,3.5639,3.5639,3.5739,3.6011,3.6374,3.6921,3.747,3.7755,3.8171,3.9186,3.9588,4.0139,4.1056,4.1864,4.2543,4.2965,4.3149,4.3479,4.3479,4.3479,4.3479,4.3479,4.3479,4.3479,0.9075,0.8928,0.7676,0.6091,0.4262,0.1274,-0.2532,-0.6431,-0.7717,-0.9179,-1.1091,-1.2996,-1.4643,-1.5432,-1.2772,-0.7317,-0.0238,0.7878,1.4658,1.9916,2.1164,2.1911,2.2371,2.2398,2.2755,2.3333,2.345,2.3759,2.4345,2.4796,2.4824,2.4379,2.3703,2.328,2.3093,2.2181,2.1654,2.1579,2.0735,2.0799,2.164,2.1912,2.3137,2.521,2.4992,2.4746,2.4827,2.4506,2.4026,2.3432,2.2302,2.1559,2.1305,2.0296,1.9854,2.0089,2.0246,2.0008,1.9426,1.8282,1.7288,1.6519,1.6027,1.6247,1.6998,1.7074,1.8256,2.0761,2.2649,2.3638,2.361,2.3924,2.4373,2.4821,2.548,2.6138,2.6846,2.7455,2.778,2.7675,2.786,2.8765,3.0895,3.3502,3.5059,3.4497,3.498,3.5639,3.5639,3.5639,3.5639,3.5639,3.5639,3.5827,3.6291,3.6643,3.7135,3.7739,3.8124,3.8882,3.9836,4.0102,4.0634,4.1772,4.2286,4.2727,4.3167,4.3406,4.3479,4.3479,4.3479,4.3479,4.3479,4.3479,4.3479,0.6627,0.7333,0.6436,0.5462,0.4265,0.1274,-0.2479,-0.65,-0.675,-0.8495,-1.1116,-1.163,-1.28,-1.3785,-0.744,-0.2785,0.1323,1.0099,1.6436,2.0128,2.121,2.2005,2.266,2.2695,2.3118,2.3852,2.3912,2.4219,2.4752,2.51,2.5101,2.4749,2.4186,2.3583,2.291,2.218,2.1586,2.0989,2.0552,2.054,2.1157,2.2005,2.332,2.4929,2.5038,2.5017,2.5077,2.458,2.417,2.3949,2.2701,2.204,2.1898,2.0585,1.9782,1.9782,2.0089,1.9869,1.903,1.8679,1.7997,1.6782,1.6504,1.6742,1.735,1.7752,1.8643,2.0085,2.2308,2.3595,2.3849,2.4852,2.553,2.5694,2.6171,2.6849,2.751,2.8064,2.8125,2.791,2.8332,2.9911,3.2476,3.4464,3.5414,3.5414,3.5543,3.5622,3.5639,3.5639,3.5639,3.5622,3.5667,3.5827,3.635,3.6781,3.7285,3.8093,3.9006,3.9818,4.0382,4.0983,4.1735,4.2415,4.2892,4.3222,4.3406,4.3479,4.3479,4.3479,4.3479,4.3479,4.3479,4.3479,4.3479,0.5579,0.6405,0.5882,0.5183,0.4206,0.1274,-0.2041,-0.5269,-0.6666,-0.8153,-0.9636,-1.0586,-0.9392,-0.6275,-0.0822,0.2627,0.5017,1.2433,1.7676,2.059,2.1795,2.2459,2.2703,2.3047,2.3466,2.395,2.4154,2.4456,2.4983,2.5286,2.5286,2.4913,2.4274,2.3452,2.25,2.1701,2.0956,2.0246,2.0227,2.0572,2.1203,2.2324,2.3639,2.4992,2.5141,2.5137,2.5009,2.4279,2.3748,2.3498,2.2382,2.1736,2.1698,2.0991,2.0277,1.9782,1.9793,1.9585,1.8925,1.8221,1.7639,1.7131,1.7035,1.7269,1.7822,1.8109,1.8694,2.003,2.2171,2.3791,2.4927,2.601,2.6914,2.7293,2.7272,2.7627,2.8389,2.8638,2.8463,2.8525,2.9201,3.1038,3.3707,3.5206,3.556,3.5639,3.5639,3.5639,3.5639,3.5639,3.5639,3.5667,3.5898,3.6291,3.6843,3.7038,3.7521,3.8733,3.9745,4.0529,4.1167,4.1644,4.2341,4.2837,4.3369,4.3424,4.3479,4.3479,4.3479,4.3479,4.3479,4.3479,4.3479,4.3479,4.3479,0.4886,0.5356,0.5238,0.4916,0.4206,0.1777,-0.1271,-0.4491,-0.6,-0.7228,-0.8397,-0.9548,-0.663,-0.0987,0.2885,0.7338,1.1434,1.612,1.9239,2.1285,2.2152,2.272,2.3141,2.3509,2.3895,2.429,2.4549,2.4855,2.5174,2.5283,2.5197,2.4962,2.3934,2.3016,2.2203,2.1173,2.0345,2.0174,2.0351,2.0815,2.1625,2.2736,2.3964,2.5011,2.5146,2.5026,2.4821,2.3845,2.3241,2.2982,2.2017,2.1543,2.1748,2.1535,2.0991,2.0227,1.9793,1.9207,1.8377,1.7518,1.6967,1.6782,1.6999,1.7422,1.8298,1.8316,1.8892,2.039,2.2278,2.4148,2.553,2.7045,2.8062,2.8176,2.8084,2.8399,2.9236,2.9225,2.9271,2.9669,3.0427,3.2373,3.488,3.5448,3.5639,3.5639,3.5639,3.5639,3.5639,3.5639,3.5639,3.5622,3.5854,3.6374,3.6882,3.719,3.8008,3.9192,4.0148,4.1005,4.1827,4.2323,4.2763,4.3277,4.3479,4.3479,4.3479,4.3479,4.3479,4.3479,4.3479,4.3479,4.3479,4.3479,4.3479,0.4373,0.4366,0.4494,0.4549,0.4268,0.2681,-0.0388,-0.377,-0.4542,-0.5662,-0.6754,-0.7939,-0.3886,0.1578,0.4417,1.0172,1.8856,2.0503,2.1081,2.1978,2.2218,2.2898,2.3853,2.3989,2.4375,2.4924,2.5167,2.5344,2.5435,2.5112,2.4915,2.452,2.3194,2.2454,2.2341,2.0783,2.0243,2.0682,2.0831,2.1348,2.2356,2.3213,2.4201,2.5195,2.4896,2.4599,2.4569,2.3269,2.2588,2.2639,2.1815,2.1624,2.2153,2.2147,2.1753,2.091,2.0097,1.8852,1.7464,1.6747,1.6188,1.5965,1.6168,1.7245,1.8464,1.8695,1.9394,2.1198,2.2737,2.4148,2.565,2.7779,2.8857,2.7934,2.8659,2.9355,2.9613,3.0011,3.0518,3.1056,3.1888,3.3361,3.497,3.5639,3.5639,3.5639,3.5639,3.5639,3.5639,3.5639,3.5639,3.5622,3.5958,3.6533,3.6939,3.7356,3.849,3.9564,4.0427,4.1313,4.2231,4.2837,4.3057,4.3479,4.3479,4.3479,4.3479,4.3479,4.3479,4.3479,4.3479,4.3479,4.3479,4.3479,4.3479,0.1394,0.1673,0.3641,0.4501,0.4278,0.2852,0.0723,-0.1612,-0.3495,-0.3687,-0.2661,-0.2677,0.252,0.9775,1.1349,1.519,2.2176,2.2741,2.267,2.2346,2.2976,2.3575,2.4008,2.4454,2.4873,2.5165,2.5266,2.5349,2.5342,2.5057,2.4791,2.4314,2.3275,2.2383,2.1792,2.099,2.0632,2.0567,2.1332,2.1905,2.2309,2.3319,2.413,2.4411,2.4023,2.3553,2.3094,2.2071,2.1479,2.1425,2.0861,2.1264,2.2487,2.2669,2.204,2.1054,2.002,1.8795,1.7356,1.6378,1.573,1.5649,1.6373,1.7303,1.8355,1.9703,2.0785,2.1783,2.2864,2.4133,2.5696,2.7904,2.923,2.9394,2.9762,3.0166,3.0543,3.1324,3.1597,3.1533,3.3203,3.4802,3.5363,3.5639,3.5639,3.5639,3.5639,3.5639,3.5622,3.5622,3.5639,3.5622,3.6174,3.6928,3.7595,3.8401,3.9476,4.0343,4.1046,4.1735,4.2616,4.313,4.3369,4.3479,4.3479,4.3479,4.3479,4.3479,4.3479,4.3479,4.3479,4.3479,4.3479,4.3479,4.3479,0.0,0.0,0.2012,0.3482,0.4169,0.2294,0.0894,-0.0223,-0.1946,-0.177,-0.0,0.2012,0.7001,1.3964,1.7049,2.0051,2.3085,2.3879,2.3668,2.2909,2.353,2.4082,2.4331,2.4847,2.5186,2.5309,2.5316,2.5342,2.5422,2.5052,2.4659,2.4125,2.3095,2.2306,2.1724,2.1118,2.0765,2.1224,2.1961,2.2528,2.2926,2.3679,2.4147,2.4076,2.3545,2.2903,2.2203,2.1387,2.081,2.0639,2.0606,2.1503,2.2986,2.2855,2.2197,2.1085,1.9936,1.8662,1.7044,1.5835,1.5177,1.5237,1.6181,1.7325,1.8289,2.0122,2.1165,2.2381,2.3125,2.4343,2.6238,2.8093,2.9508,2.9908,3.0377,3.0757,3.1269,3.1985,3.2442,3.251,3.3837,3.5081,3.5537,3.5639,3.5639,3.5639,3.5639,3.5739,3.5783,3.5739,3.5827,3.6087,3.678,3.7611,3.8485,3.9481,4.0552,4.1196,4.1757,4.2359,4.3057,4.3277,4.3479,4.3479,4.3479,4.3479,4.3479,4.3479,4.3479,4.3479,4.3479,4.3479,4.3479,4.3479,4.3479,0.0,-0.0111,-0.0,0.1681,0.3543,0.1232,0.0,0.0,0.0,-0.0,0.1314,0.5658,0.9523,1.3782,1.9938,2.3303,2.3878,2.4208,2.4248,2.3846,2.4006,2.4349,2.4809,2.5141,2.5301,2.536,2.5332,2.5378,2.5449,2.5001,2.4479,2.3868,2.2735,2.204,2.1907,2.0975,2.1178,2.2302,2.2775,2.3235,2.3775,2.4183,2.4159,2.3973,2.3272,2.2535,2.1765,2.1199,2.0735,2.0503,2.0989,2.1826,2.2838,2.2848,2.2224,2.1102,1.9989,1.8469,1.6731,1.5611,1.4871,1.4722,1.5697,1.6985,1.8436,1.961,2.1059,2.2819,2.342,2.4657,2.698,2.8449,2.918,2.9585,3.0477,3.1128,3.1326,3.1968,3.2594,3.3254,3.4049,3.4827,3.5554,3.5622,3.5622,3.5711,3.5739,3.5941,3.6249,3.6291,3.6333,3.6771,3.7391,3.833,3.9211,4.0293,4.133,4.2072,4.2506,4.2837,4.324,4.3387,4.3479,4.3479,4.3479,4.3479,4.3479,4.3479,4.3479,4.3479,4.3479,4.3479,4.3479,4.3479,4.3479,-0.2654,-0.1548,-0.0446,0.0447,0.1063,0.0224,0.0,0.0,0.0,0.1392,0.4095,0.9363,1.2831,1.5209,1.9831,2.2927,2.4161,2.4498,2.4478,2.4355,2.4505,2.4804,2.513,2.5292,2.5383,2.5389,2.5425,2.5449,2.5391,2.4872,2.4369,2.3824,2.2859,2.2167,2.1744,2.1413,2.1657,2.2443,2.3107,2.335,2.3538,2.3901,2.3427,2.2238,2.2052,2.1737,2.1299,2.1299,2.1098,2.0703,2.0938,2.1545,2.2483,2.2695,2.2224,2.1133,2.0322,1.9111,1.7301,1.6138,1.5466,1.5046,1.5615,1.6565,1.7825,1.9674,2.1037,2.2285,2.3024,2.4687,2.6999,2.7929,2.8654,2.9892,3.0807,3.1427,3.1935,3.2628,3.322,3.3491,3.4523,3.5311,3.561,3.5756,3.5827,3.6097,3.6207,3.6357,3.6746,3.6983,3.7036,3.7379,3.7964,3.8976,3.9968,4.1085,4.2059,4.2894,4.3185,4.3185,4.3406,4.3442,4.3479,4.3479,4.3479,4.3479,4.3479,4.3479,4.3479,4.3479,4.3479,4.3479,4.3479,4.3479,4.3479,-0.4736,-0.3092,-0.2221,-0.117,0.0,0.0,0.0,0.0,0.1457,0.3704,0.7356,1.2306,1.5571,1.7313,2.0695,2.3125,2.4625,2.4587,2.4461,2.4428,2.4654,2.4981,2.5255,2.5383,2.5402,2.5442,2.5481,2.546,2.527,2.4676,2.414,2.3692,2.2852,2.2283,2.2113,2.1886,2.227,2.3006,2.3403,2.3523,2.3665,2.3572,2.295,2.1954,2.1776,2.1774,2.174,2.1876,2.1728,2.1313,2.1368,2.1723,2.2203,2.2254,2.1874,2.0991,2.0338,1.9192,1.7759,1.6687,1.5964,1.5561,1.5774,1.6472,1.7639,1.9426,2.0782,2.171,2.2846,2.4804,2.7033,2.8027,2.9076,3.0489,3.129,3.1816,3.2256,3.3203,3.3592,3.3905,3.4823,3.6071,3.6207,3.6291,3.6399,3.6643,3.6724,3.7002,3.736,3.7571,3.7931,3.8403,3.9067,4.0167,4.0961,4.1969,4.2459,4.3277,4.3442,4.3479,4.3479,4.3479,4.3479,4.3479,4.3479,4.3513,4.3529,4.3548,4.3479,4.3479,4.3479,4.3513,4.3513,4.3479,4.3479,-0.6684,-0.5012,-0.4656,-0.2888,-0.0557,0.0,0.0,0.0,0.2977,0.6347,1.022,1.4651,1.7196,1.9085,2.1937,2.4078,2.4721,2.4529,2.4425,2.4461,2.4678,2.5008,2.5379,2.5389,2.5433,2.5484,2.5488,2.5421,2.5159,2.4409,2.3926,2.3576,2.274,2.2434,2.2504,2.239,2.2957,2.371,2.3744,2.3732,2.3765,2.3431,2.2758,2.1946,2.1945,2.2164,2.2398,2.2583,2.2409,2.1744,2.1984,2.2147,2.2192,2.1705,2.1311,2.1,2.0264,1.9295,1.8238,1.7173,1.629,1.6041,1.5911,1.6385,1.7521,1.8891,2.008,2.1183,2.2741,2.482,2.7142,2.8638,2.9756,3.0953,3.1792,3.2408,3.2771,3.3694,3.4252,3.3855,3.5334,3.6446,3.7135,3.7248,3.7228,3.7193,3.7321,3.7649,3.8097,3.8509,3.9063,3.975,4.0573,4.1523,4.2209,4.2821,4.3112,4.3479,4.3461,4.3479,4.3479,4.3479,4.3479,4.3479,4.3479,4.3563,4.3646,4.3612,4.3597,4.3679,4.3823,4.3712,4.3563,4.3513,4.3479,-0.9395,-0.8294,-0.5605,-0.3675,-0.2206,0.0,0.0,0.0,0.3144,0.7004,1.1601,1.5582,1.7952,1.9567,2.2539,2.4168,2.4557,2.4425,2.4393,2.4697,2.4737,2.5072,2.5387,2.5433,2.5449,2.5467,2.5438,2.533,2.5024,2.4539,2.3987,2.3544,2.3221,2.288,2.2762,2.311,2.3419,2.3961,2.4055,2.3893,2.3669,2.3437,2.2693,2.1576,2.1592,2.1898,2.2344,2.3034,2.3106,2.26,2.2398,2.2417,2.2094,2.1006,2.0676,2.1,2.0678,1.9986,1.9341,1.8119,1.7093,1.6607,1.615,1.6084,1.7467,1.8193,1.9105,2.0369,2.2282,2.4502,2.7229,2.867,2.979,3.0839,3.2197,3.3355,3.3914,3.4303,3.4641,3.5205,3.5847,3.6904,3.8101,3.7596,3.756,3.7685,3.8021,3.8357,3.8839,3.941,4.0108,4.0836,4.1541,4.2318,4.2571,4.3075,4.3296,4.3479,4.3479,4.3479,4.3479,4.3479,4.3479,4.3479,4.3479,4.3597,4.3726,4.3849,4.3849,4.4004,4.4095,4.3943,4.3804,4.3679,4.3497,-1.1088,-0.9903,-0.7524,-0.5457,-0.3673,-0.2544,-0.1279,0.0223,0.2122,0.6491,1.1779,1.515,1.7987,2.1001,2.3359,2.4649,2.4652,2.4575,2.4644,2.4892,2.4957,2.517,2.5446,2.5463,2.5447,2.5478,2.5324,2.5186,2.495,2.4479,2.4026,2.3737,2.3462,2.337,2.3347,2.3676,2.403,2.427,2.4199,2.396,2.3615,2.3223,2.2785,2.1832,2.174,2.2023,2.2643,2.3264,2.3651,2.366,2.3441,2.2931,2.227,2.1245,2.0846,2.0631,2.0878,2.0385,1.9678,1.874,1.7765,1.7218,1.6671,1.6914,1.7523,1.8012,1.9105,2.0319,2.1663,2.3215,2.7041,2.867,2.9747,3.1013,3.2426,3.3803,3.4726,3.503,3.529,3.5951,3.6528,3.7414,3.7913,3.7913,3.807,3.8289,3.8885,3.9254,3.9692,4.0284,4.1068,4.1772,4.2415,4.2876,4.2968,4.3185,4.3387,4.3479,4.3479,4.3479,4.3479,4.3479,4.3479,4.3479,4.3513,4.366,4.3818,4.3955,4.4146,4.4308,4.4337,4.4204,4.4058,4.3912,4.3693,-1.2445,-1.1161,-0.9695,-0.7565,-0.5288,-0.4627,-0.3046,-0.0835,0.0889,0.576,1.1665,1.4285,1.7879,2.2068,2.4275,2.5026,2.4954,2.4879,2.4884,2.5053,2.5099,2.5298,2.5488,2.5484,2.5441,2.5449,2.523,2.5067,2.4828,2.436,2.3988,2.3892,2.3737,2.3699,2.3989,2.4274,2.4466,2.4602,2.437,2.3934,2.3537,2.3071,2.2626,2.2113,2.1931,2.2326,2.2971,2.3579,2.4113,2.4831,2.4853,2.4058,2.2936,2.2157,2.1591,2.054,2.1082,2.0895,2.0307,1.9266,1.8425,1.7829,1.7578,1.7843,1.8162,1.8422,1.9522,2.1101,2.2413,2.3702,2.7315,2.8764,3.0094,3.1475,3.2763,3.4013,3.5199,3.5622,3.5864,3.6464,3.6882,3.7524,3.8219,3.8483,3.87,3.8964,3.9551,4.0139,4.0598,4.1093,4.1827,4.2396,4.2947,4.3149,4.324,4.3259,4.3461,4.3479,4.3479,4.3479,4.3479,4.3479,4.3479,4.3479,4.3529,4.374,4.3955,4.4194,4.4392,4.4599,4.4657,4.4587,4.4382,4.4128,4.403,-1.4586,-1.3687,-1.1442,-0.9511,-0.7729,-0.5565,-0.4239,-0.3214,0.0055,0.5957,1.2731,1.4509,1.7915,2.2193,2.4433,2.5027,2.4955,2.4928,2.5013,2.5173,2.5253,2.5398,2.5488,2.55,2.5459,2.5348,2.5148,2.4955,2.4743,2.4296,2.4024,2.3826,2.3891,2.4026,2.4264,2.4555,2.4756,2.4703,2.4567,2.4174,2.345,2.2994,2.2563,2.1919,2.1768,2.2266,2.3147,2.3833,2.4433,2.5032,2.6206,2.5719,2.4607,2.364,2.3086,2.2594,2.2019,2.1609,2.1056,2.0187,1.9278,1.8573,1.8213,1.8713,1.9275,1.9132,2.0406,2.2883,2.5106,2.6912,2.8808,2.9335,3.0338,3.1839,3.305,3.4066,3.5216,3.5711,3.5985,3.6661,3.7076,3.7578,3.8271,3.8872,3.9129,3.9478,4.0102,4.0836,4.1515,4.1919,4.2415,4.291,4.3351,4.3424,4.3442,4.3424,4.3479,4.3479,4.3479,4.3479,4.3479,4.3479,4.3479,4.3479,4.3631,4.3836,4.4095,4.4364,4.4757,4.5055,4.5033,4.4988,4.4762,4.4599,4.4869,-1.558,-1.4767,-1.2329,-1.0487,-0.8906,-0.6615,-0.5128,-0.4045,-0.0661,0.5515,1.1747,1.4701,1.7977,2.2324,2.4619,2.5171,2.5122,2.5085,2.52,2.5347,2.5403,2.5464,2.5541,2.5527,2.5389,2.5213,2.5008,2.4864,2.4775,2.4337,2.4136,2.4192,2.4335,2.4485,2.4662,2.4956,2.496,2.4791,2.4706,2.4279,2.3227,2.277,2.2116,2.1933,2.1827,2.2311,2.3198,2.3884,2.4654,2.5484,2.6437,2.6826,2.65,2.5625,2.4569,2.3793,2.3051,2.235,2.1736,2.0779,2.0117,1.98,1.9651,2.0147,2.0913,2.1199,2.2233,2.4924,2.6402,2.8076,2.9241,2.971,3.0814,3.2204,3.3316,3.4411,3.5294,3.5803,3.6291,3.6821,3.7114,3.7667,3.8492,3.9038,3.946,4.001,4.0634,4.1423,4.2286,4.2653,4.2965,4.3167,4.3479,4.3479,4.3479,4.3479,4.3479,4.3479,4.3479,4.3479,4.3479,4.3479,4.3479,4.3479,4.3679,4.3931,4.4337,4.4657,4.5096,4.5457,4.5362,4.5263,4.5096,4.5095,4.5418,-1.6273,-1.5469,-1.2972,-1.1148,-0.9688,-0.767,-0.5738,-0.3808,-0.0823,0.5755,1.3537,1.5291,1.8427,2.2663,2.4667,2.5393,2.5348,2.5329,2.5409,2.5488,2.5506,2.5535,2.5579,2.5498,2.5356,2.5139,2.4911,2.479,2.4689,2.4375,2.4358,2.4459,2.4697,2.4917,2.5097,2.521,2.511,2.496,2.4789,2.4258,2.3282,2.2298,2.1697,2.1884,2.2014,2.2423,2.3074,2.4,2.4869,2.5754,2.6667,2.746,2.8319,2.7642,2.6235,2.4784,2.4112,2.3201,2.2489,2.1937,2.1702,2.1602,2.1898,2.2196,2.2977,2.3946,2.5228,2.7155,2.7993,2.8352,2.935,3.0151,3.1299,3.2547,3.3755,3.4786,3.5433,3.5985,3.6457,3.6843,3.7135,3.7792,3.8643,3.9331,3.9772,4.0524,4.1148,4.1937,4.2727,4.3057,4.3314,4.3369,4.3479,4.3479,4.3479,4.3479,4.3479,4.3479,4.3479,4.3479,4.3479,4.3479,4.3479,4.3513,4.3772,4.4046,4.4501,4.4872,4.5182,4.5419,4.5531,4.5513,4.5342,4.5644,4.6077,-1.7089,-1.5997,-1.3642,-1.1886,-1.0434,-0.8397,-0.5726,-0.2772,0.0538,0.7455,1.6533,1.6909,1.9551,2.3487,2.5039,2.5459,2.5472,2.5453,2.548,2.554,2.5525,2.5545,2.5587,2.5471,2.5313,2.5101,2.4892,2.4753,2.4613,2.4357,2.4358,2.4561,2.4742,2.4952,2.5219,2.532,2.5294,2.512,2.4903,2.4358,2.3476,2.2475,2.1956,2.1773,2.1965,2.2394,2.2925,2.3955,2.5023,2.5897,2.7091,2.7773,2.8075,2.8558,2.8219,2.7099,2.5796,2.4358,2.3932,2.3631,2.367,2.3569,2.3673,2.4316,2.5199,2.6094,2.695,2.739,2.8448,2.9384,2.9951,3.0668,3.1868,3.3014,3.4115,3.4922,3.5552,3.6291,3.6724,3.7135,3.747,3.8072,3.8829,3.9483,4.0139,4.0928,4.1699,4.2488,4.3039,4.3332,4.3479,4.3479,4.3479,4.3479,4.3479,4.3479,4.3479,4.3479,4.3479,4.3479,4.3479,4.3479,4.3479,4.3563,4.3836,4.4136,4.4527,4.4853,4.5182,4.54,4.5549,4.5586,4.5568,4.607,4.6647,-1.7949,-1.6616,-1.4301,-1.2319,-1.0646,-0.8908,-0.553,-0.1064,0.3319,1.0231,1.7506,1.8423,2.0793,2.4372,2.5288,2.5376,2.5383,2.5398,2.5453,2.5539,2.5511,2.5543,2.5561,2.5489,2.5343,2.5101,2.4911,2.4733,2.4588,2.453,2.4497,2.4704,2.4841,2.5081,2.5317,2.5344,2.5294,2.5034,2.4595,2.3891,2.3244,2.2818,2.2452,2.1937,2.2024,2.2405,2.31,2.3887,2.4804,2.5644,2.6869,2.7725,2.8037,2.8507,2.8791,2.8515,2.7738,2.6534,2.5345,2.5061,2.5196,2.5539,2.5632,2.6195,2.7052,2.7355,2.756,2.761,2.8717,2.9891,3.115,3.1819,3.2707,3.3681,3.4556,3.5241,3.5917,3.6475,3.7058,3.7433,3.788,3.8594,3.9323,4.0125,4.0726,4.1185,4.2047,4.2928,4.3277,4.3387,4.3479,4.3479,4.3479,4.3479,4.3479,4.3479,4.3479,4.3479,4.3479,4.3479,4.3479,4.3479,4.3479,4.3597,4.3804,4.4136,4.4508,4.4853,4.5182,4.54,4.5586,4.5663,4.5778,4.6432,4.7165,-1.8546,-1.7206,-1.4756,-1.2436,-1.0404,-0.9166,-0.5145,0.0935,0.6155,1.2665,1.8416,2.0458,2.2617,2.4709,2.5303,2.5321,2.533,2.5331,2.5413,2.5493,2.5526,2.5535,2.5564,2.5516,2.5356,2.5129,2.496,2.4955,2.4945,2.4806,2.4746,2.4926,2.4979,2.5186,2.5381,2.5408,2.5356,2.5416,2.4801,2.4189,2.3693,2.3506,2.3138,2.2702,2.2473,2.2455,2.3113,2.3967,2.4578,2.5054,2.6538,2.7507,2.7936,2.87,2.9188,2.923,2.9077,2.8592,2.7281,2.6541,2.661,2.7163,2.762,2.7981,2.7768,2.7795,2.756,2.761,2.9164,3.1007,3.2596,3.2921,3.3359,3.4155,3.5047,3.5745,3.6333,3.6825,3.7283,3.7685,3.8323,3.9272,4.0033,4.091,4.1387,4.1589,4.2341,4.3296,4.3479,4.3479,4.3479,4.3479,4.3479,4.3479,4.3479,4.3479,4.3479,4.3479,4.3479,4.3479,4.3479,4.3479,4.3479,4.3612,4.3758,4.4106,4.4447,4.483,4.5201,4.5419,4.5624,4.5817,4.6105,4.6797,4.7817,-1.8612,-1.7786,-1.4879,-1.2203,-0.9768,-0.9022,-0.4362,0.3063,0.8759,1.4146,1.9486,2.2545,2.4552,2.5274,2.5354,2.5346,2.5379,2.5391,2.5477,2.5535,2.5547,2.559,2.5593,2.5503,2.5343,2.5186,2.5026,2.5283,2.5551,2.5037,2.5089,2.5232,2.5241,2.531,2.5543,2.5739,2.5795,2.5866,2.5541,2.5329,2.494,2.456,2.3957,2.3553,2.3314,2.304,2.2072,2.3432,2.4327,2.4467,2.6029,2.7382,2.7929,2.8851,2.9357,2.9709,3.0228,2.9763,2.8795,2.8356,2.8782,2.9467,2.9733,2.9403,2.881,2.8027,2.771,2.7955,2.9688,3.1625,3.2908,3.3448,3.3845,3.4547,3.5409,3.5985,3.6522,3.702,3.745,3.79,3.8731,3.9754,4.0763,4.1625,4.1827,4.2011,4.2543,4.3479,4.3479,4.3479,4.3479,4.3479,4.3479,4.3479,4.3479,4.3479,4.3479,4.3479,4.3479,4.3479,4.3479,4.3479,4.3479,4.3513,4.3646,4.4035,4.4392,4.4732,4.5055,4.5419,4.5682,4.5932,4.6797,4.7759,4.8856,-1.8113,-1.6796,-1.462,-1.234,-0.9976,-0.72,-0.1594,0.5852,1.2305,1.7685,2.2115,2.4297,2.5352,2.543,2.5446,2.5434,2.5465,2.5465,2.5531,2.5561,2.5573,2.5601,2.5593,2.552,2.5408,2.5287,2.5147,2.5141,2.5428,2.534,2.5757,2.5874,2.5754,2.5822,2.6035,2.6486,2.6606,2.6451,2.6428,2.6313,2.5601,2.5714,2.5062,2.3683,2.3543,2.3375,2.3054,2.3462,2.3914,2.4538,2.5579,2.6555,2.7625,2.8633,2.9278,2.9671,3.0284,3.0272,3.0091,2.9781,3.016,3.0412,3.0451,3.0081,2.9569,2.9042,2.8271,2.8872,3.0628,3.2714,3.3203,3.3829,3.4387,3.5067,3.5685,3.6239,3.6764,3.721,3.79,3.8425,3.9352,4.0382,4.1368,4.2341,4.2378,4.2433,4.302,4.3479,4.3479,4.3479,4.3479,4.3479,4.3479,4.3479,4.3479,4.3479,4.3479,4.3479,4.3479,4.3479,4.3479,4.3479,4.3479,4.3479,4.3563,4.3899,4.4252,4.4606,4.4988,4.5419,4.5799,4.6163,4.7259,4.8625,4.9586,-1.7863,-1.6181,-1.4383,-1.2177,-0.9542,-0.5328,0.0857,0.8262,1.5356,2.0643,2.4542,2.5117,2.5409,2.55,2.5483,2.5473,2.5492,2.5512,2.559,2.5605,2.5634,2.5633,2.5601,2.5547,2.5457,2.5432,2.5601,2.568,2.597,2.5849,2.6598,2.7027,2.6761,2.6797,2.7028,2.7535,2.7657,2.7381,2.7131,2.7077,2.6368,2.6118,2.6122,2.4544,2.4225,2.3462,2.3216,2.3201,2.336,2.3812,2.4508,2.5371,2.6584,2.7725,2.8546,2.8955,2.9453,2.9913,3.0082,3.0617,3.0871,3.1021,3.0828,3.0559,3.0335,3.0113,2.9742,3.0067,3.2056,3.3558,3.3795,3.4404,3.4742,3.5294,3.59,3.6457,3.6999,3.7487,3.8303,3.899,3.9978,4.091,4.1754,4.2653,4.2873,4.2873,4.3149,4.3479,4.3479,4.3479,4.3479,4.3479,4.3479,4.3479,4.3479,4.3479,4.3479,4.3479,4.3479,4.3479,4.3479,4.3479,4.3479,4.3479,4.3631,4.3836,4.4095,4.4346,4.4877,4.5476,4.6127,4.6953,4.8029,4.9317,4.9875,-1.7853,-1.62,-1.4148,-1.1517,-0.8126,-0.3582,0.2532,0.9712,1.7411,2.2402,2.4865,2.5132,2.5294,2.5469,2.541,2.5427,2.5507,2.5559,2.5618,2.5664,2.5664,2.5684,2.5694,2.5642,2.5765,2.5743,2.6135,2.6636,2.6897,2.7127,2.7903,2.8493,2.8287,2.795,2.8041,2.8326,2.843,2.8276,2.7791,2.7573,2.7203,2.6421,2.6068,2.5535,2.4887,2.4002,2.3187,2.2875,2.2951,2.304,2.3167,2.3648,2.4133,2.6134,2.6826,2.6503,2.834,2.9097,2.905,3.0369,3.096,3.11,3.0878,3.1015,3.1055,3.1116,3.1666,3.2133,3.3455,3.4269,3.4692,3.503,3.5216,3.5494,3.6113,3.6661,3.7173,3.7826,3.8587,3.9378,4.04,4.1387,4.2176,4.2892,4.324,4.3387,4.3442,4.3479,4.3479,4.3479,4.3479,4.3479,4.3479,4.3479,4.3479,4.3479,4.3479,4.3479,4.3479,4.3479,4.3479,4.3479,4.3479,4.3479,4.3563,4.3744,4.3899,4.4076,4.5124,4.6296,4.7242,4.8145,4.9144,4.9856,5.0317,-1.6741,-1.4923,-1.2606,-0.937,-0.5436,-0.121,0.432,1.1172,1.9134,2.3992,2.4657,2.4849,2.5039,2.5214,2.5309,2.534,2.5473,2.5512,2.5576,2.5636,2.5636,2.5625,2.5732,2.6096,2.6318,2.6532,2.7046,2.7486,2.7588,2.8007,2.8898,2.9536,2.9581,2.9306,2.8974,2.9015,2.9154,2.8669,2.8152,2.773,2.7165,2.6588,2.6057,2.557,2.5112,2.4323,2.326,2.3007,2.2665,2.25,2.2507,2.2399,2.2555,2.425,2.4833,2.5861,2.8023,2.8529,2.9066,3.011,3.0543,3.0699,3.0958,3.119,3.119,3.119,3.2493,3.4117,3.4573,3.5098,3.5385,3.5419,3.5548,3.5708,3.6207,3.6786,3.736,3.8101,3.8829,3.9667,4.0616,4.1809,4.2763,4.3057,4.3369,4.3479,4.3479,4.3479,4.3479,4.3479,4.3479,4.3479,4.3479,4.3479,4.3479,4.3479,4.3479,4.3479,4.3479,4.3479,4.3479,4.3479,4.3479,4.3479,4.3548,4.3597,4.4064,4.4692,4.6116,4.7296,4.8127,4.8758,4.9413,5.0029,5.051,-1.5584,-1.3372,-1.1666,-0.7942,-0.3064,0.1314,0.7235,1.4467,2.1344,2.4393,2.446,2.4512,2.4682,2.4889,2.509,2.5201,2.5383,2.5479,2.5543,2.5598,2.5603,2.5837,2.6221,2.658,2.6914,2.7284,2.786,2.828,2.795,2.8558,2.9431,3.0256,3.0525,2.9829,2.9432,2.9333,2.9345,2.8787,2.8272,2.7777,2.7251,2.6673,2.6125,2.5587,2.5121,2.457,2.3921,2.3259,2.2603,2.231,2.2034,2.1772,2.1854,2.2199,2.3289,2.5466,2.73,2.7853,2.8639,2.9597,2.9892,2.9995,3.0699,3.1134,3.119,3.119,3.2611,3.4117,3.5233,3.5571,3.5622,3.5639,3.5739,3.5924,3.6481,3.7058,3.7703,3.8413,3.9428,4.0212,4.1093,4.2268,4.313,4.3277,4.3461,4.3479,4.3479,4.3479,4.3479,4.3479,4.3479,4.3479,4.3479,4.3479,4.3479,4.3479,4.3479,4.3479,4.3479,4.3479,4.3479,4.3479,4.3479,4.3497,4.355,4.38,4.4476,4.5413,4.6836,4.7946,4.8824,4.9338,4.9759,5.0183,5.0644,-1.4564,-1.1853,-1.1318,-0.7258,-0.1177,0.4296,1.1709,2.0063,2.259,2.3819,2.4114,2.4005,2.4256,2.4611,2.4916,2.5062,2.5139,2.5363,2.5469,2.5561,2.5564,2.6104,2.662,2.6971,2.7523,2.8232,2.8796,2.9013,2.8338,2.9347,3.0287,3.0546,3.0563,3.0027,2.9631,2.9446,2.9266,2.8669,2.8094,2.7736,2.7376,2.6607,2.6198,2.5718,2.514,2.4594,2.3955,2.336,2.2534,2.2055,2.1699,2.169,2.1642,2.1533,2.2788,2.4632,2.6755,2.7455,2.7978,2.8904,2.9406,2.9717,3.0617,3.1015,3.119,3.1258,3.2391,3.3846,3.4986,3.5385,3.5639,3.5694,3.581,3.6232,3.6786,3.7411,3.806,3.8958,4.0042,4.0965,4.1827,4.2708,4.324,4.3479,4.3479,4.3479,4.3479,4.3479,4.3479,4.3479,4.3479,4.3479,4.3479,4.3479,4.3479,4.3479,4.3479,4.3479,4.3479,4.3479,4.3479,4.3479,4.3479,4.3497,4.3571,4.4078,4.5192,4.6327,4.7517,4.8532,4.9321,4.9809,5.0162,5.0356,5.0683,-1.4007,-1.21,-0.8611,-0.4128,0.1426,0.9494,1.6392,2.1444,2.2877,2.3289,2.3155,2.3623,2.397,2.4335,2.4569,2.4796,2.4958,2.5119,2.5286,2.5396,2.5531,2.6152,2.6833,2.7508,2.8188,2.8969,2.9601,2.9905,2.9884,3.0582,3.0597,3.0605,3.055,3.0122,2.9813,2.9649,2.9003,2.8337,2.7741,2.7504,2.7201,2.6401,2.6049,2.5477,2.5005,2.4434,2.3906,2.3362,2.2698,2.2359,2.184,2.1747,2.2071,2.1906,2.2716,2.6271,2.7384,2.761,2.7795,2.8717,2.9406,2.9673,3.0576,3.1015,3.119,3.1427,3.2029,3.3516,3.4868,3.547,3.5639,3.5711,3.5968,3.6481,3.7034,3.7665,3.8381,3.9458,4.0565,4.1772,4.2635,4.2928,4.3442,4.3479,4.3479,4.3479,4.3479,4.3479,4.3479,4.3479,4.3479,4.3479,4.3479,4.3479,4.3479,4.3479,4.3479,4.3479,4.3479,4.3479,4.3479,4.3479,4.3479,4.3771,4.4262,4.5167,4.6324,4.7376,4.8375,4.8947,4.9701,5.0172,5.0544,5.0624,5.0683,-1.3379,-1.142,-0.6129,0.0884,0.898,1.495,1.958,2.2373,2.2643,2.2375,2.2233,2.2999,2.3684,2.419,2.4356,2.4572,2.4911,2.5015,2.5168,2.5414,2.5526,2.6461,2.726,2.7988,2.8808,2.9629,3.0195,3.041,3.0585,3.0598,3.0604,3.0596,3.0528,3.019,2.9794,2.9433,2.8798,2.8058,2.7425,2.7057,2.6589,2.6108,2.5584,2.5226,2.4839,2.4477,2.4128,2.3687,2.3441,2.2958,2.2355,2.2252,2.2387,2.2006,2.3633,2.6695,2.7174,2.7545,2.7978,2.881,2.9406,2.9908,3.0651,3.1257,3.141,3.1546,3.2452,3.3592,3.4749,3.5639,3.5639,3.5711,3.6182,3.6643,3.7273,3.7863,3.8865,3.9889,4.1137,4.247,4.3075,4.3314,4.3479,4.3479,4.3479,4.3479,4.3479,4.3479,4.3479,4.3479,4.3479,4.3479,4.3479,4.3479,4.3479,4.3479,4.3479,4.3479,4.3479,4.3479,4.3479,4.3624,4.375,4.4426,4.5213,4.6155,4.7149,4.8178,4.9098,4.9576,4.9924,5.0358,5.0624,5.0663,5.0683,-1.2319,-0.9567,-0.2796,0.7636,1.8535,1.9516,2.1081,2.3184,2.2275,2.159,2.1634,2.2534,2.3533,2.4192,2.4321,2.4524,2.482,2.4986,2.5149,2.5517,2.578,2.6614,2.7686,2.8359,2.9251,3.0135,3.0586,3.0533,3.0564,3.0573,3.0553,3.0587,3.0537,3.0237,2.978,2.95,2.8873,2.7951,2.7337,2.6862,2.613,2.557,2.5259,2.5275,2.516,2.5029,2.4992,2.4802,2.4627,2.38,2.3305,2.3155,2.2117,2.253,2.4776,2.6154,2.6834,2.7515,2.824,2.9134,2.9717,3.0267,3.0905,3.1668,3.1968,3.2019,3.2874,3.3642,3.4722,3.5442,3.5639,3.6011,3.6522,3.7027,3.7625,3.8582,3.9738,4.0826,4.2014,4.3039,4.3259,4.3479,4.3479,4.3479,4.3479,4.3479,4.3479,4.3479,4.3479,4.3479,4.3479,4.3479,4.3479,4.3479,4.3479,4.3479,4.3479,4.3479,4.3479,4.3479,4.3479,4.3716,4.4042,4.5234,4.6499,4.7018,4.7847,4.8851,4.9508,4.9713,5.0092,5.0504,5.0683,5.0683,5.0683,-0.9116,-0.2165,0.8911,1.5536,1.7847,1.9258,2.066,2.2024,2.2476,2.2327,2.2153,2.3008,2.3853,2.4425,2.4489,2.4674,2.4886,2.4986,2.5168,2.5647,2.6037,2.6926,2.8186,2.8799,2.9653,3.0263,3.0562,3.0521,3.0525,3.051,3.0482,3.0521,3.047,3.0235,2.9917,2.9642,2.9041,2.8021,2.7362,2.6897,2.6318,2.6035,2.5815,2.5668,2.5497,2.5534,2.5519,2.5534,2.5273,2.479,2.4431,2.3093,2.0996,2.2855,2.4443,2.5755,2.6686,2.7505,2.8512,2.9422,3.0113,3.0625,3.134,3.2251,3.278,3.2831,3.3178,3.3895,3.457,3.5222,3.5783,3.6316,3.6843,3.7385,3.806,3.9315,4.0606,4.1776,4.2928,4.3222,4.3442,4.3479,4.3479,4.3479,4.3479,4.3479,4.3479,4.3479,4.3479,4.3479,4.3479,4.3479,4.3479,4.3479,4.3479,4.3479,4.3479,4.3479,4.3479,4.3479,4.3534,4.4454,4.5356,4.6749,4.7916,4.8215,4.8633,4.9408,4.9911,4.9974,5.0183,5.0604,5.0683,5.0683,5.0683,-0.5838,0.1853,1.4592,1.9191,1.8381,2.0017,2.133,2.2006,2.2729,2.3061,2.3013,2.3391,2.3933,2.4645,2.4804,2.4827,2.5005,2.4979,2.5196,2.5635,2.6437,2.7284,2.8218,2.914,2.9847,3.0425,3.0468,3.0472,3.0479,3.0434,3.0424,3.0481,3.0453,3.0321,3.006,2.9821,2.9233,2.8211,2.7461,2.6882,2.647,2.5977,2.5652,2.5519,2.5728,2.591,2.6262,2.633,2.6366,2.5487,2.4515,2.3519,2.2177,2.264,2.3891,2.5232,2.6395,2.7495,2.8717,2.9705,3.0584,3.1224,3.1657,3.2544,3.3558,3.366,3.3863,3.4513,3.5003,3.5622,3.5898,3.6357,3.6825,3.7372,3.8402,3.9603,4.1074,4.2488,4.313,4.3351,4.3479,4.3479,4.3479,4.3479,4.3479,4.3479,4.3479,4.3479,4.3479,4.3479,4.3479,4.3479,4.3479,4.3479,4.3479,4.3479,4.3479,4.3479,4.3516,4.3881,4.4228,4.556,4.6825,4.7803,4.8589,4.9107,4.9603,5.0024,5.0092,5.0068,5.0336,5.0683,5.0683,5.0721,5.0894,-0.1555,0.5849,1.7226,2.0962,1.947,2.1362,2.2318,2.2488,2.3,2.3592,2.3985,2.3602,2.402,2.4633,2.5078,2.5082,2.5087,2.5107,2.526,2.5712,2.6603,2.7488,2.8367,2.9267,3.0007,3.037,3.045,3.0459,3.0482,3.043,3.0424,3.0472,3.0413,3.029,3.0094,2.9709,2.9072,2.8193,2.7408,2.6756,2.6123,2.5551,2.5448,2.5557,2.5847,2.6302,2.6928,2.7312,2.7514,2.6617,2.5047,2.3785,2.3144,2.3075,2.3936,2.5232,2.6509,2.7762,2.9009,3.0038,3.1058,3.1881,3.2215,3.2916,3.3931,3.4472,3.4675,3.4918,3.5391,3.581,3.6122,3.655,3.7052,3.7842,3.9013,4.0199,4.1734,4.3057,4.3259,4.3479,4.3479,4.3479,4.3479,4.3479,4.3479,4.3479,4.3479,4.3479,4.3479,4.3479,4.3479,4.3479,4.3479,4.3479,4.3479,4.3479,4.3497,4.3626,4.3754,4.4248,4.5029,4.6438,4.7552,4.8265,4.9013,4.967,4.9997,5.0294,5.0272,5.023,5.0442,5.0683,5.0683,5.0798,5.1164,0.5885,1.7953,2.0814,2.1178,2.067,2.1989,2.2237,2.1824,2.2876,2.3749,2.4039,2.434,2.4572,2.4804,2.4861,2.4942,2.5149,2.5203,2.5324,2.5648,2.6997,2.7805,2.8594,2.957,3.0234,3.0437,3.0459,3.0456,3.0502,3.0439,3.0405,3.0461,3.0285,3.0132,2.9927,2.9437,2.8772,2.7994,2.7278,2.6553,2.6401,2.5982,2.567,2.5831,2.611,2.7219,2.8095,2.8297,2.8515,2.7969,2.6674,2.4928,2.3981,2.3833,2.4684,2.5833,2.7047,2.8086,2.9342,3.0377,3.1419,3.2334,3.2747,3.344,3.4336,3.5047,3.5216,3.5318,3.5739,3.6165,3.6557,3.721,3.7807,3.9121,4.0359,4.1535,4.2913,4.3259,4.3406,4.3479,4.3479,4.3479,4.3479,4.3479,4.3479,4.3479,4.3479,4.3513,4.3563,4.3529,4.3479,4.3548,4.3529,4.3479,4.3479,4.3497,4.3534,4.3699,4.4211,4.5092,4.616,4.7391,4.8371,4.8881,4.9613,5.0325,5.0565,5.0504,5.0544,5.0504,5.0565,5.0683,5.0683,5.0952,5.1414]}]]